<?xml version='1.0' encoding='UTF-8'?><gpx version="1.1" creator="JPX - https://github.com/jenetics/jpx" xmlns="http://www.topografix.com/GPX/1/1"><trk><trkseg><trkpt lat="43.7805369" lon="11.5959999"><ele>1017.0</ele><time>2026-04-12T13:21:56.95Z</time></trkpt><trkpt lat="43.7804687" lon="11.5959178"><ele>1017.0</ele><time>2026-04-12T13:21:58.95Z</time></trkpt><trkpt lat="43.7803708" lon="11.5958133"><ele>1017.0</ele><time>2026-04-12T13:22:00.951Z</time></trkpt><trkpt lat="43.7803162" lon="11.5957495"><ele>1017.0</ele><time>2026-04-12T13:22:01.95Z</time></trkpt><trkpt lat="43.7802537" lon="11.5956805"><ele>1017.0</ele><time>2026-04-12T13:22:02.949Z</time></trkpt><trkpt lat="43.7801913" lon="11.5956155"><ele>1017.0</ele><time>2026-04-12T13:22:03.95Z</time></trkpt><trkpt lat="43.7801198" lon="11.5955468"><ele>1017.2</ele><time>2026-04-12T13:22:04.951Z</time></trkpt><trkpt lat="43.7800446" lon="11.5954748"><ele>1017.4000000000001</ele><time>2026-04-12T13:22:05.949Z</time></trkpt><trkpt lat="43.7799666" lon="11.5953895"><ele>1017.5999999999999</ele><time>2026-04-12T13:22:06.951Z</time></trkpt><trkpt lat="43.7798862" lon="11.5952778"><ele>1017.8</ele><time>2026-04-12T13:22:07.951Z</time></trkpt><trkpt lat="43.7798122" lon="11.5951466"><ele>1018.0</ele><time>2026-04-12T13:22:08.95Z</time></trkpt><trkpt lat="43.7797498" lon="11.5949923"><ele>1018.0</ele><time>2026-04-12T13:22:09.95Z</time></trkpt><trkpt lat="43.7796974" lon="11.5948204"><ele>1018.0</ele><time>2026-04-12T13:22:10.951Z</time></trkpt><trkpt lat="43.7796633" lon="11.5946307"><ele>1018.0</ele><time>2026-04-12T13:22:11.95Z</time></trkpt><trkpt lat="43.779652" lon="11.5944264"><ele>1018.0</ele><time>2026-04-12T13:22:12.949Z</time></trkpt><trkpt lat="43.7796348" lon="11.5942274"><ele>1018.25</ele><time>2026-04-12T13:22:13.95Z</time></trkpt><trkpt lat="43.7796208" lon="11.5940501"><ele>1018.5</ele><time>2026-04-12T13:22:14.951Z</time></trkpt><trkpt lat="43.7796117" lon="11.5938923"><ele>1018.75</ele><time>2026-04-12T13:22:15.95Z</time></trkpt><trkpt lat="43.7796069" lon="11.5937432"><ele>1019.0</ele><time>2026-04-12T13:22:16.951Z</time></trkpt><trkpt lat="43.7796132" lon="11.5935873"><ele>1019.0</ele><time>2026-04-12T13:22:17.951Z</time></trkpt><trkpt lat="43.7796349" lon="11.5934204"><ele>1019.0</ele><time>2026-04-12T13:22:18.95Z</time></trkpt><trkpt lat="43.779647" lon="11.5932525"><ele>1019.0</ele><time>2026-04-12T13:22:19.951Z</time></trkpt><trkpt lat="43.7796465" lon="11.5930754"><ele>1019.0</ele><time>2026-04-12T13:22:20.951Z</time></trkpt><trkpt lat="43.7796385" lon="11.5929015"><ele>1018.75</ele><time>2026-04-12T13:22:21.951Z</time></trkpt><trkpt lat="43.7795696" lon="11.5927425"><ele>1018.5</ele><time>2026-04-12T13:22:22.95Z</time></trkpt><trkpt lat="43.7795036" lon="11.5926028"><ele>1018.25</ele><time>2026-04-12T13:22:23.95Z</time></trkpt><trkpt lat="43.7793949" lon="11.5925133"><ele>1018.0</ele><time>2026-04-12T13:22:24.951Z</time></trkpt><trkpt lat="43.7792848" lon="11.592437"><ele>1019.0</ele><time>2026-04-12T13:22:25.951Z</time></trkpt><trkpt lat="43.7791617" lon="11.5923744"><ele>1020.0</ele><time>2026-04-12T13:22:26.95Z</time></trkpt><trkpt lat="43.7790096" lon="11.5923838"><ele>1021.0</ele><time>2026-04-12T13:22:27.949Z</time></trkpt><trkpt lat="43.7788647" lon="11.5924213"><ele>1022.0</ele><time>2026-04-12T13:22:28.95Z</time></trkpt><trkpt lat="43.7787258" lon="11.5924892"><ele>1022.0</ele><time>2026-04-12T13:22:29.95Z</time></trkpt><trkpt lat="43.7785998" lon="11.5925553"><ele>1022.0</ele><time>2026-04-12T13:22:30.951Z</time></trkpt><trkpt lat="43.7784916" lon="11.5926132"><ele>1022.0</ele><time>2026-04-12T13:22:31.95Z</time></trkpt><trkpt lat="43.7783905" lon="11.5926437"><ele>1022.0</ele><time>2026-04-12T13:22:32.95Z</time></trkpt><trkpt lat="43.7783083" lon="11.5926258"><ele>1022.0</ele><time>2026-04-12T13:22:33.951Z</time></trkpt><trkpt lat="43.7782462" lon="11.5925689"><ele>1021.8</ele><time>2026-04-12T13:22:34.951Z</time></trkpt><trkpt lat="43.7782082" lon="11.5924828"><ele>1021.6</ele><time>2026-04-12T13:22:35.95Z</time></trkpt><trkpt lat="43.7781834" lon="11.5923845"><ele>1021.3999999999999</ele><time>2026-04-12T13:22:36.95Z</time></trkpt><trkpt lat="43.77818" lon="11.5922567"><ele>1021.1999999999999</ele><time>2026-04-12T13:22:37.95Z</time></trkpt><trkpt lat="43.7782119" lon="11.5921092"><ele>1021.0</ele><time>2026-04-12T13:22:38.951Z</time></trkpt><trkpt lat="43.7782517" lon="11.5919608"><ele>1021.0</ele><time>2026-04-12T13:22:39.949Z</time></trkpt><trkpt lat="43.7782865" lon="11.5918001"><ele>1021.0</ele><time>2026-04-12T13:22:40.95Z</time></trkpt><trkpt lat="43.7783132" lon="11.5916317"><ele>1021.0</ele><time>2026-04-12T13:22:41.95Z</time></trkpt><trkpt lat="43.7783226" lon="11.5914494"><ele>1021.0</ele><time>2026-04-12T13:22:42.95Z</time></trkpt><trkpt lat="43.7783177" lon="11.5912541"><ele>1021.0</ele><time>2026-04-12T13:22:43.95Z</time></trkpt><trkpt lat="43.7783025" lon="11.5910439"><ele>1021.0</ele><time>2026-04-12T13:22:44.95Z</time></trkpt><trkpt lat="43.7782704" lon="11.5908219"><ele>1021.0</ele><time>2026-04-12T13:22:45.95Z</time></trkpt><trkpt lat="43.7782488" lon="11.5906145"><ele>1021.0</ele><time>2026-04-12T13:22:46.951Z</time></trkpt><trkpt lat="43.7782382" lon="11.590428"><ele>1021.0</ele><time>2026-04-12T13:22:47.948Z</time></trkpt><trkpt lat="43.7782348" lon="11.5902453"><ele>1021.0</ele><time>2026-04-12T13:22:48.948Z</time></trkpt><trkpt lat="43.7782424" lon="11.590078"><ele>1021.0</ele><time>2026-04-12T13:22:49.95Z</time></trkpt><trkpt lat="43.7783153" lon="11.5899168"><ele>1021.5</ele><time>2026-04-12T13:22:50.95Z</time></trkpt><trkpt lat="43.7783913" lon="11.5897505"><ele>1022.0</ele><time>2026-04-12T13:22:51.951Z</time></trkpt><trkpt lat="43.7784798" lon="11.589601"><ele>1022.5</ele><time>2026-04-12T13:22:52.95Z</time></trkpt><trkpt lat="43.7786052" lon="11.5894662"><ele>1023.0</ele><time>2026-04-12T13:22:53.95Z</time></trkpt><trkpt lat="43.7787107" lon="11.5893087"><ele>1017.0</ele><time>2026-04-12T13:22:54.951Z</time></trkpt><trkpt lat="43.7788094" lon="11.5891306"><ele>1011.0</ele><time>2026-04-12T13:22:55.95Z</time></trkpt><trkpt lat="43.7788782" lon="11.588916"><ele>1005.0</ele><time>2026-04-12T13:22:56.95Z</time></trkpt><trkpt lat="43.7789312" lon="11.5886896"><ele>1006.6666666666667</ele><time>2026-04-12T13:22:57.95Z</time></trkpt><trkpt lat="43.7789599" lon="11.5884476"><ele>1008.3333333333334</ele><time>2026-04-12T13:22:58.951Z</time></trkpt><trkpt lat="43.7789621" lon="11.5882189"><ele>1010.0</ele><time>2026-04-12T13:22:59.95Z</time></trkpt><trkpt lat="43.7789564" lon="11.5880004"><ele>1011.0</ele><time>2026-04-12T13:23:00.949Z</time></trkpt><trkpt lat="43.7789553" lon="11.5877933"><ele>1012.0</ele><time>2026-04-12T13:23:01.951Z</time></trkpt><trkpt lat="43.7789513" lon="11.5875957"><ele>1013.0</ele><time>2026-04-12T13:23:02.951Z</time></trkpt><trkpt lat="43.7789673" lon="11.5874181"><ele>1014.0</ele><time>2026-04-12T13:23:03.95Z</time></trkpt><trkpt lat="43.7789939" lon="11.5872392"><ele>1014.0</ele><time>2026-04-12T13:23:04.95Z</time></trkpt><trkpt lat="43.7790349" lon="11.5870618"><ele>1014.0</ele><time>2026-04-12T13:23:05.95Z</time></trkpt><trkpt lat="43.779104" lon="11.5868904"><ele>1014.0</ele><time>2026-04-12T13:23:06.949Z</time></trkpt><trkpt lat="43.7791917" lon="11.5867285"><ele>1014.0</ele><time>2026-04-12T13:23:07.949Z</time></trkpt><trkpt lat="43.7793029" lon="11.5865798"><ele>1014.75</ele><time>2026-04-12T13:23:08.951Z</time></trkpt><trkpt lat="43.7794052" lon="11.5864399"><ele>1015.5</ele><time>2026-04-12T13:23:09.951Z</time></trkpt><trkpt lat="43.7794936" lon="11.5863192"><ele>1016.25</ele><time>2026-04-12T13:23:10.95Z</time></trkpt><trkpt lat="43.7795543" lon="11.5861912"><ele>1017.0</ele><time>2026-04-12T13:23:11.951Z</time></trkpt><trkpt lat="43.7795885" lon="11.5860507"><ele>1017.1666666666666</ele><time>2026-04-12T13:23:12.95Z</time></trkpt><trkpt lat="43.7795983" lon="11.5859105"><ele>1017.3333333333333</ele><time>2026-04-12T13:23:13.951Z</time></trkpt><trkpt lat="43.7796064" lon="11.5857918"><ele>1017.5</ele><time>2026-04-12T13:23:14.95Z</time></trkpt><trkpt lat="43.7796196" lon="11.5856805"><ele>1017.6666666666666</ele><time>2026-04-12T13:23:15.951Z</time></trkpt><trkpt lat="43.7796844" lon="11.585598"><ele>1017.8333333333333</ele><time>2026-04-12T13:23:16.95Z</time></trkpt><trkpt lat="43.7797439" lon="11.5855279"><ele>1018.0</ele><time>2026-04-12T13:23:17.949Z</time></trkpt><trkpt lat="43.7798283" lon="11.5854702"><ele>1018.0</ele><time>2026-04-12T13:23:18.95Z</time></trkpt><trkpt lat="43.7799222" lon="11.5854104"><ele>1018.0</ele><time>2026-04-12T13:23:19.949Z</time></trkpt><trkpt lat="43.7800293" lon="11.5853341"><ele>1018.0</ele><time>2026-04-12T13:23:20.949Z</time></trkpt><trkpt lat="43.7801292" lon="11.5852448"><ele>1018.0</ele><time>2026-04-12T13:23:21.95Z</time></trkpt><trkpt lat="43.7802223" lon="11.5851266"><ele>1015.5</ele><time>2026-04-12T13:23:22.95Z</time></trkpt><trkpt lat="43.7803151" lon="11.5849936"><ele>1013.0</ele><time>2026-04-12T13:23:23.951Z</time></trkpt><trkpt lat="43.7804095" lon="11.5848468"><ele>1010.5</ele><time>2026-04-12T13:23:24.95Z</time></trkpt><trkpt lat="43.7805104" lon="11.5847116"><ele>1008.0</ele><time>2026-04-12T13:23:25.951Z</time></trkpt><trkpt lat="43.7806011" lon="11.5845937"><ele>1004.75</ele><time>2026-04-12T13:23:26.951Z</time></trkpt><trkpt lat="43.7806975" lon="11.584488"><ele>1001.5</ele><time>2026-04-12T13:23:27.95Z</time></trkpt><trkpt lat="43.7807789" lon="11.584361"><ele>998.25</ele><time>2026-04-12T13:23:28.95Z</time></trkpt><trkpt lat="43.7808337" lon="11.584223"><ele>995.0</ele><time>2026-04-12T13:23:29.95Z</time></trkpt><trkpt lat="43.7808587" lon="11.5840756"><ele>995.0000000000001</ele><time>2026-04-12T13:23:30.949Z</time></trkpt><trkpt lat="43.780861" lon="11.5839338"><ele>995.0</ele><time>2026-04-12T13:23:31.951Z</time></trkpt><trkpt lat="43.7808705" lon="11.5838046"><ele>995.0</ele><time>2026-04-12T13:23:32.949Z</time></trkpt><trkpt lat="43.7809008" lon="11.5836868"><ele>995.0</ele><time>2026-04-12T13:23:33.951Z</time></trkpt><trkpt lat="43.7809402" lon="11.583595"><ele>995.0000000000001</ele><time>2026-04-12T13:23:34.951Z</time></trkpt><trkpt lat="43.7809955" lon="11.5835255"><ele>995.0</ele><time>2026-04-12T13:23:35.951Z</time></trkpt><trkpt lat="43.7811034" lon="11.5835114"><ele>996.0</ele><time>2026-04-12T13:23:36.95Z</time></trkpt><trkpt lat="43.7811858" lon="11.5834425"><ele>997.0</ele><time>2026-04-12T13:23:37.951Z</time></trkpt><trkpt lat="43.7812458" lon="11.5833551"><ele>998.0</ele><time>2026-04-12T13:23:38.95Z</time></trkpt><trkpt lat="43.7812783" lon="11.5832381"><ele>999.0</ele><time>2026-04-12T13:23:39.951Z</time></trkpt><trkpt lat="43.7812891" lon="11.5831008"><ele>1000.0</ele><time>2026-04-12T13:23:40.951Z</time></trkpt><trkpt lat="43.7812975" lon="11.5829456"><ele>997.25</ele><time>2026-04-12T13:23:41.949Z</time></trkpt><trkpt lat="43.7813134" lon="11.5827829"><ele>994.5</ele><time>2026-04-12T13:23:42.95Z</time></trkpt><trkpt lat="43.7813256" lon="11.582618"><ele>991.75</ele><time>2026-04-12T13:23:43.95Z</time></trkpt><trkpt lat="43.7813398" lon="11.5824636"><ele>989.0</ele><time>2026-04-12T13:23:44.949Z</time></trkpt><trkpt lat="43.7813532" lon="11.5823209"><ele>989.0</ele><time>2026-04-12T13:23:45.95Z</time></trkpt><trkpt lat="43.7813895" lon="11.5821874"><ele>989.0000000000001</ele><time>2026-04-12T13:23:46.949Z</time></trkpt><trkpt lat="43.7814515" lon="11.5820825"><ele>989.0000000000001</ele><time>2026-04-12T13:23:47.95Z</time></trkpt><trkpt lat="43.7815388" lon="11.582003"><ele>989.0</ele><time>2026-04-12T13:23:48.95Z</time></trkpt><trkpt lat="43.7816443" lon="11.5819523"><ele>989.0</ele><time>2026-04-12T13:23:49.95Z</time></trkpt><trkpt lat="43.7817613" lon="11.5819116"><ele>986.5</ele><time>2026-04-12T13:23:50.95Z</time></trkpt><trkpt lat="43.7818917" lon="11.5818391"><ele>984.0</ele><time>2026-04-12T13:23:51.951Z</time></trkpt><trkpt lat="43.7820249" lon="11.5817612"><ele>981.5</ele><time>2026-04-12T13:23:52.949Z</time></trkpt><trkpt lat="43.7821515" lon="11.581672"><ele>979.0</ele><time>2026-04-12T13:23:53.951Z</time></trkpt><trkpt lat="43.7822679" lon="11.58157"><ele>979.0</ele><time>2026-04-12T13:23:54.95Z</time></trkpt><trkpt lat="43.782363" lon="11.5814538"><ele>979.0</ele><time>2026-04-12T13:23:55.949Z</time></trkpt><trkpt lat="43.7824513" lon="11.5813101"><ele>979.0</ele><time>2026-04-12T13:23:56.951Z</time></trkpt><trkpt lat="43.782541" lon="11.5811478"><ele>979.0</ele><time>2026-04-12T13:23:57.948Z</time></trkpt><trkpt lat="43.7826385" lon="11.5809731"><ele>977.75</ele><time>2026-04-12T13:23:58.951Z</time></trkpt><trkpt lat="43.7827403" lon="11.5807993"><ele>976.5</ele><time>2026-04-12T13:23:59.951Z</time></trkpt><trkpt lat="43.7828106" lon="11.5806349"><ele>975.25</ele><time>2026-04-12T13:24:00.951Z</time></trkpt><trkpt lat="43.782861" lon="11.5804705"><ele>974.0</ele><time>2026-04-12T13:24:01.95Z</time></trkpt><trkpt lat="43.7829044" lon="11.5803132"><ele>970.25</ele><time>2026-04-12T13:24:02.951Z</time></trkpt><trkpt lat="43.782975" lon="11.5801613"><ele>966.5</ele><time>2026-04-12T13:24:03.951Z</time></trkpt><trkpt lat="43.7830688" lon="11.5800239"><ele>962.75</ele><time>2026-04-12T13:24:04.95Z</time></trkpt><trkpt lat="43.7831947" lon="11.57991"><ele>959.0</ele><time>2026-04-12T13:24:05.951Z</time></trkpt><trkpt lat="43.7833365" lon="11.5797962"><ele>959.0</ele><time>2026-04-12T13:24:06.95Z</time></trkpt><trkpt lat="43.7834893" lon="11.5797098"><ele>959.0</ele><time>2026-04-12T13:24:07.951Z</time></trkpt><trkpt lat="43.7836107" lon="11.5796294"><ele>959.0</ele><time>2026-04-12T13:24:08.951Z</time></trkpt><trkpt lat="43.7837152" lon="11.5795602"><ele>959.0</ele><time>2026-04-12T13:24:09.949Z</time></trkpt><trkpt lat="43.7838018" lon="11.5794783"><ele>957.2</ele><time>2026-04-12T13:24:10.951Z</time></trkpt><trkpt lat="43.7838678" lon="11.5793769"><ele>955.4000000000001</ele><time>2026-04-12T13:24:11.951Z</time></trkpt><trkpt lat="43.7839079" lon="11.5792382"><ele>953.6</ele><time>2026-04-12T13:24:12.951Z</time></trkpt><trkpt lat="43.7839539" lon="11.5790935"><ele>951.8</ele><time>2026-04-12T13:24:13.951Z</time></trkpt><trkpt lat="43.7840226" lon="11.5789472"><ele>950.0</ele><time>2026-04-12T13:24:14.95Z</time></trkpt><trkpt lat="43.7841175" lon="11.5788062"><ele>950.0</ele><time>2026-04-12T13:24:15.95Z</time></trkpt><trkpt lat="43.7842361" lon="11.578689"><ele>950.0</ele><time>2026-04-12T13:24:16.949Z</time></trkpt><trkpt lat="43.7843773" lon="11.5785978"><ele>950.0</ele><time>2026-04-12T13:24:17.949Z</time></trkpt><trkpt lat="43.7845257" lon="11.5785393"><ele>947.75</ele><time>2026-04-12T13:24:18.951Z</time></trkpt><trkpt lat="43.7846743" lon="11.5784862"><ele>945.5</ele><time>2026-04-12T13:24:19.949Z</time></trkpt><trkpt lat="43.7848035" lon="11.5784129"><ele>943.25</ele><time>2026-04-12T13:24:20.95Z</time></trkpt><trkpt lat="43.7849079" lon="11.5783239"><ele>941.0</ele><time>2026-04-12T13:24:21.951Z</time></trkpt><trkpt lat="43.7849969" lon="11.5782007"><ele>941.0</ele><time>2026-04-12T13:24:22.95Z</time></trkpt><trkpt lat="43.7850588" lon="11.5780403"><ele>941.0</ele><time>2026-04-12T13:24:23.951Z</time></trkpt><trkpt lat="43.7850983" lon="11.5778524"><ele>941.0</ele><time>2026-04-12T13:24:24.951Z</time></trkpt><trkpt lat="43.7851407" lon="11.5776496"><ele>941.0</ele><time>2026-04-12T13:24:25.949Z</time></trkpt><trkpt lat="43.7851759" lon="11.5774352"><ele>939.0</ele><time>2026-04-12T13:24:26.949Z</time></trkpt><trkpt lat="43.7852481" lon="11.5772069"><ele>937.0</ele><time>2026-04-12T13:24:27.951Z</time></trkpt><trkpt lat="43.7853136" lon="11.5769706"><ele>935.0</ele><time>2026-04-12T13:24:28.951Z</time></trkpt><trkpt lat="43.7853683" lon="11.5767318"><ele>932.0</ele><time>2026-04-12T13:24:29.95Z</time></trkpt><trkpt lat="43.7854125" lon="11.5764969"><ele>929.0</ele><time>2026-04-12T13:24:30.951Z</time></trkpt><trkpt lat="43.7854356" lon="11.5762615"><ele>926.0</ele><time>2026-04-12T13:24:31.95Z</time></trkpt><trkpt lat="43.7854445" lon="11.5760443"><ele>923.3333333333334</ele><time>2026-04-12T13:24:32.949Z</time></trkpt><trkpt lat="43.7854759" lon="11.5758524"><ele>920.6666666666667</ele><time>2026-04-12T13:24:33.951Z</time></trkpt><trkpt lat="43.7855314" lon="11.575657"><ele>918.0</ele><time>2026-04-12T13:24:34.951Z</time></trkpt><trkpt lat="43.7856087" lon="11.5754621"><ele>913.6666666666667</ele><time>2026-04-12T13:24:35.951Z</time></trkpt><trkpt lat="43.7856926" lon="11.5752733"><ele>909.3333333333334</ele><time>2026-04-12T13:24:36.95Z</time></trkpt><trkpt lat="43.7858003" lon="11.5750978"><ele>905.0</ele><time>2026-04-12T13:24:37.951Z</time></trkpt><trkpt lat="43.7859253" lon="11.5749494"><ele>903.6666666666667</ele><time>2026-04-12T13:24:38.95Z</time></trkpt><trkpt lat="43.7860652" lon="11.5747996"><ele>902.3333333333333</ele><time>2026-04-12T13:24:39.95Z</time></trkpt><trkpt lat="43.7861896" lon="11.5746384"><ele>901.0</ele><time>2026-04-12T13:24:40.949Z</time></trkpt><trkpt lat="43.7863075" lon="11.5744342"><ele>901.0</ele><time>2026-04-12T13:24:41.95Z</time></trkpt><trkpt lat="43.7864199" lon="11.5741979"><ele>901.0</ele><time>2026-04-12T13:24:42.951Z</time></trkpt><trkpt lat="43.7865313" lon="11.5739613"><ele>901.0</ele><time>2026-04-12T13:24:43.95Z</time></trkpt><trkpt lat="43.7866499" lon="11.5737466"><ele>899.0</ele><time>2026-04-12T13:24:44.95Z</time></trkpt><trkpt lat="43.7867682" lon="11.573555"><ele>897.0</ele><time>2026-04-12T13:24:45.949Z</time></trkpt><trkpt lat="43.7868846" lon="11.5733893"><ele>895.0</ele><time>2026-04-12T13:24:46.95Z</time></trkpt><trkpt lat="43.7869883" lon="11.5732388"><ele>895.0</ele><time>2026-04-12T13:24:47.95Z</time></trkpt><trkpt lat="43.7870779" lon="11.5730868"><ele>895.0</ele><time>2026-04-12T13:24:48.949Z</time></trkpt><trkpt lat="43.7871446" lon="11.5729089"><ele>895.0</ele><time>2026-04-12T13:24:49.949Z</time></trkpt><trkpt lat="43.7871863" lon="11.5727019"><ele>895.0</ele><time>2026-04-12T13:24:50.949Z</time></trkpt><trkpt lat="43.7872247" lon="11.5724666"><ele>893.0</ele><time>2026-04-12T13:24:51.95Z</time></trkpt><trkpt lat="43.7872627" lon="11.5722215"><ele>891.0</ele><time>2026-04-12T13:24:52.95Z</time></trkpt><trkpt lat="43.7873053" lon="11.5719649"><ele>889.0</ele><time>2026-04-12T13:24:53.95Z</time></trkpt><trkpt lat="43.7873494" lon="11.5717072"><ele>887.0</ele><time>2026-04-12T13:24:54.95Z</time></trkpt><trkpt lat="43.7874024" lon="11.5714566"><ele>885.0</ele><time>2026-04-12T13:24:55.95Z</time></trkpt><trkpt lat="43.7874591" lon="11.5712245"><ele>883.0</ele><time>2026-04-12T13:24:56.951Z</time></trkpt><trkpt lat="43.7875262" lon="11.5710046"><ele>879.3333333333333</ele><time>2026-04-12T13:24:57.95Z</time></trkpt><trkpt lat="43.7876013" lon="11.5707983"><ele>875.6666666666667</ele><time>2026-04-12T13:24:58.95Z</time></trkpt><trkpt lat="43.7876958" lon="11.570614"><ele>872.0</ele><time>2026-04-12T13:24:59.95Z</time></trkpt><trkpt lat="43.7878056" lon="11.5704525"><ele>877.3333333333334</ele><time>2026-04-12T13:25:00.95Z</time></trkpt><trkpt lat="43.7879078" lon="11.5703015"><ele>882.6666666666667</ele><time>2026-04-12T13:25:01.949Z</time></trkpt><trkpt lat="43.7879794" lon="11.5701234"><ele>888.0</ele><time>2026-04-12T13:25:02.949Z</time></trkpt><trkpt lat="43.7880364" lon="11.5699261"><ele>888.0</ele><time>2026-04-12T13:25:03.95Z</time></trkpt><trkpt lat="43.7880759" lon="11.5697119"><ele>888.0</ele><time>2026-04-12T13:25:04.949Z</time></trkpt><trkpt lat="43.788117" lon="11.5694984"><ele>888.0</ele><time>2026-04-12T13:25:05.949Z</time></trkpt><trkpt lat="43.7881509" lon="11.5692944"><ele>885.25</ele><time>2026-04-12T13:25:06.95Z</time></trkpt><trkpt lat="43.7881838" lon="11.5691022"><ele>882.5</ele><time>2026-04-12T13:25:07.949Z</time></trkpt><trkpt lat="43.7882115" lon="11.5689096"><ele>879.75</ele><time>2026-04-12T13:25:08.951Z</time></trkpt><trkpt lat="43.7882293" lon="11.5687298"><ele>877.0</ele><time>2026-04-12T13:25:09.951Z</time></trkpt><trkpt lat="43.788237" lon="11.5685623"><ele>875.0</ele><time>2026-04-12T13:25:10.948Z</time></trkpt><trkpt lat="43.7882428" lon="11.5684031"><ele>873.0</ele><time>2026-04-12T13:25:11.951Z</time></trkpt><trkpt lat="43.7882335" lon="11.5682488"><ele>871.0</ele><time>2026-04-12T13:25:12.951Z</time></trkpt><trkpt lat="43.7882313" lon="11.5680982"><ele>869.0</ele><time>2026-04-12T13:25:13.95Z</time></trkpt><trkpt lat="43.7882413" lon="11.567954"><ele>867.0</ele><time>2026-04-12T13:25:14.949Z</time></trkpt><trkpt lat="43.7882973" lon="11.567816"><ele>870.0</ele><time>2026-04-12T13:25:15.949Z</time></trkpt><trkpt lat="43.7883782" lon="11.5676872"><ele>873.0</ele><time>2026-04-12T13:25:16.95Z</time></trkpt><trkpt lat="43.7884694" lon="11.5675543"><ele>876.0</ele><time>2026-04-12T13:25:17.951Z</time></trkpt><trkpt lat="43.7885591" lon="11.5674182"><ele>879.0</ele><time>2026-04-12T13:25:18.951Z</time></trkpt><trkpt lat="43.7886537" lon="11.56728"><ele>879.0</ele><time>2026-04-12T13:25:19.95Z</time></trkpt><trkpt lat="43.7887422" lon="11.5671324"><ele>879.0</ele><time>2026-04-12T13:25:20.949Z</time></trkpt><trkpt lat="43.788827" lon="11.5669699"><ele>879.0</ele><time>2026-04-12T13:25:21.95Z</time></trkpt><trkpt lat="43.7888926" lon="11.5667925"><ele>879.0</ele><time>2026-04-12T13:25:22.95Z</time></trkpt><trkpt lat="43.7889457" lon="11.566627"><ele>874.5</ele><time>2026-04-12T13:25:23.951Z</time></trkpt><trkpt lat="43.7890033" lon="11.5664733"><ele>870.0</ele><time>2026-04-12T13:25:24.949Z</time></trkpt><trkpt lat="43.7890639" lon="11.5663175"><ele>865.5</ele><time>2026-04-12T13:25:25.951Z</time></trkpt><trkpt lat="43.7891513" lon="11.566165"><ele>861.0</ele><time>2026-04-12T13:25:26.951Z</time></trkpt><trkpt lat="43.7892596" lon="11.565998"><ele>862.0</ele><time>2026-04-12T13:25:27.949Z</time></trkpt><trkpt lat="43.7894023" lon="11.565831"><ele>863.0</ele><time>2026-04-12T13:25:28.95Z</time></trkpt><trkpt lat="43.7895355" lon="11.5656704"><ele>864.0</ele><time>2026-04-12T13:25:29.951Z</time></trkpt><trkpt lat="43.7896626" lon="11.5655293"><ele>864.0</ele><time>2026-04-12T13:25:30.951Z</time></trkpt><trkpt lat="43.7897726" lon="11.5654049"><ele>864.0</ele><time>2026-04-12T13:25:31.95Z</time></trkpt><trkpt lat="43.7898463" lon="11.5652601"><ele>864.0</ele><time>2026-04-12T13:25:32.95Z</time></trkpt><trkpt lat="43.7899054" lon="11.5650744"><ele>864.0</ele><time>2026-04-12T13:25:33.95Z</time></trkpt><trkpt lat="43.7899485" lon="11.5648785"><ele>859.0</ele><time>2026-04-12T13:25:34.951Z</time></trkpt><trkpt lat="43.7899851" lon="11.5646847"><ele>854.0</ele><time>2026-04-12T13:25:35.95Z</time></trkpt><trkpt lat="43.7900211" lon="11.5644978"><ele>849.0</ele><time>2026-04-12T13:25:36.951Z</time></trkpt><trkpt lat="43.7900554" lon="11.5643209"><ele>844.0</ele><time>2026-04-12T13:25:37.95Z</time></trkpt><trkpt lat="43.7900913" lon="11.5641446"><ele>844.5</ele><time>2026-04-12T13:25:38.951Z</time></trkpt><trkpt lat="43.7901257" lon="11.563964"><ele>845.0</ele><time>2026-04-12T13:25:39.949Z</time></trkpt><trkpt lat="43.790157" lon="11.5637832"><ele>845.5</ele><time>2026-04-12T13:25:40.951Z</time></trkpt><trkpt lat="43.7901828" lon="11.5636035"><ele>846.0</ele><time>2026-04-12T13:25:41.95Z</time></trkpt><trkpt lat="43.7901946" lon="11.5634223"><ele>846.0</ele><time>2026-04-12T13:25:42.95Z</time></trkpt><trkpt lat="43.7901962" lon="11.5632421"><ele>846.0</ele><time>2026-04-12T13:25:43.951Z</time></trkpt><trkpt lat="43.7901915" lon="11.5630596"><ele>846.0</ele><time>2026-04-12T13:25:44.951Z</time></trkpt><trkpt lat="43.7901784" lon="11.5628727"><ele>846.0</ele><time>2026-04-12T13:25:45.95Z</time></trkpt><trkpt lat="43.7901606" lon="11.562679"><ele>843.0</ele><time>2026-04-12T13:25:46.948Z</time></trkpt><trkpt lat="43.7901351" lon="11.5624771"><ele>840.0</ele><time>2026-04-12T13:25:47.95Z</time></trkpt><trkpt lat="43.7901033" lon="11.5622756"><ele>837.0</ele><time>2026-04-12T13:25:48.949Z</time></trkpt><trkpt lat="43.7900748" lon="11.5620778"><ele>834.0</ele><time>2026-04-12T13:25:49.951Z</time></trkpt><trkpt lat="43.7900528" lon="11.5618812"><ele>834.0</ele><time>2026-04-12T13:25:50.951Z</time></trkpt><trkpt lat="43.790054" lon="11.5616871"><ele>834.0</ele><time>2026-04-12T13:25:51.951Z</time></trkpt><trkpt lat="43.7900713" lon="11.5614932"><ele>834.0</ele><time>2026-04-12T13:25:52.951Z</time></trkpt><trkpt lat="43.790102" lon="11.5612973"><ele>834.0</ele><time>2026-04-12T13:25:53.95Z</time></trkpt><trkpt lat="43.7901539" lon="11.5611047"><ele>838.0</ele><time>2026-04-12T13:25:54.951Z</time></trkpt><trkpt lat="43.7902132" lon="11.5609234"><ele>842.0</ele><time>2026-04-12T13:25:55.95Z</time></trkpt><trkpt lat="43.7902777" lon="11.560763"><ele>846.0</ele><time>2026-04-12T13:25:56.948Z</time></trkpt><trkpt lat="43.7903418" lon="11.5606094"><ele>850.0</ele><time>2026-04-12T13:25:57.95Z</time></trkpt><trkpt lat="43.7903974" lon="11.5604457"><ele>847.0</ele><time>2026-04-12T13:25:58.95Z</time></trkpt><trkpt lat="43.7904414" lon="11.5602715"><ele>844.0</ele><time>2026-04-12T13:25:59.95Z</time></trkpt><trkpt lat="43.7904748" lon="11.5600881"><ele>841.0</ele><time>2026-04-12T13:26:00.951Z</time></trkpt><trkpt lat="43.7905039" lon="11.5599038"><ele>838.0</ele><time>2026-04-12T13:26:01.951Z</time></trkpt><trkpt lat="43.7905296" lon="11.5597192"><ele>836.75</ele><time>2026-04-12T13:26:02.949Z</time></trkpt><trkpt lat="43.7905645" lon="11.5595283"><ele>835.5</ele><time>2026-04-12T13:26:03.95Z</time></trkpt><trkpt lat="43.7906085" lon="11.5593366"><ele>834.25</ele><time>2026-04-12T13:26:04.949Z</time></trkpt><trkpt lat="43.7906633" lon="11.559146"><ele>833.0</ele><time>2026-04-12T13:26:05.95Z</time></trkpt><trkpt lat="43.7907346" lon="11.5589725"><ele>833.0</ele><time>2026-04-12T13:26:06.95Z</time></trkpt><trkpt lat="43.7908236" lon="11.5588284"><ele>833.0</ele><time>2026-04-12T13:26:07.948Z</time></trkpt><trkpt lat="43.7909228" lon="11.5586904"><ele>833.0</ele><time>2026-04-12T13:26:08.95Z</time></trkpt><trkpt lat="43.7910248" lon="11.5585507"><ele>833.0</ele><time>2026-04-12T13:26:09.949Z</time></trkpt><trkpt lat="43.7911413" lon="11.5584305"><ele>830.75</ele><time>2026-04-12T13:26:10.951Z</time></trkpt><trkpt lat="43.7912662" lon="11.558324"><ele>828.5</ele><time>2026-04-12T13:26:11.951Z</time></trkpt><trkpt lat="43.7913896" lon="11.5582267"><ele>826.25</ele><time>2026-04-12T13:26:12.95Z</time></trkpt><trkpt lat="43.7914975" lon="11.5581331"><ele>824.0</ele><time>2026-04-12T13:26:13.951Z</time></trkpt><trkpt lat="43.7915951" lon="11.558045"><ele>824.0</ele><time>2026-04-12T13:26:14.949Z</time></trkpt><trkpt lat="43.7916706" lon="11.5579443"><ele>824.0</ele><time>2026-04-12T13:26:15.949Z</time></trkpt><trkpt lat="43.7917218" lon="11.5578343"><ele>824.0</ele><time>2026-04-12T13:26:16.95Z</time></trkpt><trkpt lat="43.7917476" lon="11.5577017"><ele>824.0</ele><time>2026-04-12T13:26:17.951Z</time></trkpt><trkpt lat="43.7917471" lon="11.557558"><ele>824.0</ele><time>2026-04-12T13:26:18.95Z</time></trkpt><trkpt lat="43.7917269" lon="11.557418"><ele>825.8000000000001</ele><time>2026-04-12T13:26:19.949Z</time></trkpt><trkpt lat="43.7917247" lon="11.5572884"><ele>827.6</ele><time>2026-04-12T13:26:20.951Z</time></trkpt><trkpt lat="43.7917443" lon="11.5571727"><ele>829.4</ele><time>2026-04-12T13:26:21.949Z</time></trkpt><trkpt lat="43.791814" lon="11.5570663"><ele>831.2</ele><time>2026-04-12T13:26:22.95Z</time></trkpt><trkpt lat="43.7918994" lon="11.556984"><ele>833.0</ele><time>2026-04-12T13:26:23.949Z</time></trkpt><trkpt lat="43.7919924" lon="11.5569161"><ele>828.0000000000001</ele><time>2026-04-12T13:26:24.951Z</time></trkpt><trkpt lat="43.7920775" lon="11.5568546"><ele>823.0</ele><time>2026-04-12T13:26:25.951Z</time></trkpt><trkpt lat="43.7921429" lon="11.5567805"><ele>818.0</ele><time>2026-04-12T13:26:26.95Z</time></trkpt><trkpt lat="43.7921702" lon="11.5566855"><ele>813.0</ele><time>2026-04-12T13:26:27.949Z</time></trkpt><trkpt lat="43.7921973" lon="11.5565754"><ele>808.0000000000001</ele><time>2026-04-12T13:26:28.951Z</time></trkpt><trkpt lat="43.7921965" lon="11.5564522"><ele>803.0</ele><time>2026-04-12T13:26:29.95Z</time></trkpt><trkpt lat="43.7921757" lon="11.5563211"><ele>802.4</ele><time>2026-04-12T13:26:30.95Z</time></trkpt><trkpt lat="43.7921267" lon="11.5561948"><ele>801.8</ele><time>2026-04-12T13:26:31.951Z</time></trkpt><trkpt lat="43.792057" lon="11.5560831"><ele>801.2</ele><time>2026-04-12T13:26:32.95Z</time></trkpt><trkpt lat="43.7919798" lon="11.555982"><ele>800.6</ele><time>2026-04-12T13:26:33.95Z</time></trkpt><trkpt lat="43.7918944" lon="11.5558807"><ele>800.0</ele><time>2026-04-12T13:26:34.95Z</time></trkpt><trkpt lat="43.7918285" lon="11.5557732"><ele>804.4</ele><time>2026-04-12T13:26:35.949Z</time></trkpt><trkpt lat="43.7917719" lon="11.5556704"><ele>808.8</ele><time>2026-04-12T13:26:36.951Z</time></trkpt><trkpt lat="43.7917238" lon="11.5555633"><ele>813.2</ele><time>2026-04-12T13:26:37.951Z</time></trkpt><trkpt lat="43.7916961" lon="11.5554468"><ele>817.6</ele><time>2026-04-12T13:26:38.95Z</time></trkpt><trkpt lat="43.7916907" lon="11.5553153"><ele>822.0</ele><time>2026-04-12T13:26:39.95Z</time></trkpt><trkpt lat="43.7917059" lon="11.5551798"><ele>822.0</ele><time>2026-04-12T13:26:40.951Z</time></trkpt><trkpt lat="43.7917447" lon="11.5550493"><ele>822.0</ele><time>2026-04-12T13:26:41.949Z</time></trkpt><trkpt lat="43.7918075" lon="11.5549308"><ele>822.0</ele><time>2026-04-12T13:26:42.95Z</time></trkpt><trkpt lat="43.7918949" lon="11.5548374"><ele>822.0</ele><time>2026-04-12T13:26:43.951Z</time></trkpt><trkpt lat="43.7920056" lon="11.5547291"><ele>818.75</ele><time>2026-04-12T13:26:44.95Z</time></trkpt><trkpt lat="43.7921112" lon="11.5546262"><ele>815.5</ele><time>2026-04-12T13:26:45.951Z</time></trkpt><trkpt lat="43.7921974" lon="11.5545161"><ele>812.25</ele><time>2026-04-12T13:26:46.951Z</time></trkpt><trkpt lat="43.7922713" lon="11.5544021"><ele>809.0</ele><time>2026-04-12T13:26:47.95Z</time></trkpt><trkpt lat="43.7923397" lon="11.5542908"><ele>809.0</ele><time>2026-04-12T13:26:48.949Z</time></trkpt><trkpt lat="43.7924179" lon="11.5541553"><ele>809.0</ele><time>2026-04-12T13:26:49.95Z</time></trkpt><trkpt lat="43.7924943" lon="11.5540077"><ele>809.0</ele><time>2026-04-12T13:26:50.95Z</time></trkpt><trkpt lat="43.7925807" lon="11.553847"><ele>809.0</ele><time>2026-04-12T13:26:51.95Z</time></trkpt><trkpt lat="43.7926749" lon="11.5536812"><ele>807.25</ele><time>2026-04-12T13:26:52.95Z</time></trkpt><trkpt lat="43.7927699" lon="11.5535192"><ele>805.5</ele><time>2026-04-12T13:26:53.951Z</time></trkpt><trkpt lat="43.7928686" lon="11.5533808"><ele>803.75</ele><time>2026-04-12T13:26:54.949Z</time></trkpt><trkpt lat="43.7929677" lon="11.5532658"><ele>802.0</ele><time>2026-04-12T13:26:55.949Z</time></trkpt><trkpt lat="43.7930521" lon="11.5531548"><ele>802.0</ele><time>2026-04-12T13:26:56.95Z</time></trkpt><trkpt lat="43.7931149" lon="11.5530241"><ele>802.0</ele><time>2026-04-12T13:26:57.951Z</time></trkpt><trkpt lat="43.7931496" lon="11.5528681"><ele>802.0</ele><time>2026-04-12T13:26:58.949Z</time></trkpt><trkpt lat="43.7931484" lon="11.5526906"><ele>802.0</ele><time>2026-04-12T13:26:59.949Z</time></trkpt><trkpt lat="43.7931305" lon="11.5525041"><ele>801.5</ele><time>2026-04-12T13:27:00.951Z</time></trkpt><trkpt lat="43.793112" lon="11.5523228"><ele>801.0</ele><time>2026-04-12T13:27:01.95Z</time></trkpt><trkpt lat="43.7930914" lon="11.5521475"><ele>800.5</ele><time>2026-04-12T13:27:02.951Z</time></trkpt><trkpt lat="43.7930711" lon="11.5519813"><ele>800.0</ele><time>2026-04-12T13:27:03.949Z</time></trkpt><trkpt lat="43.7930545" lon="11.5517988"><ele>797.75</ele><time>2026-04-12T13:27:04.95Z</time></trkpt><trkpt lat="43.7930357" lon="11.551606"><ele>795.5</ele><time>2026-04-12T13:27:05.949Z</time></trkpt><trkpt lat="43.7930164" lon="11.5513964"><ele>793.25</ele><time>2026-04-12T13:27:06.951Z</time></trkpt><trkpt lat="43.7930023" lon="11.5512034"><ele>791.0</ele><time>2026-04-12T13:27:07.951Z</time></trkpt><trkpt lat="43.7929841" lon="11.551012"><ele>790.0</ele><time>2026-04-12T13:27:08.949Z</time></trkpt><trkpt lat="43.7929673" lon="11.5508228"><ele>789.0</ele><time>2026-04-12T13:27:09.949Z</time></trkpt><trkpt lat="43.7929523" lon="11.5506203"><ele>788.0</ele><time>2026-04-12T13:27:10.951Z</time></trkpt><trkpt lat="43.7929466" lon="11.5503961"><ele>787.0</ele><time>2026-04-12T13:27:11.95Z</time></trkpt><trkpt lat="43.7929539" lon="11.5501461"><ele>784.6666666666666</ele><time>2026-04-12T13:27:12.951Z</time></trkpt><trkpt lat="43.7929689" lon="11.5498948"><ele>782.3333333333333</ele><time>2026-04-12T13:27:13.95Z</time></trkpt><trkpt lat="43.7929773" lon="11.5496563"><ele>780.0</ele><time>2026-04-12T13:27:14.949Z</time></trkpt><trkpt lat="43.7929877" lon="11.5494164"><ele>779.0</ele><time>2026-04-12T13:27:15.95Z</time></trkpt><trkpt lat="43.7929951" lon="11.5491767"><ele>778.0</ele><time>2026-04-12T13:27:16.95Z</time></trkpt><trkpt lat="43.7930034" lon="11.5489484"><ele>777.0</ele><time>2026-04-12T13:27:17.95Z</time></trkpt><trkpt lat="43.793014" lon="11.5487267"><ele>777.0</ele><time>2026-04-12T13:27:18.949Z</time></trkpt><trkpt lat="43.7930257" lon="11.548513"><ele>777.0</ele><time>2026-04-12T13:27:19.95Z</time></trkpt><trkpt lat="43.7930424" lon="11.5483147"><ele>777.0</ele><time>2026-04-12T13:27:20.95Z</time></trkpt><trkpt lat="43.7930633" lon="11.5481334"><ele>777.0</ele><time>2026-04-12T13:27:21.95Z</time></trkpt><trkpt lat="43.7931045" lon="11.5479585"><ele>777.75</ele><time>2026-04-12T13:27:22.949Z</time></trkpt><trkpt lat="43.7931738" lon="11.5477884"><ele>778.5</ele><time>2026-04-12T13:27:23.95Z</time></trkpt><trkpt lat="43.7932638" lon="11.5476608"><ele>779.25</ele><time>2026-04-12T13:27:24.949Z</time></trkpt><trkpt lat="43.7933752" lon="11.5475618"><ele>780.0</ele><time>2026-04-12T13:27:25.95Z</time></trkpt><trkpt lat="43.7935092" lon="11.5474913"><ele>780.0</ele><time>2026-04-12T13:27:26.95Z</time></trkpt><trkpt lat="43.7936759" lon="11.5474506"><ele>780.0</ele><time>2026-04-12T13:27:27.951Z</time></trkpt><trkpt lat="43.7938403" lon="11.5474271"><ele>780.0</ele><time>2026-04-12T13:27:28.949Z</time></trkpt><trkpt lat="43.7939861" lon="11.5474216"><ele>780.0</ele><time>2026-04-12T13:27:29.949Z</time></trkpt><trkpt lat="43.7941142" lon="11.547426"><ele>780.0</ele><time>2026-04-12T13:27:30.951Z</time></trkpt><trkpt lat="43.7942308" lon="11.5474278"><ele>780.0</ele><time>2026-04-12T13:27:31.95Z</time></trkpt><trkpt lat="43.7943495" lon="11.5474193"><ele>780.0</ele><time>2026-04-12T13:27:32.95Z</time></trkpt><trkpt lat="43.7944667" lon="11.5473893"><ele>777.0</ele><time>2026-04-12T13:27:33.948Z</time></trkpt><trkpt lat="43.7945709" lon="11.5473221"><ele>774.0</ele><time>2026-04-12T13:27:34.95Z</time></trkpt><trkpt lat="43.7946491" lon="11.5472214"><ele>771.0</ele><time>2026-04-12T13:27:35.95Z</time></trkpt><trkpt lat="43.7947071" lon="11.5470879"><ele>768.0</ele><time>2026-04-12T13:27:36.95Z</time></trkpt><trkpt lat="43.794726" lon="11.5469255"><ele>768.0</ele><time>2026-04-12T13:27:37.95Z</time></trkpt><trkpt lat="43.7947179" lon="11.5467539"><ele>768.0</ele><time>2026-04-12T13:27:38.949Z</time></trkpt><trkpt lat="43.794702" lon="11.5465823"><ele>768.0</ele><time>2026-04-12T13:27:39.951Z</time></trkpt><trkpt lat="43.7947015" lon="11.5464252"><ele>768.0</ele><time>2026-04-12T13:27:40.95Z</time></trkpt><trkpt lat="43.7947063" lon="11.5462654"><ele>767.5</ele><time>2026-04-12T13:27:41.95Z</time></trkpt><trkpt lat="43.7947174" lon="11.5460999"><ele>767.0</ele><time>2026-04-12T13:27:42.95Z</time></trkpt><trkpt lat="43.7947452" lon="11.5459245"><ele>766.5</ele><time>2026-04-12T13:27:43.948Z</time></trkpt><trkpt lat="43.7947875" lon="11.545732"><ele>766.0</ele><time>2026-04-12T13:27:44.951Z</time></trkpt><trkpt lat="43.7948268" lon="11.545548"><ele>767.0</ele><time>2026-04-12T13:27:45.951Z</time></trkpt><trkpt lat="43.7948898" lon="11.5453744"><ele>768.0</ele><time>2026-04-12T13:27:46.95Z</time></trkpt><trkpt lat="43.7949418" lon="11.5451972"><ele>769.0</ele><time>2026-04-12T13:27:47.95Z</time></trkpt><trkpt lat="43.7949977" lon="11.5450213"><ele>770.0</ele><time>2026-04-12T13:27:48.95Z</time></trkpt><trkpt lat="43.7950536" lon="11.5448413"><ele>770.0</ele><time>2026-04-12T13:27:49.951Z</time></trkpt><trkpt lat="43.7950908" lon="11.5446512"><ele>770.0</ele><time>2026-04-12T13:27:50.951Z</time></trkpt><trkpt lat="43.7951171" lon="11.5444745"><ele>770.0</ele><time>2026-04-12T13:27:51.949Z</time></trkpt><trkpt lat="43.7951462" lon="11.5442979"><ele>770.0</ele><time>2026-04-12T13:27:52.95Z</time></trkpt><trkpt lat="43.7951748" lon="11.5441139"><ele>763.25</ele><time>2026-04-12T13:27:53.949Z</time></trkpt><trkpt lat="43.7952017" lon="11.543921"><ele>756.5</ele><time>2026-04-12T13:27:54.948Z</time></trkpt><trkpt lat="43.7952304" lon="11.5437308"><ele>749.75</ele><time>2026-04-12T13:27:55.95Z</time></trkpt><trkpt lat="43.7952612" lon="11.5435435"><ele>743.0</ele><time>2026-04-12T13:27:56.95Z</time></trkpt><trkpt lat="43.7952919" lon="11.5433638"><ele>743.0</ele><time>2026-04-12T13:27:57.951Z</time></trkpt><trkpt lat="43.795319" lon="11.5431922"><ele>743.0</ele><time>2026-04-12T13:27:58.949Z</time></trkpt><trkpt lat="43.7953467" lon="11.5430229"><ele>743.0</ele><time>2026-04-12T13:27:59.95Z</time></trkpt><trkpt lat="43.7953778" lon="11.542851"><ele>743.0</ele><time>2026-04-12T13:28:00.95Z</time></trkpt><trkpt lat="43.7953977" lon="11.5426649"><ele>744.0</ele><time>2026-04-12T13:28:01.95Z</time></trkpt><trkpt lat="43.7953985" lon="11.5424608"><ele>745.0</ele><time>2026-04-12T13:28:02.95Z</time></trkpt><trkpt lat="43.795386" lon="11.5422495"><ele>746.0</ele><time>2026-04-12T13:28:03.949Z</time></trkpt><trkpt lat="43.7953637" lon="11.5420334"><ele>746.0</ele><time>2026-04-12T13:28:04.951Z</time></trkpt><trkpt lat="43.7953385" lon="11.5418301"><ele>746.0</ele><time>2026-04-12T13:28:05.95Z</time></trkpt><trkpt lat="43.7953186" lon="11.5416448"><ele>746.0</ele><time>2026-04-12T13:28:06.95Z</time></trkpt><trkpt lat="43.7953002" lon="11.5414793"><ele>746.0</ele><time>2026-04-12T13:28:07.949Z</time></trkpt><trkpt lat="43.7952856" lon="11.5413269"><ele>744.8</ele><time>2026-04-12T13:28:08.95Z</time></trkpt><trkpt lat="43.795279" lon="11.5411786"><ele>743.5999999999999</ele><time>2026-04-12T13:28:09.951Z</time></trkpt><trkpt lat="43.7952781" lon="11.5410347"><ele>742.4</ele><time>2026-04-12T13:28:10.95Z</time></trkpt><trkpt lat="43.7952874" lon="11.540886"><ele>741.2</ele><time>2026-04-12T13:28:11.95Z</time></trkpt><trkpt lat="43.7953017" lon="11.5407361"><ele>740.0</ele><time>2026-04-12T13:28:12.951Z</time></trkpt><trkpt lat="43.7953167" lon="11.5405894"><ele>740.0</ele><time>2026-04-12T13:28:13.951Z</time></trkpt><trkpt lat="43.7953303" lon="11.5404451"><ele>740.0</ele><time>2026-04-12T13:28:14.95Z</time></trkpt><trkpt lat="43.7953458" lon="11.5402988"><ele>740.0</ele><time>2026-04-12T13:28:15.95Z</time></trkpt><trkpt lat="43.7953571" lon="11.5401564"><ele>740.0</ele><time>2026-04-12T13:28:16.95Z</time></trkpt><trkpt lat="43.795366" lon="11.5400185"><ele>740.0</ele><time>2026-04-12T13:28:17.95Z</time></trkpt><trkpt lat="43.7953608" lon="11.5398792"><ele>739.5</ele><time>2026-04-12T13:28:18.95Z</time></trkpt><trkpt lat="43.7953243" lon="11.5397271"><ele>739.0</ele><time>2026-04-12T13:28:19.951Z</time></trkpt><trkpt lat="43.7952781" lon="11.5395757"><ele>738.5</ele><time>2026-04-12T13:28:20.95Z</time></trkpt><trkpt lat="43.7952103" lon="11.5394479"><ele>738.0</ele><time>2026-04-12T13:28:21.95Z</time></trkpt><trkpt lat="43.7951337" lon="11.539344"><ele>738.0</ele><time>2026-04-12T13:28:22.95Z</time></trkpt><trkpt lat="43.7950389" lon="11.5392572"><ele>738.0</ele><time>2026-04-12T13:28:23.95Z</time></trkpt><trkpt lat="43.7949406" lon="11.5391704"><ele>738.0</ele><time>2026-04-12T13:28:24.951Z</time></trkpt><trkpt lat="43.7948419" lon="11.5390834"><ele>738.0</ele><time>2026-04-12T13:28:25.95Z</time></trkpt><trkpt lat="43.7947478" lon="11.5390115"><ele>738.0</ele><time>2026-04-12T13:28:26.951Z</time></trkpt><trkpt lat="43.794652" lon="11.5389425"><ele>738.0</ele><time>2026-04-12T13:28:27.95Z</time></trkpt><trkpt lat="43.7945737" lon="11.5388681"><ele>738.0</ele><time>2026-04-12T13:28:28.949Z</time></trkpt><trkpt lat="43.7945016" lon="11.538758"><ele>738.0</ele><time>2026-04-12T13:28:29.95Z</time></trkpt><trkpt lat="43.7944546" lon="11.5386119"><ele>738.0</ele><time>2026-04-12T13:28:30.951Z</time></trkpt><trkpt lat="43.7944354" lon="11.5384552"><ele>738.75</ele><time>2026-04-12T13:28:31.949Z</time></trkpt><trkpt lat="43.7944629" lon="11.5382738"><ele>739.5</ele><time>2026-04-12T13:28:32.951Z</time></trkpt><trkpt lat="43.7944775" lon="11.5381066"><ele>740.25</ele><time>2026-04-12T13:28:33.95Z</time></trkpt><trkpt lat="43.7944671" lon="11.5379499"><ele>741.0</ele><time>2026-04-12T13:28:34.949Z</time></trkpt><trkpt lat="43.7944253" lon="11.5378093"><ele>742.0</ele><time>2026-04-12T13:28:35.951Z</time></trkpt><trkpt lat="43.7943521" lon="11.5376907"><ele>743.0</ele><time>2026-04-12T13:28:36.95Z</time></trkpt><trkpt lat="43.7942783" lon="11.5375825"><ele>744.0</ele><time>2026-04-12T13:28:37.95Z</time></trkpt><trkpt lat="43.7942073" lon="11.5374803"><ele>745.0</ele><time>2026-04-12T13:28:38.948Z</time></trkpt><trkpt lat="43.7941395" lon="11.5373797"><ele>746.0</ele><time>2026-04-12T13:28:39.95Z</time></trkpt><trkpt lat="43.7940682" lon="11.537279"><ele>746.75</ele><time>2026-04-12T13:28:40.949Z</time></trkpt><trkpt lat="43.7939935" lon="11.537169"><ele>747.5</ele><time>2026-04-12T13:28:41.95Z</time></trkpt><trkpt lat="43.7939244" lon="11.5370486"><ele>748.25</ele><time>2026-04-12T13:28:42.951Z</time></trkpt><trkpt lat="43.7938617" lon="11.536911"><ele>749.0</ele><time>2026-04-12T13:28:43.949Z</time></trkpt><trkpt lat="43.7937962" lon="11.5367331"><ele>749.0</ele><time>2026-04-12T13:28:44.95Z</time></trkpt><trkpt lat="43.7937211" lon="11.5365295"><ele>749.0</ele><time>2026-04-12T13:28:45.948Z</time></trkpt><trkpt lat="43.7936352" lon="11.5363091"><ele>749.0</ele><time>2026-04-12T13:28:46.951Z</time></trkpt><trkpt lat="43.7935603" lon="11.5361038"><ele>744.5</ele><time>2026-04-12T13:28:47.951Z</time></trkpt><trkpt lat="43.793492" lon="11.5359085"><ele>740.0</ele><time>2026-04-12T13:28:48.95Z</time></trkpt><trkpt lat="43.7934287" lon="11.5357277"><ele>735.5</ele><time>2026-04-12T13:28:49.949Z</time></trkpt><trkpt lat="43.7933758" lon="11.5355754"><ele>731.0</ele><time>2026-04-12T13:28:50.95Z</time></trkpt><trkpt lat="43.7933251" lon="11.5354238"><ele>732.5</ele><time>2026-04-12T13:28:51.951Z</time></trkpt><trkpt lat="43.7932791" lon="11.5352741"><ele>734.0</ele><time>2026-04-12T13:28:52.951Z</time></trkpt><trkpt lat="43.7932362" lon="11.535101"><ele>735.5</ele><time>2026-04-12T13:28:53.951Z</time></trkpt><trkpt lat="43.793189" lon="11.5349118"><ele>737.0</ele><time>2026-04-12T13:28:54.95Z</time></trkpt><trkpt lat="43.7931421" lon="11.534713"><ele>739.0</ele><time>2026-04-12T13:28:55.95Z</time></trkpt><trkpt lat="43.793098" lon="11.5345235"><ele>741.0</ele><time>2026-04-12T13:28:56.95Z</time></trkpt><trkpt lat="43.7930606" lon="11.5343464"><ele>743.0</ele><time>2026-04-12T13:28:57.949Z</time></trkpt><trkpt lat="43.7930302" lon="11.5341795"><ele>745.0</ele><time>2026-04-12T13:28:58.95Z</time></trkpt><trkpt lat="43.7930108" lon="11.5340016"><ele>745.0</ele><time>2026-04-12T13:28:59.951Z</time></trkpt><trkpt lat="43.7930122" lon="11.5338114"><ele>745.0</ele><time>2026-04-12T13:29:00.95Z</time></trkpt><trkpt lat="43.7930097" lon="11.5336142"><ele>745.0</ele><time>2026-04-12T13:29:01.95Z</time></trkpt><trkpt lat="43.7929881" lon="11.5334191"><ele>745.0</ele><time>2026-04-12T13:29:02.948Z</time></trkpt><trkpt lat="43.7929661" lon="11.5332405"><ele>745.5</ele><time>2026-04-12T13:29:03.949Z</time></trkpt><trkpt lat="43.792953" lon="11.5330583"><ele>746.0</ele><time>2026-04-12T13:29:04.949Z</time></trkpt><trkpt lat="43.7929638" lon="11.532867"><ele>746.5</ele><time>2026-04-12T13:29:05.95Z</time></trkpt><trkpt lat="43.7929727" lon="11.5326762"><ele>747.0</ele><time>2026-04-12T13:29:06.951Z</time></trkpt><trkpt lat="43.7929883" lon="11.5325001"><ele>747.0</ele><time>2026-04-12T13:29:07.951Z</time></trkpt><trkpt lat="43.7930039" lon="11.5323285"><ele>747.0</ele><time>2026-04-12T13:29:08.951Z</time></trkpt><trkpt lat="43.7930203" lon="11.5321545"><ele>747.0</ele><time>2026-04-12T13:29:09.95Z</time></trkpt><trkpt lat="43.7930382" lon="11.5319793"><ele>747.0</ele><time>2026-04-12T13:29:10.948Z</time></trkpt><trkpt lat="43.7930498" lon="11.5318014"><ele>745.75</ele><time>2026-04-12T13:29:11.949Z</time></trkpt><trkpt lat="43.7930545" lon="11.5316165"><ele>744.5</ele><time>2026-04-12T13:29:12.95Z</time></trkpt><trkpt lat="43.7930571" lon="11.5314219"><ele>743.25</ele><time>2026-04-12T13:29:13.948Z</time></trkpt><trkpt lat="43.7930934" lon="11.5312387"><ele>742.0</ele><time>2026-04-12T13:29:14.95Z</time></trkpt><trkpt lat="43.7931203" lon="11.5310653"><ele>741.25</ele><time>2026-04-12T13:29:15.95Z</time></trkpt><trkpt lat="43.7931362" lon="11.5309072"><ele>740.5</ele><time>2026-04-12T13:29:16.95Z</time></trkpt><trkpt lat="43.7931228" lon="11.5307612"><ele>739.75</ele><time>2026-04-12T13:29:17.949Z</time></trkpt><trkpt lat="43.7930669" lon="11.5306246"><ele>739.0</ele><time>2026-04-12T13:29:18.949Z</time></trkpt><trkpt lat="43.7929798" lon="11.530521"><ele>739.0</ele><time>2026-04-12T13:29:19.951Z</time></trkpt><trkpt lat="43.7928625" lon="11.530441"><ele>739.0</ele><time>2026-04-12T13:29:20.95Z</time></trkpt><trkpt lat="43.7927357" lon="11.5303493"><ele>739.0</ele><time>2026-04-12T13:29:21.948Z</time></trkpt><trkpt lat="43.7926137" lon="11.5302627"><ele>739.0</ele><time>2026-04-12T13:29:22.949Z</time></trkpt><trkpt lat="43.7925016" lon="11.5301829"><ele>734.25</ele><time>2026-04-12T13:29:23.949Z</time></trkpt><trkpt lat="43.792389" lon="11.5301001"><ele>729.5</ele><time>2026-04-12T13:29:24.949Z</time></trkpt><trkpt lat="43.7922903" lon="11.5299862"><ele>724.75</ele><time>2026-04-12T13:29:25.948Z</time></trkpt><trkpt lat="43.7922091" lon="11.5298671"><ele>720.0</ele><time>2026-04-12T13:29:26.95Z</time></trkpt><trkpt lat="43.7921261" lon="11.5297224"><ele>722.0</ele><time>2026-04-12T13:29:27.949Z</time></trkpt><trkpt lat="43.7920679" lon="11.5295546"><ele>724.0</ele><time>2026-04-12T13:29:28.949Z</time></trkpt><trkpt lat="43.7920431" lon="11.5293464"><ele>726.0</ele><time>2026-04-12T13:29:29.949Z</time></trkpt><trkpt lat="43.7920462" lon="11.5291425"><ele>728.0</ele><time>2026-04-12T13:29:30.95Z</time></trkpt><trkpt lat="43.7920241" lon="11.5289462"><ele>728.0</ele><time>2026-04-12T13:29:31.951Z</time></trkpt><trkpt lat="43.791975" lon="11.5287543"><ele>728.0</ele><time>2026-04-12T13:29:32.951Z</time></trkpt><trkpt lat="43.7919063" lon="11.528571"><ele>728.0</ele><time>2026-04-12T13:29:33.949Z</time></trkpt><trkpt lat="43.791841" lon="11.5283942"><ele>728.0</ele><time>2026-04-12T13:29:34.948Z</time></trkpt><trkpt lat="43.7917763" lon="11.5282331"><ele>720.25</ele><time>2026-04-12T13:29:35.951Z</time></trkpt><trkpt lat="43.7917238" lon="11.5280877"><ele>712.5</ele><time>2026-04-12T13:29:36.95Z</time></trkpt><trkpt lat="43.7916777" lon="11.5279397"><ele>704.75</ele><time>2026-04-12T13:29:37.95Z</time></trkpt><trkpt lat="43.7916631" lon="11.5277948"><ele>697.0</ele><time>2026-04-12T13:29:38.949Z</time></trkpt><trkpt lat="43.7916728" lon="11.5276411"><ele>696.5</ele><time>2026-04-12T13:29:39.949Z</time></trkpt><trkpt lat="43.7917211" lon="11.5274851"><ele>696.0</ele><time>2026-04-12T13:29:40.949Z</time></trkpt><trkpt lat="43.7917862" lon="11.5273387"><ele>695.5</ele><time>2026-04-12T13:29:41.949Z</time></trkpt><trkpt lat="43.7918413" lon="11.5271908"><ele>695.0</ele><time>2026-04-12T13:29:42.949Z</time></trkpt><trkpt lat="43.791852" lon="11.5270232"><ele>692.5</ele><time>2026-04-12T13:29:43.948Z</time></trkpt><trkpt lat="43.7918576" lon="11.5268527"><ele>690.0</ele><time>2026-04-12T13:29:44.95Z</time></trkpt><trkpt lat="43.7918463" lon="11.5267037"><ele>687.5</ele><time>2026-04-12T13:29:45.95Z</time></trkpt><trkpt lat="43.7918346" lon="11.5265508"><ele>685.0</ele><time>2026-04-12T13:29:46.951Z</time></trkpt><trkpt lat="43.7918383" lon="11.5263933"><ele>689.25</ele><time>2026-04-12T13:29:47.95Z</time></trkpt><trkpt lat="43.7918937" lon="11.5262133"><ele>693.5</ele><time>2026-04-12T13:29:48.949Z</time></trkpt><trkpt lat="43.7919497" lon="11.5260294"><ele>697.75</ele><time>2026-04-12T13:29:49.949Z</time></trkpt><trkpt lat="43.7920045" lon="11.5258547"><ele>702.0</ele><time>2026-04-12T13:29:50.951Z</time></trkpt><trkpt lat="43.7920586" lon="11.5256835"><ele>702.0</ele><time>2026-04-12T13:29:51.951Z</time></trkpt><trkpt lat="43.7921026" lon="11.5255167"><ele>702.0</ele><time>2026-04-12T13:29:52.951Z</time></trkpt><trkpt lat="43.7921255" lon="11.5253529"><ele>702.0</ele><time>2026-04-12T13:29:53.95Z</time></trkpt><trkpt lat="43.7921097" lon="11.5251884"><ele>702.0</ele><time>2026-04-12T13:29:54.948Z</time></trkpt><trkpt lat="43.7920677" lon="11.5250302"><ele>699.4000000000001</ele><time>2026-04-12T13:29:55.95Z</time></trkpt><trkpt lat="43.7920264" lon="11.524892"><ele>696.8000000000001</ele><time>2026-04-12T13:29:56.949Z</time></trkpt><trkpt lat="43.7919928" lon="11.5247693"><ele>694.2</ele><time>2026-04-12T13:29:57.951Z</time></trkpt><trkpt lat="43.7919883" lon="11.524648"><ele>691.6</ele><time>2026-04-12T13:29:58.948Z</time></trkpt><trkpt lat="43.792015" lon="11.5245425"><ele>689.0</ele><time>2026-04-12T13:29:59.949Z</time></trkpt><trkpt lat="43.7920796" lon="11.5244472"><ele>686.6</ele><time>2026-04-12T13:30:00.949Z</time></trkpt><trkpt lat="43.7921629" lon="11.5243592"><ele>684.2</ele><time>2026-04-12T13:30:01.949Z</time></trkpt><trkpt lat="43.7922466" lon="11.524279"><ele>681.8000000000001</ele><time>2026-04-12T13:30:02.95Z</time></trkpt><trkpt lat="43.7923203" lon="11.5241941"><ele>679.4000000000001</ele><time>2026-04-12T13:30:03.95Z</time></trkpt><trkpt lat="43.7923862" lon="11.5240731"><ele>677.0</ele><time>2026-04-12T13:30:04.949Z</time></trkpt><trkpt lat="43.792442" lon="11.5239171"><ele>677.0</ele><time>2026-04-12T13:30:05.95Z</time></trkpt><trkpt lat="43.792496" lon="11.5237497"><ele>677.0</ele><time>2026-04-12T13:30:06.951Z</time></trkpt><trkpt lat="43.7925506" lon="11.5235797"><ele>677.0</ele><time>2026-04-12T13:30:07.95Z</time></trkpt><trkpt lat="43.7926047" lon="11.5234112"><ele>677.0</ele><time>2026-04-12T13:30:08.949Z</time></trkpt><trkpt lat="43.7926697" lon="11.5232505"><ele>678.0</ele><time>2026-04-12T13:30:09.95Z</time></trkpt><trkpt lat="43.7927392" lon="11.5230874"><ele>679.0</ele><time>2026-04-12T13:30:10.95Z</time></trkpt><trkpt lat="43.7927863" lon="11.5229072"><ele>680.0</ele><time>2026-04-12T13:30:11.95Z</time></trkpt><trkpt lat="43.7928065" lon="11.5227119"><ele>681.0</ele><time>2026-04-12T13:30:12.95Z</time></trkpt><trkpt lat="43.7927953" lon="11.5225123"><ele>678.3333333333334</ele><time>2026-04-12T13:30:13.951Z</time></trkpt><trkpt lat="43.7927586" lon="11.522297"><ele>675.6666666666667</ele><time>2026-04-12T13:30:14.949Z</time></trkpt><trkpt lat="43.7927184" lon="11.5220694"><ele>673.0</ele><time>2026-04-12T13:30:15.95Z</time></trkpt><trkpt lat="43.7927164" lon="11.5218093"><ele>671.0</ele><time>2026-04-12T13:30:16.949Z</time></trkpt><trkpt lat="43.7927048" lon="11.5215515"><ele>669.0</ele><time>2026-04-12T13:30:17.951Z</time></trkpt><trkpt lat="43.7926944" lon="11.5213089"><ele>667.0</ele><time>2026-04-12T13:30:18.95Z</time></trkpt><trkpt lat="43.7926778" lon="11.5211185"><ele>660.0</ele><time>2026-04-12T13:30:19.949Z</time></trkpt><trkpt lat="43.7926579" lon="11.5209242"><ele>653.0</ele><time>2026-04-12T13:30:20.95Z</time></trkpt><trkpt lat="43.7926374" lon="11.5207409"><ele>646.0</ele><time>2026-04-12T13:30:21.949Z</time></trkpt><trkpt lat="43.7926158" lon="11.520562"><ele>639.0</ele><time>2026-04-12T13:30:22.951Z</time></trkpt><trkpt lat="43.7926248" lon="11.5203743"><ele>641.75</ele><time>2026-04-12T13:30:23.95Z</time></trkpt><trkpt lat="43.7926611" lon="11.5201898"><ele>644.5</ele><time>2026-04-12T13:30:24.95Z</time></trkpt><trkpt lat="43.7927225" lon="11.5200154"><ele>647.25</ele><time>2026-04-12T13:30:25.951Z</time></trkpt><trkpt lat="43.7927942" lon="11.5198546"><ele>650.0</ele><time>2026-04-12T13:30:26.95Z</time></trkpt><trkpt lat="43.7928793" lon="11.5197122"><ele>650.0</ele><time>2026-04-12T13:30:27.95Z</time></trkpt><trkpt lat="43.7929889" lon="11.5195824"><ele>650.0</ele><time>2026-04-12T13:30:28.949Z</time></trkpt><trkpt lat="43.7931045" lon="11.5194642"><ele>650.0</ele><time>2026-04-12T13:30:29.949Z</time></trkpt><trkpt lat="43.7932131" lon="11.5193597"><ele>650.0</ele><time>2026-04-12T13:30:30.95Z</time></trkpt><trkpt lat="43.7933103" lon="11.5192547"><ele>648.6</ele><time>2026-04-12T13:30:31.951Z</time></trkpt><trkpt lat="43.7933946" lon="11.5191381"><ele>647.2</ele><time>2026-04-12T13:30:32.95Z</time></trkpt><trkpt lat="43.7934651" lon="11.5190152"><ele>645.8</ele><time>2026-04-12T13:30:33.951Z</time></trkpt><trkpt lat="43.793512" lon="11.5188782"><ele>644.4</ele><time>2026-04-12T13:30:34.95Z</time></trkpt><trkpt lat="43.793534" lon="11.5187384"><ele>643.0</ele><time>2026-04-12T13:30:35.951Z</time></trkpt><trkpt lat="43.7935077" lon="11.5186078"><ele>638.25</ele><time>2026-04-12T13:30:36.951Z</time></trkpt><trkpt lat="43.7934535" lon="11.5184862"><ele>633.5</ele><time>2026-04-12T13:30:37.948Z</time></trkpt><trkpt lat="43.7933816" lon="11.5183596"><ele>628.75</ele><time>2026-04-12T13:30:38.95Z</time></trkpt><trkpt lat="43.7932998" lon="11.5182369"><ele>624.0</ele><time>2026-04-12T13:30:39.95Z</time></trkpt><trkpt lat="43.7932199" lon="11.5181114"><ele>624.0</ele><time>2026-04-12T13:30:40.949Z</time></trkpt><trkpt lat="43.7931279" lon="11.5179779"><ele>624.0</ele><time>2026-04-12T13:30:41.95Z</time></trkpt><trkpt lat="43.7930354" lon="11.5178382"><ele>624.0</ele><time>2026-04-12T13:30:42.951Z</time></trkpt><trkpt lat="43.7929431" lon="11.5177029"><ele>624.0</ele><time>2026-04-12T13:30:43.95Z</time></trkpt><trkpt lat="43.7928556" lon="11.5175743"><ele>622.75</ele><time>2026-04-12T13:30:44.95Z</time></trkpt><trkpt lat="43.7927683" lon="11.5174484"><ele>621.5</ele><time>2026-04-12T13:30:45.949Z</time></trkpt><trkpt lat="43.7926806" lon="11.5173243"><ele>620.25</ele><time>2026-04-12T13:30:46.948Z</time></trkpt><trkpt lat="43.7925794" lon="11.5171878"><ele>619.0</ele><time>2026-04-12T13:30:47.951Z</time></trkpt><trkpt lat="43.7924609" lon="11.5170589"><ele>619.0</ele><time>2026-04-12T13:30:48.95Z</time></trkpt><trkpt lat="43.7923199" lon="11.5169454"><ele>619.0</ele><time>2026-04-12T13:30:49.95Z</time></trkpt><trkpt lat="43.7921777" lon="11.5168223"><ele>619.0</ele><time>2026-04-12T13:30:50.949Z</time></trkpt><trkpt lat="43.7920343" lon="11.516686"><ele>619.0</ele><time>2026-04-12T13:30:51.949Z</time></trkpt><trkpt lat="43.7918988" lon="11.5165349"><ele>619.0</ele><time>2026-04-12T13:30:52.949Z</time></trkpt><trkpt lat="43.7917732" lon="11.5163795"><ele>619.0</ele><time>2026-04-12T13:30:53.949Z</time></trkpt><trkpt lat="43.7916621" lon="11.5162343"><ele>615.0</ele><time>2026-04-12T13:30:54.95Z</time></trkpt><trkpt lat="43.7915669" lon="11.5161077"><ele>611.0</ele><time>2026-04-12T13:30:55.95Z</time></trkpt><trkpt lat="43.7914824" lon="11.5159897"><ele>607.0</ele><time>2026-04-12T13:30:56.95Z</time></trkpt><trkpt lat="43.7913996" lon="11.5158776"><ele>603.0</ele><time>2026-04-12T13:30:57.951Z</time></trkpt><trkpt lat="43.7913218" lon="11.5157658"><ele>603.0</ele><time>2026-04-12T13:30:58.95Z</time></trkpt><trkpt lat="43.7912584" lon="11.5156703"><ele>603.0</ele><time>2026-04-12T13:30:59.95Z</time></trkpt><trkpt lat="43.7912082" lon="11.5155659"><ele>603.0</ele><time>2026-04-12T13:31:00.949Z</time></trkpt><trkpt lat="43.7911829" lon="11.5154498"><ele>603.0</ele><time>2026-04-12T13:31:01.949Z</time></trkpt><trkpt lat="43.7911838" lon="11.5153207"><ele>603.0</ele><time>2026-04-12T13:31:02.95Z</time></trkpt><trkpt lat="43.7912401" lon="11.5151733"><ele>601.5</ele><time>2026-04-12T13:31:03.95Z</time></trkpt><trkpt lat="43.7913137" lon="11.5150376"><ele>600.0</ele><time>2026-04-12T13:31:04.95Z</time></trkpt><trkpt lat="43.7914049" lon="11.5149068"><ele>598.5</ele><time>2026-04-12T13:31:05.949Z</time></trkpt><trkpt lat="43.7915068" lon="11.5148023"><ele>597.0</ele><time>2026-04-12T13:31:06.95Z</time></trkpt><trkpt lat="43.7916044" lon="11.5147009"><ele>597.0</ele><time>2026-04-12T13:31:07.95Z</time></trkpt><trkpt lat="43.791699" lon="11.5146078"><ele>597.0</ele><time>2026-04-12T13:31:08.95Z</time></trkpt><trkpt lat="43.7918084" lon="11.51453"><ele>597.0</ele><time>2026-04-12T13:31:09.949Z</time></trkpt><trkpt lat="43.7919248" lon="11.5144582"><ele>597.0</ele><time>2026-04-12T13:31:10.949Z</time></trkpt><trkpt lat="43.7920597" lon="11.5143801"><ele>594.25</ele><time>2026-04-12T13:31:11.95Z</time></trkpt><trkpt lat="43.7921829" lon="11.5143089"><ele>591.5</ele><time>2026-04-12T13:31:12.951Z</time></trkpt><trkpt lat="43.792286" lon="11.5142401"><ele>588.75</ele><time>2026-04-12T13:31:13.951Z</time></trkpt><trkpt lat="43.7923755" lon="11.5141539"><ele>586.0</ele><time>2026-04-12T13:31:14.949Z</time></trkpt><trkpt lat="43.792446" lon="11.5140451"><ele>586.0</ele><time>2026-04-12T13:31:15.949Z</time></trkpt><trkpt lat="43.7924938" lon="11.5139012"><ele>586.0</ele><time>2026-04-12T13:31:16.95Z</time></trkpt><trkpt lat="43.7925105" lon="11.5137474"><ele>586.0</ele><time>2026-04-12T13:31:17.951Z</time></trkpt><trkpt lat="43.7924946" lon="11.5135975"><ele>586.0</ele><time>2026-04-12T13:31:18.949Z</time></trkpt><trkpt lat="43.7924513" lon="11.513465"><ele>586.0</ele><time>2026-04-12T13:31:19.95Z</time></trkpt><trkpt lat="43.7923826" lon="11.5133521"><ele>582.75</ele><time>2026-04-12T13:31:20.949Z</time></trkpt><trkpt lat="43.7922948" lon="11.5132697"><ele>579.5</ele><time>2026-04-12T13:31:21.95Z</time></trkpt><trkpt lat="43.792181" lon="11.5132104"><ele>576.25</ele><time>2026-04-12T13:31:22.951Z</time></trkpt><trkpt lat="43.7920574" lon="11.5131676"><ele>573.0</ele><time>2026-04-12T13:31:23.949Z</time></trkpt><trkpt lat="43.7919328" lon="11.5131319"><ele>571.25</ele><time>2026-04-12T13:31:24.949Z</time></trkpt><trkpt lat="43.7918094" lon="11.5130963"><ele>569.5</ele><time>2026-04-12T13:31:25.949Z</time></trkpt><trkpt lat="43.7916921" lon="11.5130624"><ele>567.75</ele><time>2026-04-12T13:31:26.948Z</time></trkpt><trkpt lat="43.7915768" lon="11.5130263"><ele>566.0</ele><time>2026-04-12T13:31:27.95Z</time></trkpt><trkpt lat="43.7914627" lon="11.5129942"><ele>566.0</ele><time>2026-04-12T13:31:28.951Z</time></trkpt><trkpt lat="43.7913418" lon="11.5129585"><ele>566.0</ele><time>2026-04-12T13:31:29.95Z</time></trkpt><trkpt lat="43.7912096" lon="11.5129188"><ele>566.0</ele><time>2026-04-12T13:31:30.95Z</time></trkpt><trkpt lat="43.7910753" lon="11.5128982"><ele>566.0</ele><time>2026-04-12T13:31:31.949Z</time></trkpt><trkpt lat="43.790947" lon="11.5129209"><ele>563.5</ele><time>2026-04-12T13:31:32.95Z</time></trkpt><trkpt lat="43.7908291" lon="11.5129553"><ele>561.0</ele><time>2026-04-12T13:31:33.949Z</time></trkpt><trkpt lat="43.7907168" lon="11.5129904"><ele>558.5</ele><time>2026-04-12T13:31:34.95Z</time></trkpt><trkpt lat="43.7906077" lon="11.5130224"><ele>556.0</ele><time>2026-04-12T13:31:35.949Z</time></trkpt><trkpt lat="43.7904969" lon="11.513051"><ele>556.0</ele><time>2026-04-12T13:31:36.949Z</time></trkpt><trkpt lat="43.7903786" lon="11.5130866"><ele>556.0</ele><time>2026-04-12T13:31:37.949Z</time></trkpt><trkpt lat="43.790261" lon="11.5131209"><ele>556.0</ele><time>2026-04-12T13:31:38.95Z</time></trkpt><trkpt lat="43.7901496" lon="11.5131511"><ele>556.0</ele><time>2026-04-12T13:31:39.949Z</time></trkpt><trkpt lat="43.7900381" lon="11.5131796"><ele>553.6</ele><time>2026-04-12T13:31:40.948Z</time></trkpt><trkpt lat="43.7899268" lon="11.5132066"><ele>551.2</ele><time>2026-04-12T13:31:41.95Z</time></trkpt><trkpt lat="43.7898184" lon="11.5132356"><ele>548.8</ele><time>2026-04-12T13:31:42.951Z</time></trkpt><trkpt lat="43.7897156" lon="11.5132658"><ele>546.4</ele><time>2026-04-12T13:31:43.95Z</time></trkpt><trkpt lat="43.7896116" lon="11.513282"><ele>544.0</ele><time>2026-04-12T13:31:44.95Z</time></trkpt><trkpt lat="43.7895065" lon="11.5132917"><ele>544.0</ele><time>2026-04-12T13:31:45.949Z</time></trkpt><trkpt lat="43.789392" lon="11.5132904"><ele>544.0</ele><time>2026-04-12T13:31:46.95Z</time></trkpt><trkpt lat="43.7892679" lon="11.5132834"><ele>544.0</ele><time>2026-04-12T13:31:47.95Z</time></trkpt><trkpt lat="43.789131" lon="11.5132709"><ele>544.0</ele><time>2026-04-12T13:31:48.949Z</time></trkpt><trkpt lat="43.7889915" lon="11.5132313"><ele>541.3333333333334</ele><time>2026-04-12T13:31:49.949Z</time></trkpt><trkpt lat="43.7888489" lon="11.5131406"><ele>538.6666666666666</ele><time>2026-04-12T13:31:50.951Z</time></trkpt><trkpt lat="43.7887197" lon="11.5130207"><ele>536.0</ele><time>2026-04-12T13:31:51.95Z</time></trkpt><trkpt lat="43.7886083" lon="11.5128865"><ele>534.25</ele><time>2026-04-12T13:31:52.949Z</time></trkpt><trkpt lat="43.7885058" lon="11.5127481"><ele>532.5</ele><time>2026-04-12T13:31:53.951Z</time></trkpt><trkpt lat="43.788413" lon="11.5126121"><ele>530.75</ele><time>2026-04-12T13:31:54.95Z</time></trkpt><trkpt lat="43.7883193" lon="11.5124845"><ele>529.0</ele><time>2026-04-12T13:31:55.949Z</time></trkpt><trkpt lat="43.7882306" lon="11.5123606"><ele>529.0</ele><time>2026-04-12T13:31:56.949Z</time></trkpt><trkpt lat="43.7881448" lon="11.5122485"><ele>529.0</ele><time>2026-04-12T13:31:57.949Z</time></trkpt><trkpt lat="43.7880613" lon="11.5121403"><ele>529.0</ele><time>2026-04-12T13:31:58.949Z</time></trkpt><trkpt lat="43.7879753" lon="11.512032"><ele>529.0</ele><time>2026-04-12T13:31:59.95Z</time></trkpt><trkpt lat="43.7878919" lon="11.5119253"><ele>528.2</ele><time>2026-04-12T13:32:00.949Z</time></trkpt><trkpt lat="43.7878155" lon="11.5118237"><ele>527.4</ele><time>2026-04-12T13:32:01.95Z</time></trkpt><trkpt lat="43.787745" lon="11.5117321"><ele>526.6</ele><time>2026-04-12T13:32:02.951Z</time></trkpt><trkpt lat="43.7876774" lon="11.5116465"><ele>525.8</ele><time>2026-04-12T13:32:03.951Z</time></trkpt><trkpt lat="43.7876118" lon="11.5115644"><ele>525.0</ele><time>2026-04-12T13:32:04.951Z</time></trkpt><trkpt lat="43.7875452" lon="11.5114799"><ele>525.0</ele><time>2026-04-12T13:32:05.949Z</time></trkpt><trkpt lat="43.7874819" lon="11.5114038"><ele>525.0</ele><time>2026-04-12T13:32:06.95Z</time></trkpt><trkpt lat="43.7874154" lon="11.511316"><ele>525.0</ele><time>2026-04-12T13:32:07.95Z</time></trkpt><trkpt lat="43.7873422" lon="11.5112253"><ele>525.0</ele><time>2026-04-12T13:32:08.949Z</time></trkpt><trkpt lat="43.7872675" lon="11.5111362"><ele>525.0</ele><time>2026-04-12T13:32:09.95Z</time></trkpt><trkpt lat="43.7871985" lon="11.5110463"><ele>525.2</ele><time>2026-04-12T13:32:10.951Z</time></trkpt><trkpt lat="43.7871285" lon="11.5109594"><ele>525.4</ele><time>2026-04-12T13:32:11.949Z</time></trkpt><trkpt lat="43.7870525" lon="11.510869"><ele>525.6</ele><time>2026-04-12T13:32:12.949Z</time></trkpt><trkpt lat="43.7869747" lon="11.5107683"><ele>525.8</ele><time>2026-04-12T13:32:13.95Z</time></trkpt><trkpt lat="43.7868996" lon="11.510662"><ele>526.0</ele><time>2026-04-12T13:32:14.949Z</time></trkpt><trkpt lat="43.786817" lon="11.5105582"><ele>526.0</ele><time>2026-04-12T13:32:15.949Z</time></trkpt><trkpt lat="43.7867256" lon="11.5104438"><ele>526.0</ele><time>2026-04-12T13:32:16.949Z</time></trkpt><trkpt lat="43.7866277" lon="11.5103212"><ele>526.0</ele><time>2026-04-12T13:32:17.95Z</time></trkpt><trkpt lat="43.7865211" lon="11.5101898"><ele>526.0</ele><time>2026-04-12T13:32:18.949Z</time></trkpt><trkpt lat="43.7864214" lon="11.5100605"><ele>523.75</ele><time>2026-04-12T13:32:19.95Z</time></trkpt><trkpt lat="43.7863248" lon="11.5099401"><ele>521.5</ele><time>2026-04-12T13:32:20.95Z</time></trkpt><trkpt lat="43.7862261" lon="11.5098256"><ele>519.25</ele><time>2026-04-12T13:32:21.951Z</time></trkpt><trkpt lat="43.7861295" lon="11.5097192"><ele>517.0</ele><time>2026-04-12T13:32:22.949Z</time></trkpt><trkpt lat="43.7860405" lon="11.5096141"><ele>516.5</ele><time>2026-04-12T13:32:23.949Z</time></trkpt><trkpt lat="43.785951" lon="11.5095001"><ele>516.0</ele><time>2026-04-12T13:32:24.948Z</time></trkpt><trkpt lat="43.785864" lon="11.5093705"><ele>515.5</ele><time>2026-04-12T13:32:25.949Z</time></trkpt><trkpt lat="43.7857812" lon="11.5092132"><ele>515.0</ele><time>2026-04-12T13:32:26.951Z</time></trkpt><trkpt lat="43.7857043" lon="11.5090484"><ele>515.0</ele><time>2026-04-12T13:32:27.949Z</time></trkpt><trkpt lat="43.7856327" lon="11.50888"><ele>515.0</ele><time>2026-04-12T13:32:28.95Z</time></trkpt><trkpt lat="43.7855674" lon="11.5087153"><ele>515.0</ele><time>2026-04-12T13:32:29.95Z</time></trkpt><trkpt lat="43.7855065" lon="11.5085617"><ele>515.0</ele><time>2026-04-12T13:32:30.95Z</time></trkpt><trkpt lat="43.7854513" lon="11.5084075"><ele>513.5</ele><time>2026-04-12T13:32:31.948Z</time></trkpt><trkpt lat="43.7853977" lon="11.5082572"><ele>512.0</ele><time>2026-04-12T13:32:32.95Z</time></trkpt><trkpt lat="43.7853486" lon="11.5081017"><ele>510.5</ele><time>2026-04-12T13:32:33.949Z</time></trkpt><trkpt lat="43.785299" lon="11.5079411"><ele>509.0</ele><time>2026-04-12T13:32:34.949Z</time></trkpt><trkpt lat="43.7852511" lon="11.5077759"><ele>507.5</ele><time>2026-04-12T13:32:35.95Z</time></trkpt><trkpt lat="43.7852109" lon="11.5076136"><ele>506.0</ele><time>2026-04-12T13:32:36.95Z</time></trkpt><trkpt lat="43.7851758" lon="11.5074524"><ele>504.5</ele><time>2026-04-12T13:32:37.949Z</time></trkpt><trkpt lat="43.7851444" lon="11.5073014"><ele>503.0</ele><time>2026-04-12T13:32:38.949Z</time></trkpt><trkpt lat="43.7851185" lon="11.5071629"><ele>502.2</ele><time>2026-04-12T13:32:39.949Z</time></trkpt><trkpt lat="43.7850932" lon="11.5070284"><ele>501.4</ele><time>2026-04-12T13:32:40.95Z</time></trkpt><trkpt lat="43.7850772" lon="11.5069019"><ele>500.59999999999997</ele><time>2026-04-12T13:32:41.951Z</time></trkpt><trkpt lat="43.7850569" lon="11.5067778"><ele>499.79999999999995</ele><time>2026-04-12T13:32:42.949Z</time></trkpt><trkpt lat="43.7850372" lon="11.5066619"><ele>499.0</ele><time>2026-04-12T13:32:43.95Z</time></trkpt><trkpt lat="43.7850186" lon="11.5065312"><ele>499.0</ele><time>2026-04-12T13:32:44.949Z</time></trkpt><trkpt lat="43.7849939" lon="11.5063936"><ele>499.0</ele><time>2026-04-12T13:32:45.95Z</time></trkpt><trkpt lat="43.7849721" lon="11.5062581"><ele>499.0</ele><time>2026-04-12T13:32:46.949Z</time></trkpt><trkpt lat="43.7849559" lon="11.5061215"><ele>499.0</ele><time>2026-04-12T13:32:47.949Z</time></trkpt><trkpt lat="43.784938" lon="11.5059806"><ele>499.0</ele><time>2026-04-12T13:32:48.95Z</time></trkpt><trkpt lat="43.78492" lon="11.5058391"><ele>497.6</ele><time>2026-04-12T13:32:49.948Z</time></trkpt><trkpt lat="43.7849025" lon="11.5057043"><ele>496.2</ele><time>2026-04-12T13:32:50.949Z</time></trkpt><trkpt lat="43.7848873" lon="11.5055706"><ele>494.80000000000007</ele><time>2026-04-12T13:32:51.951Z</time></trkpt><trkpt lat="43.7848678" lon="11.5054411"><ele>493.40000000000003</ele><time>2026-04-12T13:32:52.95Z</time></trkpt><trkpt lat="43.7848505" lon="11.505311"><ele>492.0</ele><time>2026-04-12T13:32:53.949Z</time></trkpt><trkpt lat="43.7848309" lon="11.5051791"><ele>491.5</ele><time>2026-04-12T13:32:54.95Z</time></trkpt><trkpt lat="43.7848077" lon="11.5050453"><ele>491.0</ele><time>2026-04-12T13:32:55.95Z</time></trkpt><trkpt lat="43.7847864" lon="11.5049188"><ele>490.5</ele><time>2026-04-12T13:32:56.949Z</time></trkpt><trkpt lat="43.7847654" lon="11.5048005"><ele>490.0</ele><time>2026-04-12T13:32:57.95Z</time></trkpt><trkpt lat="43.7847525" lon="11.5046879"><ele>489.5</ele><time>2026-04-12T13:32:58.95Z</time></trkpt><trkpt lat="43.7847339" lon="11.5045751"><ele>489.0</ele><time>2026-04-12T13:32:59.949Z</time></trkpt><trkpt lat="43.7847149" lon="11.5044602"><ele>488.1666666666667</ele><time>2026-04-12T13:33:00.95Z</time></trkpt><trkpt lat="43.784695" lon="11.5043499"><ele>487.33333333333337</ele><time>2026-04-12T13:33:01.949Z</time></trkpt><trkpt lat="43.7846788" lon="11.5042458"><ele>486.5</ele><time>2026-04-12T13:33:02.95Z</time></trkpt><trkpt lat="43.7846591" lon="11.5041461"><ele>485.6666666666667</ele><time>2026-04-12T13:33:03.949Z</time></trkpt><trkpt lat="43.784636" lon="11.5040269"><ele>484.83333333333337</ele><time>2026-04-12T13:33:04.951Z</time></trkpt><trkpt lat="43.7846121" lon="11.5039052"><ele>484.0</ele><time>2026-04-12T13:33:05.948Z</time></trkpt><trkpt lat="43.784587" lon="11.5037861"><ele>484.0</ele><time>2026-04-12T13:33:06.95Z</time></trkpt><trkpt lat="43.7845647" lon="11.5036749"><ele>484.0</ele><time>2026-04-12T13:33:07.95Z</time></trkpt><trkpt lat="43.7845412" lon="11.5035562"><ele>484.0</ele><time>2026-04-12T13:33:08.949Z</time></trkpt><trkpt lat="43.7845161" lon="11.5034275"><ele>484.0</ele><time>2026-04-12T13:33:09.95Z</time></trkpt><trkpt lat="43.7844977" lon="11.5032952"><ele>484.0</ele><time>2026-04-12T13:33:10.951Z</time></trkpt><trkpt lat="43.7844961" lon="11.5031608"><ele>484.0</ele><time>2026-04-12T13:33:11.951Z</time></trkpt><trkpt lat="43.7845194" lon="11.5030059"><ele>484.0</ele><time>2026-04-12T13:33:12.951Z</time></trkpt><trkpt lat="43.7845467" lon="11.5028616"><ele>484.0</ele><time>2026-04-12T13:33:13.95Z</time></trkpt><trkpt lat="43.7845802" lon="11.5027194"><ele>484.0</ele><time>2026-04-12T13:33:14.949Z</time></trkpt><trkpt lat="43.7846056" lon="11.5025819"><ele>484.0</ele><time>2026-04-12T13:33:15.95Z</time></trkpt><trkpt lat="43.7846322" lon="11.5024462"><ele>483.4</ele><time>2026-04-12T13:33:16.95Z</time></trkpt><trkpt lat="43.7846616" lon="11.5023023"><ele>482.79999999999995</ele><time>2026-04-12T13:33:17.95Z</time></trkpt><trkpt lat="43.7846753" lon="11.5021587"><ele>482.20000000000005</ele><time>2026-04-12T13:33:18.95Z</time></trkpt><trkpt lat="43.7846793" lon="11.5020043"><ele>481.6</ele><time>2026-04-12T13:33:19.948Z</time></trkpt><trkpt lat="43.7846605" lon="11.5018661"><ele>481.0</ele><time>2026-04-12T13:33:20.949Z</time></trkpt><trkpt lat="43.7846348" lon="11.5017342"><ele>480.6</ele><time>2026-04-12T13:33:21.95Z</time></trkpt><trkpt lat="43.7845973" lon="11.5016017"><ele>480.20000000000005</ele><time>2026-04-12T13:33:22.95Z</time></trkpt><trkpt lat="43.7845528" lon="11.5014781"><ele>479.79999999999995</ele><time>2026-04-12T13:33:23.948Z</time></trkpt><trkpt lat="43.784501" lon="11.5013436"><ele>479.4</ele><time>2026-04-12T13:33:24.95Z</time></trkpt><trkpt lat="43.7844487" lon="11.5012178"><ele>479.0</ele><time>2026-04-12T13:33:25.951Z</time></trkpt><trkpt lat="43.7844" lon="11.5010948"><ele>477.79999999999995</ele><time>2026-04-12T13:33:26.949Z</time></trkpt><trkpt lat="43.7843525" lon="11.5009766"><ele>476.59999999999997</ele><time>2026-04-12T13:33:27.949Z</time></trkpt><trkpt lat="43.7843132" lon="11.5008358"><ele>475.4</ele><time>2026-04-12T13:33:28.95Z</time></trkpt><trkpt lat="43.7842824" lon="11.5006768"><ele>474.2</ele><time>2026-04-12T13:33:29.95Z</time></trkpt><trkpt lat="43.784273" lon="11.5005126"><ele>473.0</ele><time>2026-04-12T13:33:30.95Z</time></trkpt><trkpt lat="43.7842866" lon="11.5003572"><ele>471.25</ele><time>2026-04-12T13:33:31.951Z</time></trkpt><trkpt lat="43.7843181" lon="11.5001955"><ele>469.5</ele><time>2026-04-12T13:33:32.951Z</time></trkpt><trkpt lat="43.7843492" lon="11.500036"><ele>467.75</ele><time>2026-04-12T13:33:33.949Z</time></trkpt><trkpt lat="43.7843829" lon="11.4998926"><ele>466.0</ele><time>2026-04-12T13:33:34.95Z</time></trkpt><trkpt lat="43.7844122" lon="11.4997532"><ele>465.4</ele><time>2026-04-12T13:33:35.948Z</time></trkpt><trkpt lat="43.7844412" lon="11.4996204"><ele>464.8</ele><time>2026-04-12T13:33:36.949Z</time></trkpt><trkpt lat="43.7844698" lon="11.4994895"><ele>464.19999999999993</ele><time>2026-04-12T13:33:37.951Z</time></trkpt><trkpt lat="43.784503" lon="11.4993652"><ele>463.59999999999997</ele><time>2026-04-12T13:33:38.95Z</time></trkpt><trkpt lat="43.7845107" lon="11.4992045"><ele>463.0</ele><time>2026-04-12T13:33:39.949Z</time></trkpt><trkpt lat="43.784502" lon="11.4990572"><ele>462.59999999999997</ele><time>2026-04-12T13:33:40.949Z</time></trkpt><trkpt lat="43.7844734" lon="11.4989031"><ele>462.19999999999993</ele><time>2026-04-12T13:33:41.95Z</time></trkpt><trkpt lat="43.784429" lon="11.4987569"><ele>461.8</ele><time>2026-04-12T13:33:42.95Z</time></trkpt><trkpt lat="43.7843793" lon="11.4986193"><ele>461.4</ele><time>2026-04-12T13:33:43.949Z</time></trkpt><trkpt lat="43.7843179" lon="11.4984971"><ele>461.0</ele><time>2026-04-12T13:33:44.95Z</time></trkpt><trkpt lat="43.7842538" lon="11.4983883"><ele>460.8</ele><time>2026-04-12T13:33:45.95Z</time></trkpt><trkpt lat="43.784188" lon="11.4982854"><ele>460.6</ele><time>2026-04-12T13:33:46.949Z</time></trkpt><trkpt lat="43.78412" lon="11.4981952"><ele>460.4</ele><time>2026-04-12T13:33:47.95Z</time></trkpt><trkpt lat="43.7840416" lon="11.4980885"><ele>460.2</ele><time>2026-04-12T13:33:48.949Z</time></trkpt><trkpt lat="43.7839584" lon="11.4979875"><ele>460.0</ele><time>2026-04-12T13:33:49.951Z</time></trkpt><trkpt lat="43.783876" lon="11.4978897"><ele>459.50000000000006</ele><time>2026-04-12T13:33:50.949Z</time></trkpt><trkpt lat="43.7838162" lon="11.4978049"><ele>459.0</ele><time>2026-04-12T13:33:51.95Z</time></trkpt><trkpt lat="43.7837737" lon="11.4977141"><ele>458.5</ele><time>2026-04-12T13:33:52.949Z</time></trkpt><trkpt lat="43.7837469" lon="11.4976112"><ele>458.0</ele><time>2026-04-12T13:33:53.95Z</time></trkpt><trkpt lat="43.78374" lon="11.4974924"><ele>457.50000000000006</ele><time>2026-04-12T13:33:54.95Z</time></trkpt><trkpt lat="43.7837612" lon="11.4973596"><ele>457.0</ele><time>2026-04-12T13:33:55.949Z</time></trkpt><trkpt lat="43.7838092" lon="11.4972362"><ele>457.0</ele><time>2026-04-12T13:33:56.95Z</time></trkpt><trkpt lat="43.7838607" lon="11.4971191"><ele>457.00000000000006</ele><time>2026-04-12T13:33:57.951Z</time></trkpt><trkpt lat="43.7839032" lon="11.4970009"><ele>457.00000000000006</ele><time>2026-04-12T13:33:58.949Z</time></trkpt><trkpt lat="43.7839435" lon="11.4968867"><ele>457.0</ele><time>2026-04-12T13:33:59.95Z</time></trkpt><trkpt lat="43.7839847" lon="11.4967569"><ele>457.0</ele><time>2026-04-12T13:34:00.95Z</time></trkpt><trkpt lat="43.7840121" lon="11.4966097"><ele>455.75</ele><time>2026-04-12T13:34:01.95Z</time></trkpt><trkpt lat="43.7840314" lon="11.4964485"><ele>454.5</ele><time>2026-04-12T13:34:02.949Z</time></trkpt><trkpt lat="43.7840371" lon="11.4962909"><ele>453.25</ele><time>2026-04-12T13:34:03.949Z</time></trkpt><trkpt lat="43.7840317" lon="11.4961217"><ele>452.0</ele><time>2026-04-12T13:34:04.949Z</time></trkpt><trkpt lat="43.7840136" lon="11.4959482"><ele>450.25</ele><time>2026-04-12T13:34:05.949Z</time></trkpt><trkpt lat="43.78399" lon="11.4957805"><ele>448.5</ele><time>2026-04-12T13:34:06.95Z</time></trkpt><trkpt lat="43.7839606" lon="11.4956096"><ele>446.75</ele><time>2026-04-12T13:34:07.949Z</time></trkpt><trkpt lat="43.783924" lon="11.4954564"><ele>445.0</ele><time>2026-04-12T13:34:08.95Z</time></trkpt><trkpt lat="43.7838851" lon="11.4953121"><ele>443.8</ele><time>2026-04-12T13:34:09.949Z</time></trkpt><trkpt lat="43.7838461" lon="11.4951757"><ele>442.6</ele><time>2026-04-12T13:34:10.95Z</time></trkpt><trkpt lat="43.7838101" lon="11.4950473"><ele>441.4</ele><time>2026-04-12T13:34:11.95Z</time></trkpt><trkpt lat="43.7837682" lon="11.4949234"><ele>440.2</ele><time>2026-04-12T13:34:12.949Z</time></trkpt><trkpt lat="43.7837376" lon="11.4947949"><ele>439.0</ele><time>2026-04-12T13:34:13.949Z</time></trkpt><trkpt lat="43.7837175" lon="11.4946453"><ele>438.2</ele><time>2026-04-12T13:34:14.949Z</time></trkpt><trkpt lat="43.7837085" lon="11.4944919"><ele>437.4</ele><time>2026-04-12T13:34:15.95Z</time></trkpt><trkpt lat="43.7836947" lon="11.4943448"><ele>436.6</ele><time>2026-04-12T13:34:16.949Z</time></trkpt><trkpt lat="43.7836612" lon="11.4941986"><ele>435.8</ele><time>2026-04-12T13:34:17.949Z</time></trkpt><trkpt lat="43.783606" lon="11.4940599"><ele>435.0</ele><time>2026-04-12T13:34:18.949Z</time></trkpt><trkpt lat="43.7835304" lon="11.4939373"><ele>432.5</ele><time>2026-04-12T13:34:19.95Z</time></trkpt><trkpt lat="43.7834505" lon="11.4938258"><ele>430.0</ele><time>2026-04-12T13:34:20.949Z</time></trkpt><trkpt lat="43.7833602" lon="11.493723"><ele>427.5</ele><time>2026-04-12T13:34:21.949Z</time></trkpt><trkpt lat="43.7832738" lon="11.4936256"><ele>425.0</ele><time>2026-04-12T13:34:22.95Z</time></trkpt><trkpt lat="43.7831891" lon="11.4935312"><ele>425.0</ele><time>2026-04-12T13:34:23.95Z</time></trkpt><trkpt lat="43.7831093" lon="11.4934441"><ele>425.0</ele><time>2026-04-12T13:34:24.948Z</time></trkpt><trkpt lat="43.7830301" lon="11.4933581"><ele>425.0</ele><time>2026-04-12T13:34:25.95Z</time></trkpt><trkpt lat="43.7829525" lon="11.4932765"><ele>425.0</ele><time>2026-04-12T13:34:26.949Z</time></trkpt><trkpt lat="43.7828868" lon="11.4931819"><ele>425.0</ele><time>2026-04-12T13:34:27.95Z</time></trkpt><trkpt lat="43.7828371" lon="11.4930757"><ele>425.0</ele><time>2026-04-12T13:34:28.949Z</time></trkpt><trkpt lat="43.7828038" lon="11.4929562"><ele>425.0</ele><time>2026-04-12T13:34:29.949Z</time></trkpt><trkpt lat="43.7827926" lon="11.4928277"><ele>425.0</ele><time>2026-04-12T13:34:30.95Z</time></trkpt><trkpt lat="43.7827933" lon="11.4926869"><ele>425.0</ele><time>2026-04-12T13:34:31.95Z</time></trkpt><trkpt lat="43.7827988" lon="11.4925443"><ele>425.0</ele><time>2026-04-12T13:34:32.949Z</time></trkpt><trkpt lat="43.7828008" lon="11.4924097"><ele>424.0</ele><time>2026-04-12T13:34:33.948Z</time></trkpt><trkpt lat="43.7828008" lon="11.4922691"><ele>423.0</ele><time>2026-04-12T13:34:34.95Z</time></trkpt><trkpt lat="43.7827966" lon="11.492112"><ele>422.0</ele><time>2026-04-12T13:34:35.951Z</time></trkpt><trkpt lat="43.7827832" lon="11.4919419"><ele>421.0</ele><time>2026-04-12T13:34:36.949Z</time></trkpt><trkpt lat="43.7827578" lon="11.4917641"><ele>419.25</ele><time>2026-04-12T13:34:37.951Z</time></trkpt><trkpt lat="43.7827286" lon="11.4915954"><ele>417.5</ele><time>2026-04-12T13:34:38.948Z</time></trkpt><trkpt lat="43.7827042" lon="11.4914354"><ele>415.75</ele><time>2026-04-12T13:34:39.949Z</time></trkpt><trkpt lat="43.7826776" lon="11.4912787"><ele>414.0</ele><time>2026-04-12T13:34:40.95Z</time></trkpt><trkpt lat="43.7826483" lon="11.4911234"><ele>410.5</ele><time>2026-04-12T13:34:41.95Z</time></trkpt><trkpt lat="43.7826156" lon="11.4909641"><ele>407.0</ele><time>2026-04-12T13:34:42.949Z</time></trkpt><trkpt lat="43.7825685" lon="11.4907947"><ele>403.5</ele><time>2026-04-12T13:34:43.949Z</time></trkpt><trkpt lat="43.7825101" lon="11.4906321"><ele>400.0</ele><time>2026-04-12T13:34:44.95Z</time></trkpt><trkpt lat="43.7824423" lon="11.4904755"><ele>400.0</ele><time>2026-04-12T13:34:45.95Z</time></trkpt><trkpt lat="43.78236" lon="11.4903357"><ele>400.0</ele><time>2026-04-12T13:34:46.95Z</time></trkpt><trkpt lat="43.7822663" lon="11.4902161"><ele>400.0</ele><time>2026-04-12T13:34:47.949Z</time></trkpt><trkpt lat="43.7821603" lon="11.4901181"><ele>400.0</ele><time>2026-04-12T13:34:48.95Z</time></trkpt><trkpt lat="43.782058" lon="11.4900305"><ele>400.0</ele><time>2026-04-12T13:34:49.949Z</time></trkpt><trkpt lat="43.7819583" lon="11.4899466"><ele>400.0</ele><time>2026-04-12T13:34:50.95Z</time></trkpt><trkpt lat="43.7818658" lon="11.4898669"><ele>400.0</ele><time>2026-04-12T13:34:51.95Z</time></trkpt><trkpt lat="43.7817774" lon="11.4897928"><ele>400.0</ele><time>2026-04-12T13:34:52.95Z</time></trkpt><trkpt lat="43.7816863" lon="11.4897198"><ele>400.0</ele><time>2026-04-12T13:34:53.948Z</time></trkpt><trkpt lat="43.781592" lon="11.4896405"><ele>400.0</ele><time>2026-04-12T13:34:54.948Z</time></trkpt><trkpt lat="43.781494" lon="11.4895456"><ele>400.0</ele><time>2026-04-12T13:34:55.95Z</time></trkpt><trkpt lat="43.7813936" lon="11.4894502"><ele>400.0</ele><time>2026-04-12T13:34:56.95Z</time></trkpt><trkpt lat="43.7813011" lon="11.4893407"><ele>400.0</ele><time>2026-04-12T13:34:57.95Z</time></trkpt><trkpt lat="43.7812281" lon="11.4892096"><ele>400.0</ele><time>2026-04-12T13:34:58.949Z</time></trkpt><trkpt lat="43.7811733" lon="11.489096"><ele>400.0</ele><time>2026-04-12T13:34:59.949Z</time></trkpt><trkpt lat="43.7811214" lon="11.4889758"><ele>400.0</ele><time>2026-04-12T13:35:00.95Z</time></trkpt><trkpt lat="43.7810719" lon="11.4888562"><ele>400.0</ele><time>2026-04-12T13:35:01.948Z</time></trkpt><trkpt lat="43.7810254" lon="11.4887303"><ele>400.0</ele><time>2026-04-12T13:35:02.95Z</time></trkpt><trkpt lat="43.7809832" lon="11.4885902"><ele>396.5</ele><time>2026-04-12T13:35:03.95Z</time></trkpt><trkpt lat="43.7809614" lon="11.4884361"><ele>393.0</ele><time>2026-04-12T13:35:04.949Z</time></trkpt><trkpt lat="43.7809633" lon="11.4882955"><ele>389.5</ele><time>2026-04-12T13:35:05.95Z</time></trkpt><trkpt lat="43.7809771" lon="11.488136"><ele>386.0</ele><time>2026-04-12T13:35:06.949Z</time></trkpt><trkpt lat="43.7810095" lon="11.4879701"><ele>385.75</ele><time>2026-04-12T13:35:07.95Z</time></trkpt><trkpt lat="43.7810563" lon="11.4877966"><ele>385.5</ele><time>2026-04-12T13:35:08.95Z</time></trkpt><trkpt lat="43.7811034" lon="11.4876179"><ele>385.25</ele><time>2026-04-12T13:35:09.95Z</time></trkpt><trkpt lat="43.7811346" lon="11.4874383"><ele>385.0</ele><time>2026-04-12T13:35:10.95Z</time></trkpt><trkpt lat="43.7811592" lon="11.4872602"><ele>383.25</ele><time>2026-04-12T13:35:11.95Z</time></trkpt><trkpt lat="43.7811805" lon="11.4870679"><ele>381.5</ele><time>2026-04-12T13:35:12.948Z</time></trkpt><trkpt lat="43.7812012" lon="11.4868712"><ele>379.75</ele><time>2026-04-12T13:35:13.949Z</time></trkpt><trkpt lat="43.7812211" lon="11.4866644"><ele>378.0</ele><time>2026-04-12T13:35:14.95Z</time></trkpt><trkpt lat="43.7812401" lon="11.4864713"><ele>378.0</ele><time>2026-04-12T13:35:15.949Z</time></trkpt><trkpt lat="43.7812505" lon="11.4862838"><ele>378.0</ele><time>2026-04-12T13:35:16.95Z</time></trkpt><trkpt lat="43.7812395" lon="11.4861092"><ele>378.0</ele><time>2026-04-12T13:35:17.949Z</time></trkpt><trkpt lat="43.7812085" lon="11.4859435"><ele>378.0</ele><time>2026-04-12T13:35:18.95Z</time></trkpt><trkpt lat="43.7811569" lon="11.4857907"><ele>377.5</ele><time>2026-04-12T13:35:19.95Z</time></trkpt><trkpt lat="43.7810957" lon="11.4856549"><ele>377.0</ele><time>2026-04-12T13:35:20.948Z</time></trkpt><trkpt lat="43.7810346" lon="11.4855223"><ele>376.5</ele><time>2026-04-12T13:35:21.95Z</time></trkpt><trkpt lat="43.7809726" lon="11.4853884"><ele>376.0</ele><time>2026-04-12T13:35:22.949Z</time></trkpt><trkpt lat="43.7809148" lon="11.4852409"><ele>372.75</ele><time>2026-04-12T13:35:23.95Z</time></trkpt><trkpt lat="43.7808588" lon="11.4850816"><ele>369.5</ele><time>2026-04-12T13:35:24.949Z</time></trkpt><trkpt lat="43.7808056" lon="11.484921"><ele>366.25</ele><time>2026-04-12T13:35:25.95Z</time></trkpt><trkpt lat="43.7807543" lon="11.4847685"><ele>363.0</ele><time>2026-04-12T13:35:26.948Z</time></trkpt><trkpt lat="43.7807031" lon="11.4846255"><ele>362.59999999999997</ele><time>2026-04-12T13:35:27.95Z</time></trkpt><trkpt lat="43.7806528" lon="11.4844804"><ele>362.2</ele><time>2026-04-12T13:35:28.95Z</time></trkpt><trkpt lat="43.7806066" lon="11.4843446"><ele>361.8</ele><time>2026-04-12T13:35:29.95Z</time></trkpt><trkpt lat="43.7805621" lon="11.4842114"><ele>361.4</ele><time>2026-04-12T13:35:30.948Z</time></trkpt><trkpt lat="43.7805218" lon="11.4840779"><ele>361.0</ele><time>2026-04-12T13:35:31.949Z</time></trkpt><trkpt lat="43.7804876" lon="11.4839421"><ele>361.0</ele><time>2026-04-12T13:35:32.95Z</time></trkpt><trkpt lat="43.7804658" lon="11.4837974"><ele>361.0</ele><time>2026-04-12T13:35:33.949Z</time></trkpt><trkpt lat="43.7804571" lon="11.483626"><ele>361.0</ele><time>2026-04-12T13:35:34.949Z</time></trkpt><trkpt lat="43.7804457" lon="11.4834299"><ele>361.0</ele><time>2026-04-12T13:35:35.95Z</time></trkpt><trkpt lat="43.780428" lon="11.4832362"><ele>359.66666666666663</ele><time>2026-04-12T13:35:36.95Z</time></trkpt><trkpt lat="43.7803857" lon="11.4830482"><ele>358.3333333333333</ele><time>2026-04-12T13:35:37.948Z</time></trkpt><trkpt lat="43.7803084" lon="11.4828621"><ele>357.0</ele><time>2026-04-12T13:35:38.95Z</time></trkpt><trkpt lat="43.7802132" lon="11.4826867"><ele>351.6666666666667</ele><time>2026-04-12T13:35:39.95Z</time></trkpt><trkpt lat="43.7801195" lon="11.4825129"><ele>346.33333333333337</ele><time>2026-04-12T13:35:40.951Z</time></trkpt><trkpt lat="43.7800299" lon="11.4823462"><ele>341.0</ele><time>2026-04-12T13:35:41.949Z</time></trkpt><trkpt lat="43.7799425" lon="11.4821865"><ele>341.25</ele><time>2026-04-12T13:35:42.949Z</time></trkpt><trkpt lat="43.7798548" lon="11.4820319"><ele>341.5</ele><time>2026-04-12T13:35:43.948Z</time></trkpt><trkpt lat="43.7797695" lon="11.4818804"><ele>341.75</ele><time>2026-04-12T13:35:44.949Z</time></trkpt><trkpt lat="43.7796862" lon="11.4817296"><ele>342.0</ele><time>2026-04-12T13:35:45.95Z</time></trkpt><trkpt lat="43.7796002" lon="11.4815801"><ele>342.0</ele><time>2026-04-12T13:35:46.95Z</time></trkpt><trkpt lat="43.7795181" lon="11.4814373"><ele>342.0</ele><time>2026-04-12T13:35:47.949Z</time></trkpt><trkpt lat="43.7794317" lon="11.4813052"><ele>342.0</ele><time>2026-04-12T13:35:48.949Z</time></trkpt><trkpt lat="43.7793305" lon="11.4812022"><ele>342.0</ele><time>2026-04-12T13:35:49.95Z</time></trkpt><trkpt lat="43.7792239" lon="11.4811278"><ele>340.25</ele><time>2026-04-12T13:35:50.95Z</time></trkpt><trkpt lat="43.7791172" lon="11.4810711"><ele>338.5</ele><time>2026-04-12T13:35:51.95Z</time></trkpt><trkpt lat="43.7790087" lon="11.4810131"><ele>336.75</ele><time>2026-04-12T13:35:52.95Z</time></trkpt><trkpt lat="43.7789075" lon="11.4809425"><ele>335.0</ele><time>2026-04-12T13:35:53.949Z</time></trkpt><trkpt lat="43.7788112" lon="11.4808779"><ele>335.0</ele><time>2026-04-12T13:35:54.95Z</time></trkpt><trkpt lat="43.7787105" lon="11.4807982"><ele>335.0</ele><time>2026-04-12T13:35:55.95Z</time></trkpt><trkpt lat="43.7786078" lon="11.4806865"><ele>335.0</ele><time>2026-04-12T13:35:56.948Z</time></trkpt><trkpt lat="43.7785066" lon="11.4805501"><ele>335.0</ele><time>2026-04-12T13:35:57.949Z</time></trkpt><trkpt lat="43.7784257" lon="11.4803939"><ele>332.5</ele><time>2026-04-12T13:35:58.95Z</time></trkpt><trkpt lat="43.7783374" lon="11.4802426"><ele>330.0</ele><time>2026-04-12T13:35:59.95Z</time></trkpt><trkpt lat="43.7782582" lon="11.480093"><ele>327.5</ele><time>2026-04-12T13:36:00.948Z</time></trkpt><trkpt lat="43.7781831" lon="11.479958"><ele>325.0</ele><time>2026-04-12T13:36:01.949Z</time></trkpt><trkpt lat="43.778122" lon="11.4798291"><ele>325.0</ele><time>2026-04-12T13:36:02.949Z</time></trkpt><trkpt lat="43.7780636" lon="11.4797105"><ele>325.0</ele><time>2026-04-12T13:36:03.95Z</time></trkpt><trkpt lat="43.778008" lon="11.4795978"><ele>325.0</ele><time>2026-04-12T13:36:04.949Z</time></trkpt><trkpt lat="43.7779491" lon="11.4794918"><ele>325.0</ele><time>2026-04-12T13:36:05.949Z</time></trkpt><trkpt lat="43.7778891" lon="11.4793945"><ele>325.0</ele><time>2026-04-12T13:36:06.95Z</time></trkpt><trkpt lat="43.7778167" lon="11.4793138"><ele>326.2</ele><time>2026-04-12T13:36:07.95Z</time></trkpt><trkpt lat="43.7777198" lon="11.4792571"><ele>327.4</ele><time>2026-04-12T13:36:08.95Z</time></trkpt><trkpt lat="43.7776116" lon="11.4792311"><ele>328.6</ele><time>2026-04-12T13:36:09.949Z</time></trkpt><trkpt lat="43.7775068" lon="11.4792135"><ele>329.8</ele><time>2026-04-12T13:36:10.95Z</time></trkpt><trkpt lat="43.7774003" lon="11.4791977"><ele>331.0</ele><time>2026-04-12T13:36:11.95Z</time></trkpt><trkpt lat="43.7773035" lon="11.4791793"><ele>327.5</ele><time>2026-04-12T13:36:12.948Z</time></trkpt><trkpt lat="43.7772026" lon="11.4791548"><ele>324.0</ele><time>2026-04-12T13:36:13.95Z</time></trkpt><trkpt lat="43.7770935" lon="11.4791302"><ele>320.5</ele><time>2026-04-12T13:36:14.949Z</time></trkpt><trkpt lat="43.7769727" lon="11.4790983"><ele>317.0</ele><time>2026-04-12T13:36:15.949Z</time></trkpt><trkpt lat="43.7768558" lon="11.4790682"><ele>315.4</ele><time>2026-04-12T13:36:16.95Z</time></trkpt><trkpt lat="43.7767457" lon="11.4790371"><ele>313.79999999999995</ele><time>2026-04-12T13:36:17.949Z</time></trkpt><trkpt lat="43.7766548" lon="11.4790135"><ele>312.2</ele><time>2026-04-12T13:36:18.949Z</time></trkpt><trkpt lat="43.7765744" lon="11.4789537"><ele>310.59999999999997</ele><time>2026-04-12T13:36:19.95Z</time></trkpt><trkpt lat="43.7765104" lon="11.4788631"><ele>309.0</ele><time>2026-04-12T13:36:20.949Z</time></trkpt><trkpt lat="43.7764682" lon="11.4787425"><ele>309.0</ele><time>2026-04-12T13:36:21.949Z</time></trkpt><trkpt lat="43.7764319" lon="11.4786003"><ele>309.0</ele><time>2026-04-12T13:36:22.949Z</time></trkpt><trkpt lat="43.7764016" lon="11.47845"><ele>309.0</ele><time>2026-04-12T13:36:23.949Z</time></trkpt><trkpt lat="43.7763718" lon="11.4783016"><ele>309.0</ele><time>2026-04-12T13:36:24.95Z</time></trkpt><trkpt lat="43.7763376" lon="11.478152"><ele>309.0</ele><time>2026-04-12T13:36:25.95Z</time></trkpt><trkpt lat="43.7762951" lon="11.4780094"><ele>309.0</ele><time>2026-04-12T13:36:26.948Z</time></trkpt><trkpt lat="43.7762439" lon="11.4778774"><ele>309.0</ele><time>2026-04-12T13:36:27.95Z</time></trkpt><trkpt lat="43.7761806" lon="11.4777542"><ele>309.0</ele><time>2026-04-12T13:36:28.949Z</time></trkpt><trkpt lat="43.7761099" lon="11.4776404"><ele>309.0</ele><time>2026-04-12T13:36:29.95Z</time></trkpt><trkpt lat="43.7760436" lon="11.4775347"><ele>309.0</ele><time>2026-04-12T13:36:30.95Z</time></trkpt><trkpt lat="43.7759741" lon="11.4774334"><ele>306.0</ele><time>2026-04-12T13:36:31.95Z</time></trkpt><trkpt lat="43.7759001" lon="11.4773317"><ele>303.0</ele><time>2026-04-12T13:36:32.95Z</time></trkpt><trkpt lat="43.7758101" lon="11.4772348"><ele>300.0</ele><time>2026-04-12T13:36:33.95Z</time></trkpt><trkpt lat="43.7757092" lon="11.4771475"><ele>297.0</ele><time>2026-04-12T13:36:34.95Z</time></trkpt><trkpt lat="43.7755955" lon="11.477066"><ele>297.0</ele><time>2026-04-12T13:36:35.95Z</time></trkpt><trkpt lat="43.7754836" lon="11.4769952"><ele>297.0</ele><time>2026-04-12T13:36:36.947Z</time></trkpt><trkpt lat="43.7753752" lon="11.476929"><ele>297.0</ele><time>2026-04-12T13:36:37.95Z</time></trkpt><trkpt lat="43.7752687" lon="11.4768635"><ele>297.0</ele><time>2026-04-12T13:36:38.95Z</time></trkpt><trkpt lat="43.7751564" lon="11.4767949"><ele>295.0</ele><time>2026-04-12T13:36:39.949Z</time></trkpt><trkpt lat="43.7750418" lon="11.4767223"><ele>293.0</ele><time>2026-04-12T13:36:40.949Z</time></trkpt><trkpt lat="43.7749274" lon="11.4766505"><ele>291.0</ele><time>2026-04-12T13:36:41.949Z</time></trkpt><trkpt lat="43.7748102" lon="11.4765808"><ele>289.0</ele><time>2026-04-12T13:36:42.95Z</time></trkpt><trkpt lat="43.7746868" lon="11.4765044"><ele>289.0</ele><time>2026-04-12T13:36:43.948Z</time></trkpt><trkpt lat="43.7745642" lon="11.4764301"><ele>289.0</ele><time>2026-04-12T13:36:44.949Z</time></trkpt><trkpt lat="43.7744503" lon="11.476351"><ele>289.0</ele><time>2026-04-12T13:36:45.949Z</time></trkpt><trkpt lat="43.7743444" lon="11.4762507"><ele>289.0</ele><time>2026-04-12T13:36:46.949Z</time></trkpt><trkpt lat="43.7742294" lon="11.4761348"><ele>287.75</ele><time>2026-04-12T13:36:47.949Z</time></trkpt><trkpt lat="43.7741157" lon="11.4760044"><ele>286.5</ele><time>2026-04-12T13:36:48.95Z</time></trkpt><trkpt lat="43.7739998" lon="11.4758687"><ele>285.25</ele><time>2026-04-12T13:36:49.95Z</time></trkpt><trkpt lat="43.7738884" lon="11.47574"><ele>284.0</ele><time>2026-04-12T13:36:50.95Z</time></trkpt><trkpt lat="43.7737833" lon="11.4756162"><ele>284.0</ele><time>2026-04-12T13:36:51.949Z</time></trkpt><trkpt lat="43.7736904" lon="11.4755054"><ele>284.0</ele><time>2026-04-12T13:36:52.949Z</time></trkpt><trkpt lat="43.7736031" lon="11.475392"><ele>284.0</ele><time>2026-04-12T13:36:53.949Z</time></trkpt><trkpt lat="43.7735232" lon="11.4752753"><ele>284.0</ele><time>2026-04-12T13:36:54.95Z</time></trkpt><trkpt lat="43.7734531" lon="11.4751437"><ele>281.75</ele><time>2026-04-12T13:36:55.95Z</time></trkpt><trkpt lat="43.7733996" lon="11.4749898"><ele>279.5</ele><time>2026-04-12T13:36:56.949Z</time></trkpt><trkpt lat="43.7733632" lon="11.4748149"><ele>277.25</ele><time>2026-04-12T13:36:57.949Z</time></trkpt><trkpt lat="43.7733328" lon="11.4746374"><ele>275.0</ele><time>2026-04-12T13:36:58.948Z</time></trkpt><trkpt lat="43.7732993" lon="11.4744761"><ele>274.6</ele><time>2026-04-12T13:36:59.949Z</time></trkpt><trkpt lat="43.773263" lon="11.47433"><ele>274.2</ele><time>2026-04-12T13:37:00.95Z</time></trkpt><trkpt lat="43.7732326" lon="11.4741878"><ele>273.8</ele><time>2026-04-12T13:37:01.95Z</time></trkpt><trkpt lat="43.7732008" lon="11.4740507"><ele>273.4</ele><time>2026-04-12T13:37:02.949Z</time></trkpt><trkpt lat="43.7731709" lon="11.4739073"><ele>273.0</ele><time>2026-04-12T13:37:03.949Z</time></trkpt><trkpt lat="43.7731338" lon="11.4737606"><ele>272.75</ele><time>2026-04-12T13:37:04.949Z</time></trkpt><trkpt lat="43.7730719" lon="11.4736172"><ele>272.5</ele><time>2026-04-12T13:37:05.95Z</time></trkpt><trkpt lat="43.7729907" lon="11.473491"><ele>272.25</ele><time>2026-04-12T13:37:06.949Z</time></trkpt><trkpt lat="43.7728981" lon="11.4733778"><ele>272.0</ele><time>2026-04-12T13:37:07.949Z</time></trkpt><trkpt lat="43.772801" lon="11.473269"><ele>272.0</ele><time>2026-04-12T13:37:08.95Z</time></trkpt><trkpt lat="43.7726971" lon="11.4731572"><ele>272.0</ele><time>2026-04-12T13:37:09.95Z</time></trkpt><trkpt lat="43.7725871" lon="11.4730455"><ele>272.0</ele><time>2026-04-12T13:37:10.949Z</time></trkpt><trkpt lat="43.7724921" lon="11.4729402"><ele>272.0</ele><time>2026-04-12T13:37:11.95Z</time></trkpt><trkpt lat="43.7723987" lon="11.4728409"><ele>270.6</ele><time>2026-04-12T13:37:12.948Z</time></trkpt><trkpt lat="43.7723106" lon="11.4727561"><ele>269.2</ele><time>2026-04-12T13:37:13.949Z</time></trkpt><trkpt lat="43.7722242" lon="11.4726738"><ele>267.8</ele><time>2026-04-12T13:37:14.948Z</time></trkpt><trkpt lat="43.7721204" lon="11.4726198"><ele>266.4</ele><time>2026-04-12T13:37:15.949Z</time></trkpt><trkpt lat="43.7720051" lon="11.4725859"><ele>265.0</ele><time>2026-04-12T13:37:16.949Z</time></trkpt><trkpt lat="43.7718898" lon="11.472583"><ele>263.0</ele><time>2026-04-12T13:37:17.95Z</time></trkpt><trkpt lat="43.771775" lon="11.4725854"><ele>261.0</ele><time>2026-04-12T13:37:18.948Z</time></trkpt><trkpt lat="43.7716636" lon="11.4725957"><ele>259.0</ele><time>2026-04-12T13:37:19.949Z</time></trkpt><trkpt lat="43.7715613" lon="11.472626"><ele>257.0</ele><time>2026-04-12T13:37:20.949Z</time></trkpt><trkpt lat="43.771463" lon="11.4726589"><ele>255.0</ele><time>2026-04-12T13:37:21.949Z</time></trkpt><trkpt lat="43.7713786" lon="11.4726852"><ele>255.0</ele><time>2026-04-12T13:37:22.95Z</time></trkpt><trkpt lat="43.7712945" lon="11.4727138"><ele>255.0</ele><time>2026-04-12T13:37:23.948Z</time></trkpt><trkpt lat="43.7712133" lon="11.4727344"><ele>255.0</ele><time>2026-04-12T13:37:24.95Z</time></trkpt><trkpt lat="43.7711326" lon="11.4727417"><ele>255.0</ele><time>2026-04-12T13:37:25.95Z</time></trkpt><trkpt lat="43.7710467" lon="11.4727022"><ele>255.0</ele><time>2026-04-12T13:37:26.95Z</time></trkpt><trkpt lat="43.7709668" lon="11.4726199"><ele>255.0</ele><time>2026-04-12T13:37:27.949Z</time></trkpt><trkpt lat="43.7708908" lon="11.4725165"><ele>252.8</ele><time>2026-04-12T13:37:28.948Z</time></trkpt><trkpt lat="43.7708243" lon="11.4724167"><ele>250.6</ele><time>2026-04-12T13:37:29.949Z</time></trkpt><trkpt lat="43.7707541" lon="11.4723281"><ele>248.39999999999998</ele><time>2026-04-12T13:37:30.949Z</time></trkpt><trkpt lat="43.7706853" lon="11.4722503"><ele>246.2</ele><time>2026-04-12T13:37:31.949Z</time></trkpt><trkpt lat="43.7706057" lon="11.4721785"><ele>244.0</ele><time>2026-04-12T13:37:32.949Z</time></trkpt><trkpt lat="43.7705086" lon="11.4721182"><ele>244.75</ele><time>2026-04-12T13:37:33.95Z</time></trkpt><trkpt lat="43.7703964" lon="11.4720564"><ele>245.5</ele><time>2026-04-12T13:37:34.949Z</time></trkpt><trkpt lat="43.7702829" lon="11.4719953"><ele>246.25</ele><time>2026-04-12T13:37:35.952Z</time></trkpt><trkpt lat="43.7701765" lon="11.4719359"><ele>247.0</ele><time>2026-04-12T13:37:36.949Z</time></trkpt><trkpt lat="43.7700789" lon="11.471881"><ele>245.0</ele><time>2026-04-12T13:37:37.951Z</time></trkpt><trkpt lat="43.76999" lon="11.471817"><ele>243.0</ele><time>2026-04-12T13:37:38.95Z</time></trkpt><trkpt lat="43.769906" lon="11.4717313"><ele>241.0</ele><time>2026-04-12T13:37:39.948Z</time></trkpt><trkpt lat="43.7698222" lon="11.4716319"><ele>239.0</ele><time>2026-04-12T13:37:40.95Z</time></trkpt><trkpt lat="43.7697418" lon="11.4715289"><ele>237.0</ele><time>2026-04-12T13:37:41.949Z</time></trkpt><trkpt lat="43.7696684" lon="11.4714291"><ele>237.0</ele><time>2026-04-12T13:37:42.949Z</time></trkpt><trkpt lat="43.7696058" lon="11.4713486"><ele>237.0</ele><time>2026-04-12T13:37:43.949Z</time></trkpt><trkpt lat="43.7695503" lon="11.4712729"><ele>237.0</ele><time>2026-04-12T13:37:44.95Z</time></trkpt><trkpt lat="43.7695056" lon="11.4711935"><ele>237.0</ele><time>2026-04-12T13:37:45.95Z</time></trkpt><trkpt lat="43.7694779" lon="11.4711013"><ele>237.0</ele><time>2026-04-12T13:37:46.948Z</time></trkpt><trkpt lat="43.7694778" lon="11.4709966"><ele>237.0</ele><time>2026-04-12T13:37:47.95Z</time></trkpt><trkpt lat="43.7694947" lon="11.4708954"><ele>236.0</ele><time>2026-04-12T13:37:48.949Z</time></trkpt><trkpt lat="43.7695543" lon="11.4708066"><ele>235.0</ele><time>2026-04-12T13:37:49.949Z</time></trkpt><trkpt lat="43.7696299" lon="11.4707494"><ele>234.0</ele><time>2026-04-12T13:37:50.95Z</time></trkpt><trkpt lat="43.7697194" lon="11.4707237"><ele>233.0</ele><time>2026-04-12T13:37:51.95Z</time></trkpt><trkpt lat="43.7698168" lon="11.4707255"><ele>232.0</ele><time>2026-04-12T13:37:52.95Z</time></trkpt><trkpt lat="43.7699115" lon="11.4707273"><ele>232.0</ele><time>2026-04-12T13:37:53.95Z</time></trkpt><trkpt lat="43.7700022" lon="11.4707298"><ele>232.0</ele><time>2026-04-12T13:37:54.95Z</time></trkpt><trkpt lat="43.7700897" lon="11.4707268"><ele>232.0</ele><time>2026-04-12T13:37:55.949Z</time></trkpt><trkpt lat="43.7701833" lon="11.4706963"><ele>232.0</ele><time>2026-04-12T13:37:56.95Z</time></trkpt><trkpt lat="43.7702737" lon="11.4706352"><ele>232.0</ele><time>2026-04-12T13:37:57.948Z</time></trkpt><trkpt lat="43.7703531" lon="11.4705445"><ele>230.75</ele><time>2026-04-12T13:37:58.949Z</time></trkpt><trkpt lat="43.7704075" lon="11.4704272"><ele>229.5</ele><time>2026-04-12T13:37:59.949Z</time></trkpt><trkpt lat="43.7704419" lon="11.4702827"><ele>228.25</ele><time>2026-04-12T13:38:00.95Z</time></trkpt><trkpt lat="43.7704536" lon="11.4701126"><ele>227.0</ele><time>2026-04-12T13:38:01.95Z</time></trkpt><trkpt lat="43.7704518" lon="11.469942"><ele>227.0</ele><time>2026-04-12T13:38:02.949Z</time></trkpt><trkpt lat="43.7704492" lon="11.4697781"><ele>227.0</ele><time>2026-04-12T13:38:03.95Z</time></trkpt><trkpt lat="43.7704413" lon="11.4696043"><ele>227.0</ele><time>2026-04-12T13:38:04.948Z</time></trkpt><trkpt lat="43.7704336" lon="11.4694168"><ele>227.0</ele><time>2026-04-12T13:38:05.949Z</time></trkpt><trkpt lat="43.7704232" lon="11.4692361"><ele>225.25</ele><time>2026-04-12T13:38:06.948Z</time></trkpt><trkpt lat="43.7704149" lon="11.4690626"><ele>223.5</ele><time>2026-04-12T13:38:07.949Z</time></trkpt><trkpt lat="43.7704053" lon="11.4688978"><ele>221.75</ele><time>2026-04-12T13:38:08.948Z</time></trkpt><trkpt lat="43.7703942" lon="11.4687375"><ele>220.0</ele><time>2026-04-12T13:38:09.95Z</time></trkpt><trkpt lat="43.7703846" lon="11.4685826"><ele>218.4</ele><time>2026-04-12T13:38:10.95Z</time></trkpt><trkpt lat="43.770378" lon="11.46843"><ele>216.8</ele><time>2026-04-12T13:38:11.949Z</time></trkpt><trkpt lat="43.7703667" lon="11.4682804"><ele>215.2</ele><time>2026-04-12T13:38:12.949Z</time></trkpt><trkpt lat="43.7703545" lon="11.4681382"><ele>213.6</ele><time>2026-04-12T13:38:13.95Z</time></trkpt><trkpt lat="43.7703454" lon="11.4680043"><ele>212.0</ele><time>2026-04-12T13:38:14.947Z</time></trkpt><trkpt lat="43.770331" lon="11.4678745"><ele>211.0</ele><time>2026-04-12T13:38:15.95Z</time></trkpt><trkpt lat="43.7703285" lon="11.4677433"><ele>210.0</ele><time>2026-04-12T13:38:16.949Z</time></trkpt><trkpt lat="43.7703216" lon="11.4676076"><ele>209.0</ele><time>2026-04-12T13:38:17.949Z</time></trkpt><trkpt lat="43.7703201" lon="11.4674715"><ele>208.0</ele><time>2026-04-12T13:38:18.949Z</time></trkpt><trkpt lat="43.7703174" lon="11.4673209"><ele>207.0</ele><time>2026-04-12T13:38:19.95Z</time></trkpt><trkpt lat="43.7703257" lon="11.4671556"><ele>206.6</ele><time>2026-04-12T13:38:20.95Z</time></trkpt><trkpt lat="43.7703323" lon="11.4669821"><ele>206.2</ele><time>2026-04-12T13:38:21.95Z</time></trkpt><trkpt lat="43.7703383" lon="11.4668258"><ele>205.8</ele><time>2026-04-12T13:38:22.95Z</time></trkpt><trkpt lat="43.7703434" lon="11.4666831"><ele>205.4</ele><time>2026-04-12T13:38:23.949Z</time></trkpt><trkpt lat="43.7703479" lon="11.4665529"><ele>205.0</ele><time>2026-04-12T13:38:24.95Z</time></trkpt><trkpt lat="43.7703533" lon="11.4664275"><ele>204.99999999999997</ele><time>2026-04-12T13:38:25.95Z</time></trkpt><trkpt lat="43.7703582" lon="11.4663117"><ele>205.0</ele><time>2026-04-12T13:38:26.948Z</time></trkpt><trkpt lat="43.7703645" lon="11.4662011"><ele>205.0</ele><time>2026-04-12T13:38:27.949Z</time></trkpt><trkpt lat="43.7703856" lon="11.4661025"><ele>205.0</ele><time>2026-04-12T13:38:28.95Z</time></trkpt><trkpt lat="43.7704216" lon="11.4660066"><ele>204.99999999999997</ele><time>2026-04-12T13:38:29.949Z</time></trkpt><trkpt lat="43.7704513" lon="11.465917"><ele>205.0</ele><time>2026-04-12T13:38:30.95Z</time></trkpt><trkpt lat="43.7704598" lon="11.4658285"><ele>203.8</ele><time>2026-04-12T13:38:31.95Z</time></trkpt><trkpt lat="43.7704602" lon="11.4656547"><ele>202.6</ele><time>2026-04-12T13:38:33.949Z</time></trkpt><trkpt lat="43.7704691" lon="11.46556"><ele>201.39999999999998</ele><time>2026-04-12T13:38:34.95Z</time></trkpt><trkpt lat="43.7704891" lon="11.4654509"><ele>200.2</ele><time>2026-04-12T13:38:35.95Z</time></trkpt><trkpt lat="43.7705161" lon="11.465329"><ele>199.0</ele><time>2026-04-12T13:38:36.949Z</time></trkpt><trkpt lat="43.7705459" lon="11.4652121"><ele>198.66666666666666</ele><time>2026-04-12T13:38:37.949Z</time></trkpt><trkpt lat="43.7705758" lon="11.4651004"><ele>198.33333333333331</ele><time>2026-04-12T13:38:38.949Z</time></trkpt><trkpt lat="43.7706033" lon="11.4649934"><ele>198.0</ele><time>2026-04-12T13:38:39.95Z</time></trkpt><trkpt lat="43.7706331" lon="11.4649014"><ele>197.66666666666669</ele><time>2026-04-12T13:38:40.95Z</time></trkpt><trkpt lat="43.77066" lon="11.4648181"><ele>197.33333333333334</ele><time>2026-04-12T13:38:41.95Z</time></trkpt><trkpt lat="43.770685" lon="11.4647164"><ele>197.0</ele><time>2026-04-12T13:38:42.949Z</time></trkpt><trkpt lat="43.7707149" lon="11.4646105"><ele>196.16666666666669</ele><time>2026-04-12T13:38:43.949Z</time></trkpt><trkpt lat="43.7707362" lon="11.4644951"><ele>195.33333333333334</ele><time>2026-04-12T13:38:44.95Z</time></trkpt><trkpt lat="43.7707504" lon="11.4643756"><ele>194.5</ele><time>2026-04-12T13:38:45.949Z</time></trkpt><trkpt lat="43.7707575" lon="11.4642546"><ele>193.66666666666669</ele><time>2026-04-12T13:38:46.95Z</time></trkpt><trkpt lat="43.770761" lon="11.464136"><ele>192.83333333333334</ele><time>2026-04-12T13:38:47.95Z</time></trkpt><trkpt lat="43.7707604" lon="11.4640193"><ele>192.0</ele><time>2026-04-12T13:38:48.949Z</time></trkpt><trkpt lat="43.7707568" lon="11.4638928"><ele>191.2</ele><time>2026-04-12T13:38:49.95Z</time></trkpt><trkpt lat="43.7707535" lon="11.4637606"><ele>190.39999999999998</ele><time>2026-04-12T13:38:50.949Z</time></trkpt><trkpt lat="43.7707472" lon="11.463622"><ele>189.60000000000002</ele><time>2026-04-12T13:38:51.95Z</time></trkpt><trkpt lat="43.7707409" lon="11.4634829"><ele>188.8</ele><time>2026-04-12T13:38:52.949Z</time></trkpt><trkpt lat="43.7707333" lon="11.4633526"><ele>188.0</ele><time>2026-04-12T13:38:53.949Z</time></trkpt><trkpt lat="43.7707268" lon="11.4632122"><ele>188.0</ele><time>2026-04-12T13:38:54.949Z</time></trkpt><trkpt lat="43.7707243" lon="11.463068"><ele>188.0</ele><time>2026-04-12T13:38:55.949Z</time></trkpt><trkpt lat="43.7707178" lon="11.4629334"><ele>188.0</ele><time>2026-04-12T13:38:56.949Z</time></trkpt><trkpt lat="43.7707088" lon="11.4627957"><ele>188.0</ele><time>2026-04-12T13:38:57.95Z</time></trkpt><trkpt lat="43.7706987" lon="11.462638"><ele>188.0</ele><time>2026-04-12T13:38:58.949Z</time></trkpt><trkpt lat="43.7706863" lon="11.4624848"><ele>187.0</ele><time>2026-04-12T13:38:59.949Z</time></trkpt><trkpt lat="43.7706787" lon="11.4623568"><ele>186.0</ele><time>2026-04-12T13:39:00.948Z</time></trkpt><trkpt lat="43.7706751" lon="11.4622559"><ele>185.0</ele><time>2026-04-12T13:39:01.949Z</time></trkpt><trkpt lat="43.7706824" lon="11.4621631"><ele>184.0</ele><time>2026-04-12T13:39:02.95Z</time></trkpt><trkpt lat="43.7707098" lon="11.4620846"><ele>183.0</ele><time>2026-04-12T13:39:03.949Z</time></trkpt><trkpt lat="43.7707559" lon="11.4620157"><ele>182.0</ele><time>2026-04-12T13:39:04.949Z</time></trkpt><trkpt lat="43.7708358" lon="11.4619493"><ele>181.6</ele><time>2026-04-12T13:39:05.948Z</time></trkpt><trkpt lat="43.7709179" lon="11.4618838"><ele>181.2</ele><time>2026-04-12T13:39:06.949Z</time></trkpt><trkpt lat="43.7710041" lon="11.4618232"><ele>180.8</ele><time>2026-04-12T13:39:07.95Z</time></trkpt><trkpt lat="43.7710996" lon="11.461761"><ele>180.4</ele><time>2026-04-12T13:39:08.948Z</time></trkpt><trkpt lat="43.7711994" lon="11.4616942"><ele>180.0</ele><time>2026-04-12T13:39:09.949Z</time></trkpt><trkpt lat="43.7713077" lon="11.4616292"><ele>180.0</ele><time>2026-04-12T13:39:10.948Z</time></trkpt><trkpt lat="43.771411" lon="11.4615626"><ele>180.0</ele><time>2026-04-12T13:39:11.949Z</time></trkpt><trkpt lat="43.7715156" lon="11.461509"><ele>180.0</ele><time>2026-04-12T13:39:12.949Z</time></trkpt><trkpt lat="43.7716147" lon="11.4614623"><ele>180.0</ele><time>2026-04-12T13:39:13.948Z</time></trkpt><trkpt lat="43.7717153" lon="11.4614199"><ele>180.0</ele><time>2026-04-12T13:39:14.949Z</time></trkpt><trkpt lat="43.7718169" lon="11.4613836"><ele>180.6</ele><time>2026-04-12T13:39:15.949Z</time></trkpt><trkpt lat="43.7719165" lon="11.4613396"><ele>181.2</ele><time>2026-04-12T13:39:16.948Z</time></trkpt><trkpt lat="43.7720088" lon="11.4613079"><ele>181.8</ele><time>2026-04-12T13:39:17.95Z</time></trkpt><trkpt lat="43.7720993" lon="11.461277"><ele>182.4</ele><time>2026-04-12T13:39:18.95Z</time></trkpt><trkpt lat="43.7721973" lon="11.4612452"><ele>183.0</ele><time>2026-04-12T13:39:19.95Z</time></trkpt><trkpt lat="43.7722985" lon="11.4611992"><ele>178.60000000000002</ele><time>2026-04-12T13:39:20.949Z</time></trkpt><trkpt lat="43.7723937" lon="11.4611402"><ele>174.20000000000002</ele><time>2026-04-12T13:39:21.95Z</time></trkpt><trkpt lat="43.772473" lon="11.4610504"><ele>169.8</ele><time>2026-04-12T13:39:22.949Z</time></trkpt><trkpt lat="43.7725412" lon="11.4609506"><ele>165.4</ele><time>2026-04-12T13:39:23.949Z</time></trkpt><trkpt lat="43.7725964" lon="11.4608104"><ele>161.0</ele><time>2026-04-12T13:39:24.949Z</time></trkpt><trkpt lat="43.7726377" lon="11.4606499"><ele>161.0</ele><time>2026-04-12T13:39:25.948Z</time></trkpt><trkpt lat="43.7726811" lon="11.460485"><ele>161.0</ele><time>2026-04-12T13:39:26.949Z</time></trkpt><trkpt lat="43.7727279" lon="11.4603179"><ele>161.0</ele><time>2026-04-12T13:39:27.949Z</time></trkpt><trkpt lat="43.7727851" lon="11.4601528"><ele>161.0</ele><time>2026-04-12T13:39:28.949Z</time></trkpt><trkpt lat="43.7728505" lon="11.4600081"><ele>162.5</ele><time>2026-04-12T13:39:29.949Z</time></trkpt><trkpt lat="43.772912" lon="11.4598617"><ele>164.0</ele><time>2026-04-12T13:39:30.948Z</time></trkpt><trkpt lat="43.7729321" lon="11.4597033"><ele>165.5</ele><time>2026-04-12T13:39:31.949Z</time></trkpt><trkpt lat="43.7729353" lon="11.4595369"><ele>167.0</ele><time>2026-04-12T13:39:32.949Z</time></trkpt><trkpt lat="43.7729192" lon="11.4593698"><ele>167.0</ele><time>2026-04-12T13:39:33.95Z</time></trkpt><trkpt lat="43.7729094" lon="11.4592104"><ele>167.0</ele><time>2026-04-12T13:39:34.95Z</time></trkpt><trkpt lat="43.7729254" lon="11.4590453"><ele>167.0</ele><time>2026-04-12T13:39:35.95Z</time></trkpt><trkpt lat="43.7729583" lon="11.4588777"><ele>167.0</ele><time>2026-04-12T13:39:36.95Z</time></trkpt><trkpt lat="43.7730007" lon="11.4587241"><ele>166.0</ele><time>2026-04-12T13:39:37.949Z</time></trkpt><trkpt lat="43.7730329" lon="11.4585912"><ele>165.0</ele><time>2026-04-12T13:39:38.949Z</time></trkpt><trkpt lat="43.7730598" lon="11.4584623"><ele>164.0</ele><time>2026-04-12T13:39:39.949Z</time></trkpt><trkpt lat="43.7730746" lon="11.4583294"><ele>163.0</ele><time>2026-04-12T13:39:40.949Z</time></trkpt><trkpt lat="43.7730641" lon="11.4581868"><ele>162.0</ele><time>2026-04-12T13:39:41.949Z</time></trkpt><trkpt lat="43.773016" lon="11.4580431"><ele>162.25</ele><time>2026-04-12T13:39:42.95Z</time></trkpt><trkpt lat="43.7729445" lon="11.4579026"><ele>162.5</ele><time>2026-04-12T13:39:43.949Z</time></trkpt><trkpt lat="43.7728887" lon="11.45777"><ele>162.75</ele><time>2026-04-12T13:39:44.949Z</time></trkpt><trkpt lat="43.7728299" lon="11.457641"><ele>163.0</ele><time>2026-04-12T13:39:45.95Z</time></trkpt><trkpt lat="43.7727736" lon="11.4575143"><ele>163.0</ele><time>2026-04-12T13:39:46.948Z</time></trkpt><trkpt lat="43.7727237" lon="11.4573903"><ele>163.0</ele><time>2026-04-12T13:39:47.949Z</time></trkpt><trkpt lat="43.772682" lon="11.4572635"><ele>163.0</ele><time>2026-04-12T13:39:48.949Z</time></trkpt><trkpt lat="43.7726584" lon="11.4571384"><ele>163.0</ele><time>2026-04-12T13:39:49.947Z</time></trkpt><trkpt lat="43.7726398" lon="11.4569987"><ele>163.0</ele><time>2026-04-12T13:39:50.95Z</time></trkpt><trkpt lat="43.7726211" lon="11.4568368"><ele>154.5</ele><time>2026-04-12T13:39:51.948Z</time></trkpt><trkpt lat="43.7726024" lon="11.456661"><ele>146.0</ele><time>2026-04-12T13:39:52.95Z</time></trkpt><trkpt lat="43.7725843" lon="11.4564824"><ele>137.5</ele><time>2026-04-12T13:39:53.948Z</time></trkpt><trkpt lat="43.7725672" lon="11.456311"><ele>129.0</ele><time>2026-04-12T13:39:54.949Z</time></trkpt><trkpt lat="43.7725545" lon="11.4561422"><ele>128.6</ele><time>2026-04-12T13:39:55.949Z</time></trkpt><trkpt lat="43.7725458" lon="11.4559817"><ele>128.2</ele><time>2026-04-12T13:39:56.95Z</time></trkpt><trkpt lat="43.7725344" lon="11.4558244"><ele>127.79999999999998</ele><time>2026-04-12T13:39:57.949Z</time></trkpt><trkpt lat="43.7725437" lon="11.455676"><ele>127.39999999999999</ele><time>2026-04-12T13:39:58.949Z</time></trkpt><trkpt lat="43.7725744" lon="11.4555318"><ele>127.0</ele><time>2026-04-12T13:39:59.948Z</time></trkpt><trkpt lat="43.7726238" lon="11.4553964"><ele>124.25</ele><time>2026-04-12T13:40:00.949Z</time></trkpt><trkpt lat="43.7726808" lon="11.4552673"><ele>121.5</ele><time>2026-04-12T13:40:01.948Z</time></trkpt><trkpt lat="43.7727409" lon="11.4551424"><ele>118.75</ele><time>2026-04-12T13:40:02.949Z</time></trkpt><trkpt lat="43.7728057" lon="11.455013"><ele>116.0</ele><time>2026-04-12T13:40:03.948Z</time></trkpt><trkpt lat="43.7728752" lon="11.4548734"><ele>118.19999999999999</ele><time>2026-04-12T13:40:04.949Z</time></trkpt><trkpt lat="43.7729398" lon="11.4547318"><ele>120.39999999999999</ele><time>2026-04-12T13:40:05.948Z</time></trkpt><trkpt lat="43.7729953" lon="11.4545882"><ele>122.6</ele><time>2026-04-12T13:40:06.949Z</time></trkpt><trkpt lat="43.7730353" lon="11.4544537"><ele>124.8</ele><time>2026-04-12T13:40:07.949Z</time></trkpt><trkpt lat="43.7730648" lon="11.4543379"><ele>127.0</ele><time>2026-04-12T13:40:08.949Z</time></trkpt><trkpt lat="43.7730864" lon="11.4542125"><ele>127.0</ele><time>2026-04-12T13:40:09.949Z</time></trkpt><trkpt lat="43.7731105" lon="11.4540788"><ele>126.99999999999999</ele><time>2026-04-12T13:40:10.948Z</time></trkpt><trkpt lat="43.7731346" lon="11.4539367"><ele>126.99999999999999</ele><time>2026-04-12T13:40:11.949Z</time></trkpt><trkpt lat="43.7731617" lon="11.4537792"><ele>127.0</ele><time>2026-04-12T13:40:12.95Z</time></trkpt><trkpt lat="43.7731952" lon="11.4536196"><ele>127.0</ele><time>2026-04-12T13:40:13.95Z</time></trkpt><trkpt lat="43.7732362" lon="11.4534688"><ele>125.0</ele><time>2026-04-12T13:40:14.949Z</time></trkpt><trkpt lat="43.7732827" lon="11.4533311"><ele>122.99999999999999</ele><time>2026-04-12T13:40:15.948Z</time></trkpt><trkpt lat="43.773332" lon="11.453193"><ele>120.99999999999999</ele><time>2026-04-12T13:40:16.95Z</time></trkpt><trkpt lat="43.7733843" lon="11.4530596"><ele>119.0</ele><time>2026-04-12T13:40:17.95Z</time></trkpt><trkpt lat="43.7734413" lon="11.45292"><ele>117.0</ele><time>2026-04-12T13:40:18.949Z</time></trkpt><trkpt lat="43.7735024" lon="11.45278"><ele>119.8</ele><time>2026-04-12T13:40:19.949Z</time></trkpt><trkpt lat="43.7735628" lon="11.4526408"><ele>122.6</ele><time>2026-04-12T13:40:20.95Z</time></trkpt><trkpt lat="43.7736221" lon="11.4525019"><ele>125.39999999999999</ele><time>2026-04-12T13:40:21.949Z</time></trkpt><trkpt lat="43.7736732" lon="11.4523786"><ele>128.2</ele><time>2026-04-12T13:40:22.949Z</time></trkpt><trkpt lat="43.7737154" lon="11.4522713"><ele>131.0</ele><time>2026-04-12T13:40:23.95Z</time></trkpt><trkpt lat="43.7737647" lon="11.4521703"><ele>127.99999999999999</ele><time>2026-04-12T13:40:24.95Z</time></trkpt><trkpt lat="43.7738037" lon="11.4520843"><ele>125.0</ele><time>2026-04-12T13:40:25.948Z</time></trkpt><trkpt lat="43.7738428" lon="11.4519944"><ele>122.0</ele><time>2026-04-12T13:40:26.949Z</time></trkpt><trkpt lat="43.7738793" lon="11.4519166"><ele>119.0</ele><time>2026-04-12T13:40:27.948Z</time></trkpt><trkpt lat="43.7739249" lon="11.4518066"><ele>115.99999999999999</ele><time>2026-04-12T13:40:29.95Z</time></trkpt><trkpt lat="43.7739482" lon="11.4516818"><ele>113.0</ele><time>2026-04-12T13:40:31.95Z</time></trkpt><trkpt lat="43.7739125" lon="11.4515508"><ele>112.99999999999999</ele><time>2026-04-12T13:40:33.95Z</time></trkpt><trkpt lat="43.7738579" lon="11.4514739"><ele>113.0</ele><time>2026-04-12T13:40:34.948Z</time></trkpt><trkpt lat="43.7738101" lon="11.4514123"><ele>113.0</ele><time>2026-04-12T13:40:35.95Z</time></trkpt><trkpt lat="43.7737695" lon="11.4513319"><ele>113.0</ele><time>2026-04-12T13:40:36.95Z</time></trkpt><trkpt lat="43.7737351" lon="11.4512283"><ele>112.99999999999999</ele><time>2026-04-12T13:40:37.95Z</time></trkpt><trkpt lat="43.773721" lon="11.4511063"><ele>113.0</ele><time>2026-04-12T13:40:38.95Z</time></trkpt><trkpt lat="43.7737166" lon="11.4509739"><ele>111.0</ele><time>2026-04-12T13:40:39.949Z</time></trkpt><trkpt lat="43.7737166" lon="11.4508596"><ele>109.00000000000001</ele><time>2026-04-12T13:40:40.95Z</time></trkpt><trkpt lat="43.7737161" lon="11.4507485"><ele>107.0</ele><time>2026-04-12T13:40:41.948Z</time></trkpt><trkpt lat="43.7737106" lon="11.4506256"><ele>105.0</ele><time>2026-04-12T13:40:42.95Z</time></trkpt><trkpt lat="43.7736973" lon="11.4504928"><ele>103.0</ele><time>2026-04-12T13:40:43.95Z</time></trkpt><trkpt lat="43.7736713" lon="11.4503428"><ele>102.0</ele><time>2026-04-12T13:40:44.949Z</time></trkpt><trkpt lat="43.7736289" lon="11.4501945"><ele>101.0</ele><time>2026-04-12T13:40:45.948Z</time></trkpt><trkpt lat="43.7735661" lon="11.450047"><ele>100.0</ele><time>2026-04-12T13:40:46.947Z</time></trkpt><trkpt lat="43.7734889" lon="11.4499083"><ele>99.0</ele><time>2026-04-12T13:40:47.95Z</time></trkpt><trkpt lat="43.7734033" lon="11.4497887"><ele>97.25</ele><time>2026-04-12T13:40:48.949Z</time></trkpt><trkpt lat="43.7733053" lon="11.4496867"><ele>95.5</ele><time>2026-04-12T13:40:49.949Z</time></trkpt><trkpt lat="43.7731999" lon="11.4496017"><ele>93.75</ele><time>2026-04-12T13:40:50.95Z</time></trkpt><trkpt lat="43.7730803" lon="11.4495392"><ele>92.0</ele><time>2026-04-12T13:40:51.948Z</time></trkpt><trkpt lat="43.7729582" lon="11.4494877"><ele>92.0</ele><time>2026-04-12T13:40:52.95Z</time></trkpt><trkpt lat="43.7728377" lon="11.4494378"><ele>92.0</ele><time>2026-04-12T13:40:53.95Z</time></trkpt><trkpt lat="43.7727255" lon="11.449363"><ele>92.0</ele><time>2026-04-12T13:40:54.948Z</time></trkpt><trkpt lat="43.7726083" lon="11.4492704"><ele>92.0</ele><time>2026-04-12T13:40:55.95Z</time></trkpt><trkpt lat="43.7725016" lon="11.4491556"><ele>91.0</ele><time>2026-04-12T13:40:56.948Z</time></trkpt><trkpt lat="43.7724039" lon="11.4490275"><ele>90.0</ele><time>2026-04-12T13:40:57.948Z</time></trkpt><trkpt lat="43.7723149" lon="11.4488806"><ele>89.0</ele><time>2026-04-12T13:40:58.948Z</time></trkpt><trkpt lat="43.7722188" lon="11.4487309"><ele>88.0</ele><time>2026-04-12T13:40:59.948Z</time></trkpt><trkpt lat="43.7721234" lon="11.448568"><ele>87.0</ele><time>2026-04-12T13:41:00.949Z</time></trkpt><trkpt lat="43.7720195" lon="11.4483672"><ele>86.0</ele><time>2026-04-12T13:41:01.949Z</time></trkpt><trkpt lat="43.7719105" lon="11.4481405"><ele>85.0</ele><time>2026-04-12T13:41:02.948Z</time></trkpt><trkpt lat="43.7717971" lon="11.4478508"><ele>84.5</ele><time>2026-04-12T13:41:03.949Z</time></trkpt><trkpt lat="43.771698" lon="11.4475448"><ele>84.0</ele><time>2026-04-12T13:41:04.949Z</time></trkpt><trkpt lat="43.7716094" lon="11.44721"><ele>84.0</ele><time>2026-04-12T13:41:05.95Z</time></trkpt><trkpt lat="43.7715489" lon="11.4468681"><ele>84.0</ele><time>2026-04-12T13:41:06.949Z</time></trkpt><trkpt lat="43.771507" lon="11.4465476"><ele>83.33333333333333</ele><time>2026-04-12T13:41:07.948Z</time></trkpt><trkpt lat="43.7714775" lon="11.4462436"><ele>82.66666666666666</ele><time>2026-04-12T13:41:08.949Z</time></trkpt><trkpt lat="43.7714514" lon="11.4459524"><ele>82.0</ele><time>2026-04-12T13:41:09.949Z</time></trkpt><trkpt lat="43.7714239" lon="11.445662"><ele>82.5</ele><time>2026-04-12T13:41:10.949Z</time></trkpt><trkpt lat="43.7713933" lon="11.4453417"><ele>83.0</ele><time>2026-04-12T13:41:11.95Z</time></trkpt><trkpt lat="43.7713643" lon="11.4449861"><ele>83.0</ele><time>2026-04-12T13:41:12.949Z</time></trkpt><trkpt lat="43.7713336" lon="11.4445929"><ele>83.0</ele><time>2026-04-12T13:41:13.948Z</time></trkpt><trkpt lat="43.7713009" lon="11.4441896"><ele>83.0</ele><time>2026-04-12T13:41:14.95Z</time></trkpt><trkpt lat="43.7712758" lon="11.4438096"><ele>83.0</ele><time>2026-04-12T13:41:15.949Z</time></trkpt><trkpt lat="43.7712522" lon="11.4434613"><ele>82.33333333333334</ele><time>2026-04-12T13:41:16.95Z</time></trkpt><trkpt lat="43.7712276" lon="11.4431534"><ele>81.66666666666667</ele><time>2026-04-12T13:41:17.949Z</time></trkpt><trkpt lat="43.7712055" lon="11.4428801"><ele>81.0</ele><time>2026-04-12T13:41:18.949Z</time></trkpt><trkpt lat="43.7711847" lon="11.4426309"><ele>80.66666666666667</ele><time>2026-04-12T13:41:19.948Z</time></trkpt><trkpt lat="43.7711607" lon="11.4424112"><ele>80.33333333333334</ele><time>2026-04-12T13:41:20.949Z</time></trkpt><trkpt lat="43.7711352" lon="11.4422044"><ele>80.0</ele><time>2026-04-12T13:41:21.949Z</time></trkpt><trkpt lat="43.7711052" lon="11.4420074"><ele>80.0</ele><time>2026-04-12T13:41:22.949Z</time></trkpt><trkpt lat="43.7710679" lon="11.441808"><ele>80.0</ele><time>2026-04-12T13:41:23.949Z</time></trkpt><trkpt lat="43.7710236" lon="11.4416087"><ele>80.0</ele><time>2026-04-12T13:41:24.95Z</time></trkpt><trkpt lat="43.7709734" lon="11.4414117"><ele>80.0</ele><time>2026-04-12T13:41:25.949Z</time></trkpt><trkpt lat="43.7709195" lon="11.4412242"><ele>80.0</ele><time>2026-04-12T13:41:26.95Z</time></trkpt><trkpt lat="43.7708619" lon="11.4410383"><ele>80.0</ele><time>2026-04-12T13:41:27.949Z</time></trkpt><trkpt lat="43.7708042" lon="11.4408522"><ele>80.0</ele><time>2026-04-12T13:41:28.949Z</time></trkpt><trkpt lat="43.7707417" lon="11.4406639"><ele>80.0</ele><time>2026-04-12T13:41:29.948Z</time></trkpt><trkpt lat="43.7706769" lon="11.440482"><ele>80.0</ele><time>2026-04-12T13:41:30.948Z</time></trkpt><trkpt lat="43.7706095" lon="11.4402987"><ele>80.0</ele><time>2026-04-12T13:41:31.948Z</time></trkpt><trkpt lat="43.7705423" lon="11.440112"><ele>80.0</ele><time>2026-04-12T13:41:32.948Z</time></trkpt><trkpt lat="43.770467" lon="11.4399169"><ele>80.66666666666667</ele><time>2026-04-12T13:41:33.949Z</time></trkpt><trkpt lat="43.7703891" lon="11.4397021"><ele>81.33333333333333</ele><time>2026-04-12T13:41:34.949Z</time></trkpt><trkpt lat="43.7703146" lon="11.4394982"><ele>82.0</ele><time>2026-04-12T13:41:35.95Z</time></trkpt><trkpt lat="43.7702448" lon="11.4393075"><ele>82.25</ele><time>2026-04-12T13:41:36.949Z</time></trkpt><trkpt lat="43.7701808" lon="11.439125"><ele>82.5</ele><time>2026-04-12T13:41:37.948Z</time></trkpt><trkpt lat="43.770121" lon="11.4389508"><ele>82.75</ele><time>2026-04-12T13:41:38.95Z</time></trkpt><trkpt lat="43.7700557" lon="11.4387751"><ele>83.0</ele><time>2026-04-12T13:41:39.949Z</time></trkpt><trkpt lat="43.7699965" lon="11.4386013"><ele>83.0</ele><time>2026-04-12T13:41:40.949Z</time></trkpt><trkpt lat="43.7699385" lon="11.4384327"><ele>83.0</ele><time>2026-04-12T13:41:41.949Z</time></trkpt><trkpt lat="43.7698795" lon="11.4382597"><ele>83.0</ele><time>2026-04-12T13:41:42.949Z</time></trkpt><trkpt lat="43.7698193" lon="11.4380764"><ele>83.0</ele><time>2026-04-12T13:41:43.95Z</time></trkpt><trkpt lat="43.7697492" lon="11.4378714"><ele>83.0</ele><time>2026-04-12T13:41:44.949Z</time></trkpt><trkpt lat="43.769676" lon="11.4376158"><ele>83.0</ele><time>2026-04-12T13:41:45.949Z</time></trkpt><trkpt lat="43.7695952" lon="11.4373161"><ele>83.0</ele><time>2026-04-12T13:41:46.948Z</time></trkpt><trkpt lat="43.769524" lon="11.4369927"><ele>83.0</ele><time>2026-04-12T13:41:47.949Z</time></trkpt><trkpt lat="43.7694643" lon="11.4366392"><ele>83.0</ele><time>2026-04-12T13:41:48.949Z</time></trkpt><trkpt lat="43.769419" lon="11.4362552"><ele>83.5</ele><time>2026-04-12T13:41:49.95Z</time></trkpt><trkpt lat="43.769387" lon="11.4358593"><ele>84.0</ele><time>2026-04-12T13:41:50.949Z</time></trkpt><trkpt lat="43.7693648" lon="11.4354456"><ele>84.0</ele><time>2026-04-12T13:41:51.949Z</time></trkpt><trkpt lat="43.7693582" lon="11.4350433"><ele>84.0</ele><time>2026-04-12T13:41:52.95Z</time></trkpt><trkpt lat="43.7693636" lon="11.4346808"><ele>83.0</ele><time>2026-04-12T13:41:53.948Z</time></trkpt><trkpt lat="43.7693866" lon="11.4343529"><ele>82.0</ele><time>2026-04-12T13:41:54.949Z</time></trkpt><trkpt lat="43.7694119" lon="11.4340519"><ele>82.0</ele><time>2026-04-12T13:41:55.947Z</time></trkpt><trkpt lat="43.76944" lon="11.4337786"><ele>82.0</ele><time>2026-04-12T13:41:56.95Z</time></trkpt><trkpt lat="43.7694747" lon="11.4335161"><ele>82.0</ele><time>2026-04-12T13:41:57.947Z</time></trkpt><trkpt lat="43.7695259" lon="11.4332287"><ele>82.0</ele><time>2026-04-12T13:41:58.949Z</time></trkpt><trkpt lat="43.7695991" lon="11.4329195"><ele>82.0</ele><time>2026-04-12T13:41:59.95Z</time></trkpt><trkpt lat="43.76969" lon="11.432591"><ele>82.0</ele><time>2026-04-12T13:42:00.949Z</time></trkpt><trkpt lat="43.7697905" lon="11.4322666"><ele>82.0</ele><time>2026-04-12T13:42:01.95Z</time></trkpt><trkpt lat="43.7698876" lon="11.4319695"><ele>81.33333333333333</ele><time>2026-04-12T13:42:02.948Z</time></trkpt><trkpt lat="43.7699805" lon="11.4316877"><ele>80.66666666666667</ele><time>2026-04-12T13:42:03.947Z</time></trkpt><trkpt lat="43.7700694" lon="11.4314345"><ele>80.0</ele><time>2026-04-12T13:42:04.95Z</time></trkpt><trkpt lat="43.7701523" lon="11.4311995"><ele>80.33333333333334</ele><time>2026-04-12T13:42:05.949Z</time></trkpt><trkpt lat="43.7702349" lon="11.4309655"><ele>80.66666666666667</ele><time>2026-04-12T13:42:06.948Z</time></trkpt><trkpt lat="43.7703247" lon="11.4307198"><ele>81.0</ele><time>2026-04-12T13:42:07.949Z</time></trkpt><trkpt lat="43.7704182" lon="11.4304441"><ele>81.0</ele><time>2026-04-12T13:42:08.949Z</time></trkpt><trkpt lat="43.7705239" lon="11.4301486"><ele>81.0</ele><time>2026-04-12T13:42:09.949Z</time></trkpt><trkpt lat="43.7706448" lon="11.4298035"><ele>81.0</ele><time>2026-04-12T13:42:10.95Z</time></trkpt><trkpt lat="43.7707586" lon="11.4294576"><ele>81.0</ele><time>2026-04-12T13:42:11.949Z</time></trkpt><trkpt lat="43.7708684" lon="11.4290837"><ele>81.0</ele><time>2026-04-12T13:42:12.949Z</time></trkpt><trkpt lat="43.7709719" lon="11.4286856"><ele>81.0</ele><time>2026-04-12T13:42:13.947Z</time></trkpt><trkpt lat="43.7710722" lon="11.4282769"><ele>81.5</ele><time>2026-04-12T13:42:14.949Z</time></trkpt><trkpt lat="43.7711749" lon="11.4278549"><ele>82.0</ele><time>2026-04-12T13:42:15.949Z</time></trkpt><trkpt lat="43.7712724" lon="11.4274383"><ele>81.5</ele><time>2026-04-12T13:42:16.948Z</time></trkpt><trkpt lat="43.7713656" lon="11.4270267"><ele>81.0</ele><time>2026-04-12T13:42:17.949Z</time></trkpt><trkpt lat="43.7714593" lon="11.4266382"><ele>81.0</ele><time>2026-04-12T13:42:18.948Z</time></trkpt><trkpt lat="43.7715529" lon="11.4262767"><ele>81.0</ele><time>2026-04-12T13:42:19.95Z</time></trkpt><trkpt lat="43.7716309" lon="11.4259305"><ele>81.0</ele><time>2026-04-12T13:42:20.949Z</time></trkpt><trkpt lat="43.77171" lon="11.4255862"><ele>81.0</ele><time>2026-04-12T13:42:21.949Z</time></trkpt><trkpt lat="43.7717954" lon="11.425225"><ele>81.5</ele><time>2026-04-12T13:42:22.948Z</time></trkpt><trkpt lat="43.7718918" lon="11.4248441"><ele>82.0</ele><time>2026-04-12T13:42:23.948Z</time></trkpt><trkpt lat="43.7719936" lon="11.4244412"><ele>82.0</ele><time>2026-04-12T13:42:24.947Z</time></trkpt><trkpt lat="43.7720979" lon="11.4240122"><ele>82.0</ele><time>2026-04-12T13:42:25.95Z</time></trkpt><trkpt lat="43.7722047" lon="11.4235635"><ele>82.0</ele><time>2026-04-12T13:42:26.949Z</time></trkpt><trkpt lat="43.7723138" lon="11.423096"><ele>82.0</ele><time>2026-04-12T13:42:27.949Z</time></trkpt><trkpt lat="43.7724271" lon="11.4226158"><ele>81.0</ele><time>2026-04-12T13:42:28.948Z</time></trkpt><trkpt lat="43.772545" lon="11.4221199"><ele>80.0</ele><time>2026-04-12T13:42:29.947Z</time></trkpt><trkpt lat="43.7726645" lon="11.4216114"><ele>80.5</ele><time>2026-04-12T13:42:30.949Z</time></trkpt><trkpt lat="43.7727839" lon="11.4211013"><ele>81.0</ele><time>2026-04-12T13:42:31.948Z</time></trkpt><trkpt lat="43.7728989" lon="11.4206062"><ele>81.0</ele><time>2026-04-12T13:42:32.949Z</time></trkpt><trkpt lat="43.7730066" lon="11.4201551"><ele>81.0</ele><time>2026-04-12T13:42:33.949Z</time></trkpt><trkpt lat="43.7731161" lon="11.4197439"><ele>81.0</ele><time>2026-04-12T13:42:34.949Z</time></trkpt><trkpt lat="43.7731983" lon="11.419383"><ele>81.0</ele><time>2026-04-12T13:42:35.949Z</time></trkpt><trkpt lat="43.7732758" lon="11.419043"><ele>80.5</ele><time>2026-04-12T13:42:36.949Z</time></trkpt><trkpt lat="43.7733484" lon="11.4187239"><ele>80.0</ele><time>2026-04-12T13:42:37.948Z</time></trkpt><trkpt lat="43.7734156" lon="11.4184375"><ele>80.0</ele><time>2026-04-12T13:42:38.95Z</time></trkpt><trkpt lat="43.7734816" lon="11.4181682"><ele>80.0</ele><time>2026-04-12T13:42:39.949Z</time></trkpt><trkpt lat="43.7735383" lon="11.4179431"><ele>80.0</ele><time>2026-04-12T13:42:40.949Z</time></trkpt><trkpt lat="43.7736026" lon="11.4177414"><ele>80.25</ele><time>2026-04-12T13:42:41.949Z</time></trkpt><trkpt lat="43.7736788" lon="11.4175616"><ele>80.5</ele><time>2026-04-12T13:42:42.949Z</time></trkpt><trkpt lat="43.7737618" lon="11.4174084"><ele>80.75</ele><time>2026-04-12T13:42:43.948Z</time></trkpt><trkpt lat="43.7738474" lon="11.4172911"><ele>81.0</ele><time>2026-04-12T13:42:44.949Z</time></trkpt><trkpt lat="43.7739293" lon="11.4171948"><ele>81.0</ele><time>2026-04-12T13:42:45.949Z</time></trkpt><trkpt lat="43.7740115" lon="11.417115"><ele>81.0</ele><time>2026-04-12T13:42:46.948Z</time></trkpt><trkpt lat="43.7740883" lon="11.4170591"><ele>81.0</ele><time>2026-04-12T13:42:47.949Z</time></trkpt><trkpt lat="43.7741651" lon="11.4170312"><ele>81.0</ele><time>2026-04-12T13:42:48.949Z</time></trkpt><trkpt lat="43.774237" lon="11.4170316"><ele>81.0</ele><time>2026-04-12T13:42:49.948Z</time></trkpt><trkpt lat="43.774313" lon="11.4170414"><ele>81.0</ele><time>2026-04-12T13:42:50.948Z</time></trkpt><trkpt lat="43.7743971" lon="11.4170425"><ele>81.16666666666667</ele><time>2026-04-12T13:42:51.949Z</time></trkpt><trkpt lat="43.774478" lon="11.4170173"><ele>81.33333333333333</ele><time>2026-04-12T13:42:52.948Z</time></trkpt><trkpt lat="43.774556" lon="11.4169633"><ele>81.5</ele><time>2026-04-12T13:42:53.949Z</time></trkpt><trkpt lat="43.7746191" lon="11.4168771"><ele>81.66666666666666</ele><time>2026-04-12T13:42:54.948Z</time></trkpt><trkpt lat="43.7746752" lon="11.416775"><ele>81.83333333333333</ele><time>2026-04-12T13:42:55.949Z</time></trkpt><trkpt lat="43.7747054" lon="11.416668"><ele>82.0</ele><time>2026-04-12T13:42:56.949Z</time></trkpt><trkpt lat="43.7747221" lon="11.4165521"><ele>82.0</ele><time>2026-04-12T13:42:57.948Z</time></trkpt><trkpt lat="43.7746927" lon="11.4164357"><ele>82.0</ele><time>2026-04-12T13:42:58.948Z</time></trkpt><trkpt lat="43.774641" lon="11.4163434"><ele>82.0</ele><time>2026-04-12T13:42:59.947Z</time></trkpt><trkpt lat="43.7745689" lon="11.4162834"><ele>82.0</ele><time>2026-04-12T13:43:00.949Z</time></trkpt><trkpt lat="43.7744866" lon="11.4162558"><ele>82.0</ele><time>2026-04-12T13:43:01.949Z</time></trkpt><trkpt lat="43.774402" lon="11.4162653"><ele>82.0</ele><time>2026-04-12T13:43:02.949Z</time></trkpt><trkpt lat="43.7743169" lon="11.4163139"><ele>81.83333333333333</ele><time>2026-04-12T13:43:03.949Z</time></trkpt><trkpt lat="43.7742445" lon="11.4163918"><ele>81.66666666666666</ele><time>2026-04-12T13:43:04.949Z</time></trkpt><trkpt lat="43.7741997" lon="11.416492"><ele>81.5</ele><time>2026-04-12T13:43:05.949Z</time></trkpt><trkpt lat="43.7741793" lon="11.4165942"><ele>81.33333333333333</ele><time>2026-04-12T13:43:06.949Z</time></trkpt><trkpt lat="43.7741789" lon="11.4166978"><ele>81.16666666666667</ele><time>2026-04-12T13:43:07.949Z</time></trkpt><trkpt lat="43.7741929" lon="11.4168047"><ele>81.0</ele><time>2026-04-12T13:43:08.947Z</time></trkpt><trkpt lat="43.7742383" lon="11.416905"><ele>81.0</ele><time>2026-04-12T13:43:09.947Z</time></trkpt><trkpt lat="43.7742969" lon="11.4169883"><ele>81.0</ele><time>2026-04-12T13:43:10.949Z</time></trkpt><trkpt lat="43.7743652" lon="11.4170363"><ele>81.0</ele><time>2026-04-12T13:43:11.948Z</time></trkpt><trkpt lat="43.7744389" lon="11.4170403"><ele>81.0</ele><time>2026-04-12T13:43:12.948Z</time></trkpt><trkpt lat="43.7745166" lon="11.4170067"><ele>81.0</ele><time>2026-04-12T13:43:13.949Z</time></trkpt><trkpt lat="43.7745876" lon="11.4169407"><ele>81.0</ele><time>2026-04-12T13:43:14.949Z</time></trkpt><trkpt lat="43.7746426" lon="11.4168506"><ele>81.16666666666667</ele><time>2026-04-12T13:43:15.949Z</time></trkpt><trkpt lat="43.7746807" lon="11.4167486"><ele>81.33333333333333</ele><time>2026-04-12T13:43:16.948Z</time></trkpt><trkpt lat="43.7747047" lon="11.4166442"><ele>81.5</ele><time>2026-04-12T13:43:17.948Z</time></trkpt><trkpt lat="43.7747112" lon="11.416533"><ele>81.66666666666666</ele><time>2026-04-12T13:43:18.949Z</time></trkpt><trkpt lat="43.774685" lon="11.4164202"><ele>81.83333333333333</ele><time>2026-04-12T13:43:19.949Z</time></trkpt><trkpt lat="43.7746396" lon="11.4163112"><ele>82.0</ele><time>2026-04-12T13:43:20.948Z</time></trkpt><trkpt lat="43.7745869" lon="11.4161987"><ele>81.5</ele><time>2026-04-12T13:43:21.95Z</time></trkpt><trkpt lat="43.7745292" lon="11.4160733"><ele>81.0</ele><time>2026-04-12T13:43:22.949Z</time></trkpt><trkpt lat="43.7744779" lon="11.4159349"><ele>80.5</ele><time>2026-04-12T13:43:23.948Z</time></trkpt><trkpt lat="43.7744387" lon="11.4157745"><ele>80.0</ele><time>2026-04-12T13:43:24.948Z</time></trkpt><trkpt lat="43.7744105" lon="11.4155863"><ele>79.5</ele><time>2026-04-12T13:43:25.948Z</time></trkpt><trkpt lat="43.7743929" lon="11.4153808"><ele>79.0</ele><time>2026-04-12T13:43:26.949Z</time></trkpt><trkpt lat="43.7743735" lon="11.4151782"><ele>78.5</ele><time>2026-04-12T13:43:27.948Z</time></trkpt><trkpt lat="43.7743538" lon="11.4149797"><ele>78.0</ele><time>2026-04-12T13:43:28.948Z</time></trkpt><trkpt lat="43.774333" lon="11.414783"><ele>77.5</ele><time>2026-04-12T13:43:29.95Z</time></trkpt><trkpt lat="43.7743175" lon="11.4145988"><ele>77.0</ele><time>2026-04-12T13:43:30.947Z</time></trkpt><trkpt lat="43.7742997" lon="11.4144246"><ele>76.5</ele><time>2026-04-12T13:43:31.95Z</time></trkpt><trkpt lat="43.774283" lon="11.4142623"><ele>76.0</ele><time>2026-04-12T13:43:32.949Z</time></trkpt><trkpt lat="43.77427" lon="11.4141077"><ele>76.0</ele><time>2026-04-12T13:43:33.949Z</time></trkpt><trkpt lat="43.7742558" lon="11.413956"><ele>76.0</ele><time>2026-04-12T13:43:34.948Z</time></trkpt><trkpt lat="43.7742387" lon="11.4138095"><ele>76.0</ele><time>2026-04-12T13:43:35.95Z</time></trkpt><trkpt lat="43.7742265" lon="11.4136465"><ele>76.0</ele><time>2026-04-12T13:43:36.948Z</time></trkpt><trkpt lat="43.7742079" lon="11.4134622"><ele>76.5</ele><time>2026-04-12T13:43:37.949Z</time></trkpt><trkpt lat="43.7741929" lon="11.4132787"><ele>77.0</ele><time>2026-04-12T13:43:38.949Z</time></trkpt><trkpt lat="43.774186" lon="11.413113"><ele>77.5</ele><time>2026-04-12T13:43:39.95Z</time></trkpt><trkpt lat="43.7741816" lon="11.4129509"><ele>78.0</ele><time>2026-04-12T13:43:40.949Z</time></trkpt><trkpt lat="43.7741836" lon="11.4127986"><ele>78.25</ele><time>2026-04-12T13:43:41.948Z</time></trkpt><trkpt lat="43.7741842" lon="11.412635"><ele>78.5</ele><time>2026-04-12T13:43:42.95Z</time></trkpt><trkpt lat="43.7742008" lon="11.4124368"><ele>78.75</ele><time>2026-04-12T13:43:43.947Z</time></trkpt><trkpt lat="43.7742324" lon="11.4122477"><ele>79.0</ele><time>2026-04-12T13:43:44.949Z</time></trkpt><trkpt lat="43.7742722" lon="11.4120725"><ele>79.0</ele><time>2026-04-12T13:43:45.949Z</time></trkpt><trkpt lat="43.7743186" lon="11.4119006"><ele>79.0</ele><time>2026-04-12T13:43:46.948Z</time></trkpt><trkpt lat="43.7743657" lon="11.4117505"><ele>79.0</ele><time>2026-04-12T13:43:47.949Z</time></trkpt><trkpt lat="43.7744159" lon="11.4116186"><ele>79.0</ele><time>2026-04-12T13:43:48.949Z</time></trkpt><trkpt lat="43.7744704" lon="11.4114976"><ele>79.5</ele><time>2026-04-12T13:43:49.948Z</time></trkpt><trkpt lat="43.7745418" lon="11.4113755"><ele>80.0</ele><time>2026-04-12T13:43:50.948Z</time></trkpt><trkpt lat="43.7746423" lon="11.4112262"><ele>80.5</ele><time>2026-04-12T13:43:51.949Z</time></trkpt><trkpt lat="43.7747788" lon="11.4110501"><ele>81.0</ele><time>2026-04-12T13:43:52.949Z</time></trkpt><trkpt lat="43.7749404" lon="11.4108502"><ele>81.0</ele><time>2026-04-12T13:43:53.95Z</time></trkpt><trkpt lat="43.7751248" lon="11.4106208"><ele>81.0</ele><time>2026-04-12T13:43:54.948Z</time></trkpt><trkpt lat="43.7753191" lon="11.4103695"><ele>80.5</ele><time>2026-04-12T13:43:55.948Z</time></trkpt><trkpt lat="43.7755134" lon="11.4100972"><ele>80.0</ele><time>2026-04-12T13:43:56.948Z</time></trkpt><trkpt lat="43.7757083" lon="11.409807"><ele>80.5</ele><time>2026-04-12T13:43:57.947Z</time></trkpt><trkpt lat="43.7759014" lon="11.4095043"><ele>81.0</ele><time>2026-04-12T13:43:58.949Z</time></trkpt><trkpt lat="43.7760903" lon="11.4091913"><ele>80.0</ele><time>2026-04-12T13:43:59.949Z</time></trkpt><trkpt lat="43.7762763" lon="11.4088561"><ele>79.0</ele><time>2026-04-12T13:44:00.949Z</time></trkpt><trkpt lat="43.7764588" lon="11.408516"><ele>79.0</ele><time>2026-04-12T13:44:01.95Z</time></trkpt><trkpt lat="43.7766448" lon="11.408158"><ele>79.0</ele><time>2026-04-12T13:44:02.949Z</time></trkpt><trkpt lat="43.7768256" lon="11.4077949"><ele>78.5</ele><time>2026-04-12T13:44:03.95Z</time></trkpt><trkpt lat="43.7770114" lon="11.4074281"><ele>78.0</ele><time>2026-04-12T13:44:04.948Z</time></trkpt><trkpt lat="43.7771973" lon="11.4070634"><ele>77.0</ele><time>2026-04-12T13:44:05.949Z</time></trkpt><trkpt lat="43.7773767" lon="11.4067077"><ele>76.0</ele><time>2026-04-12T13:44:06.949Z</time></trkpt><trkpt lat="43.7775479" lon="11.4063722"><ele>76.0</ele><time>2026-04-12T13:44:07.949Z</time></trkpt><trkpt lat="43.7777046" lon="11.4060605"><ele>76.0</ele><time>2026-04-12T13:44:08.947Z</time></trkpt><trkpt lat="43.7778578" lon="11.4057632"><ele>76.5</ele><time>2026-04-12T13:44:09.949Z</time></trkpt><trkpt lat="43.777999" lon="11.4054915"><ele>77.0</ele><time>2026-04-12T13:44:10.948Z</time></trkpt><trkpt lat="43.7781298" lon="11.405239"><ele>77.0</ele><time>2026-04-12T13:44:11.948Z</time></trkpt><trkpt lat="43.7782503" lon="11.4049991"><ele>77.0</ele><time>2026-04-12T13:44:12.949Z</time></trkpt><trkpt lat="43.7783629" lon="11.4047751"><ele>77.0</ele><time>2026-04-12T13:44:13.947Z</time></trkpt><trkpt lat="43.7784723" lon="11.4045608"><ele>76.66666666666667</ele><time>2026-04-12T13:44:14.948Z</time></trkpt><trkpt lat="43.778577" lon="11.4043477"><ele>76.33333333333333</ele><time>2026-04-12T13:44:15.949Z</time></trkpt><trkpt lat="43.7786782" lon="11.4041319"><ele>76.0</ele><time>2026-04-12T13:44:16.947Z</time></trkpt><trkpt lat="43.7787636" lon="11.403892"><ele>76.66666666666666</ele><time>2026-04-12T13:44:17.949Z</time></trkpt><trkpt lat="43.7788322" lon="11.4036409"><ele>77.33333333333333</ele><time>2026-04-12T13:44:18.949Z</time></trkpt><trkpt lat="43.7788935" lon="11.4033947"><ele>78.0</ele><time>2026-04-12T13:44:19.948Z</time></trkpt><trkpt lat="43.778948" lon="11.4031628"><ele>78.33333333333333</ele><time>2026-04-12T13:44:20.949Z</time></trkpt><trkpt lat="43.7789989" lon="11.4029477"><ele>78.66666666666666</ele><time>2026-04-12T13:44:21.948Z</time></trkpt><trkpt lat="43.7790589" lon="11.4027424"><ele>79.0</ele><time>2026-04-12T13:44:22.948Z</time></trkpt><trkpt lat="43.7791193" lon="11.4025512"><ele>79.0</ele><time>2026-04-12T13:44:23.948Z</time></trkpt><trkpt lat="43.7791922" lon="11.402357"><ele>79.0</ele><time>2026-04-12T13:44:24.948Z</time></trkpt><trkpt lat="43.7792813" lon="11.4021588"><ele>79.0</ele><time>2026-04-12T13:44:25.948Z</time></trkpt><trkpt lat="43.7793805" lon="11.4019738"><ele>78.0</ele><time>2026-04-12T13:44:26.949Z</time></trkpt><trkpt lat="43.7794896" lon="11.4018055"><ele>77.0</ele><time>2026-04-12T13:44:27.948Z</time></trkpt><trkpt lat="43.7796004" lon="11.4016514"><ele>76.0</ele><time>2026-04-12T13:44:28.949Z</time></trkpt><trkpt lat="43.77972" lon="11.4014956"><ele>76.0</ele><time>2026-04-12T13:44:29.948Z</time></trkpt><trkpt lat="43.7798525" lon="11.4013457"><ele>76.0</ele><time>2026-04-12T13:44:30.949Z</time></trkpt><trkpt lat="43.779999" lon="11.4011856"><ele>76.0</ele><time>2026-04-12T13:44:31.949Z</time></trkpt><trkpt lat="43.7801603" lon="11.401005"><ele>75.66666666666666</ele><time>2026-04-12T13:44:32.948Z</time></trkpt><trkpt lat="43.7803282" lon="11.4008174"><ele>75.33333333333333</ele><time>2026-04-12T13:44:33.948Z</time></trkpt><trkpt lat="43.7804973" lon="11.4006222"><ele>75.0</ele><time>2026-04-12T13:44:34.949Z</time></trkpt><trkpt lat="43.7806703" lon="11.4004262"><ele>74.5</ele><time>2026-04-12T13:44:35.949Z</time></trkpt><trkpt lat="43.7808466" lon="11.4002264"><ele>74.0</ele><time>2026-04-12T13:44:36.949Z</time></trkpt><trkpt lat="43.7810208" lon="11.4000204"><ele>74.0</ele><time>2026-04-12T13:44:37.948Z</time></trkpt><trkpt lat="43.7811969" lon="11.399819"><ele>74.0</ele><time>2026-04-12T13:44:38.949Z</time></trkpt><trkpt lat="43.7813793" lon="11.3996115"><ele>75.0</ele><time>2026-04-12T13:44:39.949Z</time></trkpt><trkpt lat="43.7815696" lon="11.3994005"><ele>76.0</ele><time>2026-04-12T13:44:40.948Z</time></trkpt><trkpt lat="43.7817638" lon="11.3991968"><ele>74.5</ele><time>2026-04-12T13:44:41.948Z</time></trkpt><trkpt lat="43.7819514" lon="11.3989833"><ele>73.0</ele><time>2026-04-12T13:44:42.948Z</time></trkpt><trkpt lat="43.7821344" lon="11.3987529"><ele>73.0</ele><time>2026-04-12T13:44:43.948Z</time></trkpt><trkpt lat="43.7823086" lon="11.3985081"><ele>73.0</ele><time>2026-04-12T13:44:44.948Z</time></trkpt><trkpt lat="43.7824727" lon="11.3982516"><ele>73.5</ele><time>2026-04-12T13:44:45.949Z</time></trkpt><trkpt lat="43.7826275" lon="11.3979887"><ele>74.0</ele><time>2026-04-12T13:44:46.949Z</time></trkpt><trkpt lat="43.7827645" lon="11.3977094"><ele>75.5</ele><time>2026-04-12T13:44:47.949Z</time></trkpt><trkpt lat="43.7828921" lon="11.3974217"><ele>77.0</ele><time>2026-04-12T13:44:48.949Z</time></trkpt><trkpt lat="43.7829915" lon="11.3971246"><ele>77.0</ele><time>2026-04-12T13:44:49.949Z</time></trkpt><trkpt lat="43.7830726" lon="11.3968231"><ele>77.0</ele><time>2026-04-12T13:44:50.949Z</time></trkpt><trkpt lat="43.7831388" lon="11.3965237"><ele>77.66666666666667</ele><time>2026-04-12T13:44:51.949Z</time></trkpt><trkpt lat="43.7831975" lon="11.396227"><ele>78.33333333333333</ele><time>2026-04-12T13:44:52.949Z</time></trkpt><trkpt lat="43.7832545" lon="11.3959316"><ele>79.0</ele><time>2026-04-12T13:44:53.948Z</time></trkpt><trkpt lat="43.7833375" lon="11.3956545"><ele>78.33333333333333</ele><time>2026-04-12T13:44:54.949Z</time></trkpt><trkpt lat="43.7834403" lon="11.3953912"><ele>77.66666666666667</ele><time>2026-04-12T13:44:55.949Z</time></trkpt><trkpt lat="43.7835639" lon="11.3951435"><ele>77.0</ele><time>2026-04-12T13:44:56.949Z</time></trkpt><trkpt lat="43.7837004" lon="11.3949118"><ele>77.0</ele><time>2026-04-12T13:44:57.948Z</time></trkpt><trkpt lat="43.7838536" lon="11.3947007"><ele>77.0</ele><time>2026-04-12T13:44:58.948Z</time></trkpt><trkpt lat="43.784025" lon="11.3945079"><ele>77.0</ele><time>2026-04-12T13:44:59.948Z</time></trkpt><trkpt lat="43.7842034" lon="11.3943242"><ele>80.0</ele><time>2026-04-12T13:45:00.948Z</time></trkpt><trkpt lat="43.784397" lon="11.3941445"><ele>83.0</ele><time>2026-04-12T13:45:01.949Z</time></trkpt><trkpt lat="43.784583" lon="11.3939518"><ele>87.5</ele><time>2026-04-12T13:45:02.949Z</time></trkpt><trkpt lat="43.7847723" lon="11.3937586"><ele>92.0</ele><time>2026-04-12T13:45:03.948Z</time></trkpt><trkpt lat="43.7849421" lon="11.393546"><ele>92.0</ele><time>2026-04-12T13:45:04.948Z</time></trkpt><trkpt lat="43.7851112" lon="11.3933342"><ele>92.0</ele><time>2026-04-12T13:45:05.949Z</time></trkpt><trkpt lat="43.785268" lon="11.3931107"><ele>90.0</ele><time>2026-04-12T13:45:06.948Z</time></trkpt><trkpt lat="43.7854156" lon="11.3928757"><ele>88.0</ele><time>2026-04-12T13:45:07.949Z</time></trkpt><trkpt lat="43.78555" lon="11.3926236"><ele>88.0</ele><time>2026-04-12T13:45:08.948Z</time></trkpt><trkpt lat="43.785671" lon="11.3923633"><ele>88.0</ele><time>2026-04-12T13:45:09.947Z</time></trkpt><trkpt lat="43.7857872" lon="11.3920849"><ele>90.0</ele><time>2026-04-12T13:45:10.948Z</time></trkpt><trkpt lat="43.7858914" lon="11.3917942"><ele>92.0</ele><time>2026-04-12T13:45:11.947Z</time></trkpt><trkpt lat="43.7859909" lon="11.3914938"><ele>86.5</ele><time>2026-04-12T13:45:12.948Z</time></trkpt><trkpt lat="43.7860887" lon="11.3911814"><ele>81.0</ele><time>2026-04-12T13:45:13.948Z</time></trkpt><trkpt lat="43.7861885" lon="11.3908591"><ele>81.0</ele><time>2026-04-12T13:45:14.949Z</time></trkpt><trkpt lat="43.7862886" lon="11.3905354"><ele>81.0</ele><time>2026-04-12T13:45:15.949Z</time></trkpt><trkpt lat="43.786393" lon="11.3902079"><ele>81.5</ele><time>2026-04-12T13:45:16.948Z</time></trkpt><trkpt lat="43.7864931" lon="11.389884"><ele>82.0</ele><time>2026-04-12T13:45:17.948Z</time></trkpt><trkpt lat="43.7865901" lon="11.3895738"><ele>83.66666666666666</ele><time>2026-04-12T13:45:18.948Z</time></trkpt><trkpt lat="43.7866811" lon="11.3892811"><ele>85.33333333333333</ele><time>2026-04-12T13:45:19.949Z</time></trkpt><trkpt lat="43.7867668" lon="11.3890046"><ele>87.0</ele><time>2026-04-12T13:45:20.949Z</time></trkpt><trkpt lat="43.7868366" lon="11.3887283"><ele>84.0</ele><time>2026-04-12T13:45:21.949Z</time></trkpt><trkpt lat="43.786888" lon="11.3884382"><ele>81.0</ele><time>2026-04-12T13:45:22.948Z</time></trkpt><trkpt lat="43.7869157" lon="11.3881348"><ele>78.0</ele><time>2026-04-12T13:45:23.948Z</time></trkpt><trkpt lat="43.786917" lon="11.3878165"><ele>78.0</ele><time>2026-04-12T13:45:24.948Z</time></trkpt><trkpt lat="43.7869056" lon="11.3874913"><ele>78.0</ele><time>2026-04-12T13:45:25.947Z</time></trkpt><trkpt lat="43.7868853" lon="11.3871654"><ele>78.0</ele><time>2026-04-12T13:45:26.948Z</time></trkpt><trkpt lat="43.7868624" lon="11.3868365"><ele>78.0</ele><time>2026-04-12T13:45:27.948Z</time></trkpt><trkpt lat="43.7868426" lon="11.3865121"><ele>78.33333333333333</ele><time>2026-04-12T13:45:28.948Z</time></trkpt><trkpt lat="43.7868227" lon="11.3862038"><ele>78.66666666666666</ele><time>2026-04-12T13:45:29.949Z</time></trkpt><trkpt lat="43.7868024" lon="11.3858948"><ele>79.0</ele><time>2026-04-12T13:45:30.948Z</time></trkpt><trkpt lat="43.7867817" lon="11.3855954"><ele>78.66666666666666</ele><time>2026-04-12T13:45:31.949Z</time></trkpt><trkpt lat="43.7867561" lon="11.38531"><ele>78.33333333333333</ele><time>2026-04-12T13:45:32.948Z</time></trkpt><trkpt lat="43.7867224" lon="11.3850409"><ele>78.0</ele><time>2026-04-12T13:45:33.949Z</time></trkpt><trkpt lat="43.7866723" lon="11.3847887"><ele>77.33333333333333</ele><time>2026-04-12T13:45:34.949Z</time></trkpt><trkpt lat="43.7866133" lon="11.3845485"><ele>76.66666666666666</ele><time>2026-04-12T13:45:35.949Z</time></trkpt><trkpt lat="43.7865465" lon="11.384325"><ele>76.0</ele><time>2026-04-12T13:45:36.949Z</time></trkpt><trkpt lat="43.7864667" lon="11.3841235"><ele>76.0</ele><time>2026-04-12T13:45:37.949Z</time></trkpt><trkpt lat="43.7863798" lon="11.3839339"><ele>76.0</ele><time>2026-04-12T13:45:38.949Z</time></trkpt><trkpt lat="43.7862905" lon="11.3837617"><ele>76.0</ele><time>2026-04-12T13:45:39.949Z</time></trkpt><trkpt lat="43.7862001" lon="11.3836006"><ele>76.25</ele><time>2026-04-12T13:45:40.949Z</time></trkpt><trkpt lat="43.7861109" lon="11.3834515"><ele>76.5</ele><time>2026-04-12T13:45:41.949Z</time></trkpt><trkpt lat="43.7860168" lon="11.3833021"><ele>76.75</ele><time>2026-04-12T13:45:42.949Z</time></trkpt><trkpt lat="43.7859161" lon="11.3831519"><ele>77.0</ele><time>2026-04-12T13:45:43.948Z</time></trkpt><trkpt lat="43.785803" lon="11.3830101"><ele>75.5</ele><time>2026-04-12T13:45:44.948Z</time></trkpt><trkpt lat="43.7856855" lon="11.3828859"><ele>74.0</ele><time>2026-04-12T13:45:45.949Z</time></trkpt><trkpt lat="43.7855661" lon="11.3827746"><ele>72.5</ele><time>2026-04-12T13:45:46.948Z</time></trkpt><trkpt lat="43.7854395" lon="11.382669"><ele>71.0</ele><time>2026-04-12T13:45:47.948Z</time></trkpt><trkpt lat="43.7853021" lon="11.3825696"><ele>71.0</ele><time>2026-04-12T13:45:48.949Z</time></trkpt><trkpt lat="43.78517" lon="11.3824756"><ele>71.0</ele><time>2026-04-12T13:45:49.948Z</time></trkpt><trkpt lat="43.7850414" lon="11.3823825"><ele>71.0</ele><time>2026-04-12T13:45:50.949Z</time></trkpt><trkpt lat="43.7849249" lon="11.3822753"><ele>71.0</ele><time>2026-04-12T13:45:51.948Z</time></trkpt><trkpt lat="43.7848243" lon="11.3821543"><ele>71.0</ele><time>2026-04-12T13:45:52.949Z</time></trkpt><trkpt lat="43.7847349" lon="11.3820299"><ele>71.0</ele><time>2026-04-12T13:45:53.948Z</time></trkpt><trkpt lat="43.7846553" lon="11.3818951"><ele>71.0</ele><time>2026-04-12T13:45:54.948Z</time></trkpt><trkpt lat="43.7845795" lon="11.3817444"><ele>71.0</ele><time>2026-04-12T13:45:55.948Z</time></trkpt><trkpt lat="43.7845077" lon="11.3815929"><ele>71.0</ele><time>2026-04-12T13:45:56.947Z</time></trkpt><trkpt lat="43.7844428" lon="11.3814495"><ele>71.0</ele><time>2026-04-12T13:45:57.948Z</time></trkpt><trkpt lat="43.7843783" lon="11.3813183"><ele>71.0</ele><time>2026-04-12T13:45:58.948Z</time></trkpt><trkpt lat="43.7843085" lon="11.3811731"><ele>71.0</ele><time>2026-04-12T13:45:59.949Z</time></trkpt><trkpt lat="43.7842354" lon="11.3810198"><ele>73.0</ele><time>2026-04-12T13:46:00.948Z</time></trkpt><trkpt lat="43.784163" lon="11.3808661"><ele>75.0</ele><time>2026-04-12T13:46:01.949Z</time></trkpt><trkpt lat="43.7840998" lon="11.3806994"><ele>77.0</ele><time>2026-04-12T13:46:02.949Z</time></trkpt><trkpt lat="43.7840392" lon="11.3805335"><ele>79.0</ele><time>2026-04-12T13:46:03.949Z</time></trkpt><trkpt lat="43.7839822" lon="11.3803726"><ele>79.0</ele><time>2026-04-12T13:46:04.948Z</time></trkpt><trkpt lat="43.7839327" lon="11.3802112"><ele>79.0</ele><time>2026-04-12T13:46:05.948Z</time></trkpt><trkpt lat="43.7838832" lon="11.3800497"><ele>79.0</ele><time>2026-04-12T13:46:06.948Z</time></trkpt><trkpt lat="43.7838317" lon="11.3798838"><ele>79.0</ele><time>2026-04-12T13:46:07.947Z</time></trkpt><trkpt lat="43.7837836" lon="11.37972"><ele>78.0</ele><time>2026-04-12T13:46:08.948Z</time></trkpt><trkpt lat="43.7837382" lon="11.3795496"><ele>77.0</ele><time>2026-04-12T13:46:09.948Z</time></trkpt><trkpt lat="43.7836955" lon="11.3793636"><ele>76.0</ele><time>2026-04-12T13:46:10.949Z</time></trkpt><trkpt lat="43.7836556" lon="11.3791677"><ele>75.0</ele><time>2026-04-12T13:46:11.948Z</time></trkpt><trkpt lat="43.7836234" lon="11.3789648"><ele>73.66666666666667</ele><time>2026-04-12T13:46:12.949Z</time></trkpt><trkpt lat="43.783576" lon="11.378763"><ele>72.33333333333334</ele><time>2026-04-12T13:46:13.949Z</time></trkpt><trkpt lat="43.7835279" lon="11.3785648"><ele>71.0</ele><time>2026-04-12T13:46:14.949Z</time></trkpt><trkpt lat="43.7834717" lon="11.3783706"><ele>78.0</ele><time>2026-04-12T13:46:15.949Z</time></trkpt><trkpt lat="43.7834162" lon="11.3781745"><ele>85.0</ele><time>2026-04-12T13:46:16.948Z</time></trkpt><trkpt lat="43.7833576" lon="11.3779693"><ele>92.0</ele><time>2026-04-12T13:46:17.949Z</time></trkpt><trkpt lat="43.7832885" lon="11.3777272"><ele>92.0</ele><time>2026-04-12T13:46:18.949Z</time></trkpt><trkpt lat="43.7832106" lon="11.3774553"><ele>92.0</ele><time>2026-04-12T13:46:19.948Z</time></trkpt><trkpt lat="43.7831364" lon="11.3771804"><ele>92.0</ele><time>2026-04-12T13:46:20.947Z</time></trkpt><trkpt lat="43.7830633" lon="11.376928"><ele>89.33333333333334</ele><time>2026-04-12T13:46:21.949Z</time></trkpt><trkpt lat="43.7829968" lon="11.3766925"><ele>86.66666666666667</ele><time>2026-04-12T13:46:22.948Z</time></trkpt><trkpt lat="43.7829347" lon="11.3764696"><ele>84.0</ele><time>2026-04-12T13:46:23.949Z</time></trkpt><trkpt lat="43.7828771" lon="11.3762548"><ele>81.0</ele><time>2026-04-12T13:46:24.947Z</time></trkpt><trkpt lat="43.7828274" lon="11.3760516"><ele>78.0</ele><time>2026-04-12T13:46:25.949Z</time></trkpt><trkpt lat="43.7827822" lon="11.3758464"><ele>75.0</ele><time>2026-04-12T13:46:26.948Z</time></trkpt><trkpt lat="43.7827427" lon="11.3756326"><ele>73.33333333333333</ele><time>2026-04-12T13:46:27.949Z</time></trkpt><trkpt lat="43.7827096" lon="11.3754164"><ele>71.66666666666666</ele><time>2026-04-12T13:46:28.948Z</time></trkpt><trkpt lat="43.782677" lon="11.3752022"><ele>70.0</ele><time>2026-04-12T13:46:29.948Z</time></trkpt><trkpt lat="43.7826528" lon="11.3750057"><ele>72.5</ele><time>2026-04-12T13:46:30.947Z</time></trkpt><trkpt lat="43.7826347" lon="11.3748113"><ele>75.0</ele><time>2026-04-12T13:46:31.949Z</time></trkpt><trkpt lat="43.7826191" lon="11.3746238"><ele>77.5</ele><time>2026-04-12T13:46:32.948Z</time></trkpt><trkpt lat="43.7826077" lon="11.3744261"><ele>80.0</ele><time>2026-04-12T13:46:33.948Z</time></trkpt><trkpt lat="43.7826" lon="11.3742154"><ele>80.0</ele><time>2026-04-12T13:46:34.947Z</time></trkpt><trkpt lat="43.7825916" lon="11.3740106"><ele>80.0</ele><time>2026-04-12T13:46:35.949Z</time></trkpt><trkpt lat="43.7825843" lon="11.3738144"><ele>80.0</ele><time>2026-04-12T13:46:36.948Z</time></trkpt><trkpt lat="43.7825769" lon="11.3736191"><ele>80.0</ele><time>2026-04-12T13:46:37.948Z</time></trkpt><trkpt lat="43.78257" lon="11.3734136"><ele>79.66666666666667</ele><time>2026-04-12T13:46:38.949Z</time></trkpt><trkpt lat="43.7825644" lon="11.3731976"><ele>79.33333333333333</ele><time>2026-04-12T13:46:39.949Z</time></trkpt><trkpt lat="43.7825564" lon="11.3729751"><ele>79.0</ele><time>2026-04-12T13:46:40.948Z</time></trkpt><trkpt lat="43.7825465" lon="11.3727619"><ele>78.75</ele><time>2026-04-12T13:46:41.949Z</time></trkpt><trkpt lat="43.7825402" lon="11.3725518"><ele>78.5</ele><time>2026-04-12T13:46:42.949Z</time></trkpt><trkpt lat="43.7825368" lon="11.3723581"><ele>78.25</ele><time>2026-04-12T13:46:43.948Z</time></trkpt><trkpt lat="43.7825347" lon="11.3721771"><ele>78.0</ele><time>2026-04-12T13:46:44.949Z</time></trkpt><trkpt lat="43.7825398" lon="11.3720092"><ele>78.0</ele><time>2026-04-12T13:46:45.949Z</time></trkpt><trkpt lat="43.7825475" lon="11.3718515"><ele>78.0</ele><time>2026-04-12T13:46:46.949Z</time></trkpt><trkpt lat="43.782559" lon="11.3717044"><ele>78.0</ele><time>2026-04-12T13:46:47.948Z</time></trkpt><trkpt lat="43.7825699" lon="11.3715615"><ele>78.0</ele><time>2026-04-12T13:46:48.949Z</time></trkpt><trkpt lat="43.7825823" lon="11.3713951"><ele>78.0</ele><time>2026-04-12T13:46:49.949Z</time></trkpt><trkpt lat="43.7825969" lon="11.371206"><ele>78.66666666666667</ele><time>2026-04-12T13:46:50.947Z</time></trkpt><trkpt lat="43.7826215" lon="11.370997"><ele>79.33333333333334</ele><time>2026-04-12T13:46:51.947Z</time></trkpt><trkpt lat="43.7826445" lon="11.3707791"><ele>80.0</ele><time>2026-04-12T13:46:52.949Z</time></trkpt><trkpt lat="43.7826642" lon="11.3705671"><ele>76.5</ele><time>2026-04-12T13:46:53.949Z</time></trkpt><trkpt lat="43.7826826" lon="11.3703681"><ele>73.0</ele><time>2026-04-12T13:46:54.948Z</time></trkpt><trkpt lat="43.7827011" lon="11.3701809"><ele>69.5</ele><time>2026-04-12T13:46:55.949Z</time></trkpt><trkpt lat="43.7827194" lon="11.3699984"><ele>66.0</ele><time>2026-04-12T13:46:56.948Z</time></trkpt><trkpt lat="43.7827385" lon="11.3698096"><ele>66.5</ele><time>2026-04-12T13:46:57.948Z</time></trkpt><trkpt lat="43.7827599" lon="11.3696159"><ele>67.0</ele><time>2026-04-12T13:46:58.948Z</time></trkpt><trkpt lat="43.782781" lon="11.3694196"><ele>67.5</ele><time>2026-04-12T13:46:59.948Z</time></trkpt><trkpt lat="43.7827994" lon="11.369211"><ele>68.0</ele><time>2026-04-12T13:47:00.949Z</time></trkpt><trkpt lat="43.7828172" lon="11.3689881"><ele>68.75</ele><time>2026-04-12T13:47:01.949Z</time></trkpt><trkpt lat="43.7828363" lon="11.3687715"><ele>69.5</ele><time>2026-04-12T13:47:02.949Z</time></trkpt><trkpt lat="43.7828556" lon="11.3685665"><ele>70.25</ele><time>2026-04-12T13:47:03.947Z</time></trkpt><trkpt lat="43.7828731" lon="11.3683723"><ele>71.0</ele><time>2026-04-12T13:47:04.949Z</time></trkpt><trkpt lat="43.7828865" lon="11.3681898"><ele>70.5</ele><time>2026-04-12T13:47:05.948Z</time></trkpt><trkpt lat="43.7828921" lon="11.3680068"><ele>70.0</ele><time>2026-04-12T13:47:06.949Z</time></trkpt><trkpt lat="43.7828883" lon="11.3678256"><ele>69.5</ele><time>2026-04-12T13:47:07.948Z</time></trkpt><trkpt lat="43.7828781" lon="11.3676477"><ele>69.0</ele><time>2026-04-12T13:47:08.949Z</time></trkpt><trkpt lat="43.7828579" lon="11.3674675"><ele>69.0</ele><time>2026-04-12T13:47:09.947Z</time></trkpt><trkpt lat="43.7828297" lon="11.3672827"><ele>69.0</ele><time>2026-04-12T13:47:10.949Z</time></trkpt><trkpt lat="43.7827936" lon="11.3671009"><ele>69.0</ele><time>2026-04-12T13:47:11.949Z</time></trkpt><trkpt lat="43.7827501" lon="11.3669225"><ele>69.0</ele><time>2026-04-12T13:47:12.947Z</time></trkpt><trkpt lat="43.7826957" lon="11.3667412"><ele>70.25</ele><time>2026-04-12T13:47:13.949Z</time></trkpt><trkpt lat="43.7826322" lon="11.366571"><ele>71.5</ele><time>2026-04-12T13:47:14.947Z</time></trkpt><trkpt lat="43.7825633" lon="11.3664017"><ele>72.75</ele><time>2026-04-12T13:47:15.948Z</time></trkpt><trkpt lat="43.782485" lon="11.3662402"><ele>74.0</ele><time>2026-04-12T13:47:16.949Z</time></trkpt><trkpt lat="43.782407" lon="11.3661009"><ele>74.0</ele><time>2026-04-12T13:47:17.949Z</time></trkpt><trkpt lat="43.7823312" lon="11.3659835"><ele>74.0</ele><time>2026-04-12T13:47:18.948Z</time></trkpt><trkpt lat="43.7822572" lon="11.3658723"><ele>74.0</ele><time>2026-04-12T13:47:19.949Z</time></trkpt><trkpt lat="43.7821703" lon="11.3657684"><ele>74.0</ele><time>2026-04-12T13:47:20.946Z</time></trkpt><trkpt lat="43.7820811" lon="11.3656752"><ele>74.0</ele><time>2026-04-12T13:47:21.948Z</time></trkpt><trkpt lat="43.7819892" lon="11.365576"><ele>74.0</ele><time>2026-04-12T13:47:22.948Z</time></trkpt><trkpt lat="43.7818946" lon="11.3654834"><ele>74.0</ele><time>2026-04-12T13:47:23.949Z</time></trkpt><trkpt lat="43.7818005" lon="11.3653931"><ele>74.0</ele><time>2026-04-12T13:47:24.949Z</time></trkpt><trkpt lat="43.7817091" lon="11.3653063"><ele>74.0</ele><time>2026-04-12T13:47:25.948Z</time></trkpt><trkpt lat="43.7816221" lon="11.3652231"><ele>74.0</ele><time>2026-04-12T13:47:26.949Z</time></trkpt><trkpt lat="43.7815287" lon="11.365137"><ele>75.25</ele><time>2026-04-12T13:47:27.948Z</time></trkpt><trkpt lat="43.7814276" lon="11.3650544"><ele>76.5</ele><time>2026-04-12T13:47:28.949Z</time></trkpt><trkpt lat="43.7813282" lon="11.3649661"><ele>77.75</ele><time>2026-04-12T13:47:29.949Z</time></trkpt><trkpt lat="43.7812214" lon="11.3648833"><ele>79.0</ele><time>2026-04-12T13:47:30.948Z</time></trkpt><trkpt lat="43.7811065" lon="11.3648002"><ele>79.0</ele><time>2026-04-12T13:47:31.949Z</time></trkpt><trkpt lat="43.7809903" lon="11.3647224"><ele>79.0</ele><time>2026-04-12T13:47:32.949Z</time></trkpt><trkpt lat="43.7808692" lon="11.3646473"><ele>79.0</ele><time>2026-04-12T13:47:33.947Z</time></trkpt><trkpt lat="43.7807432" lon="11.3645813"><ele>79.0</ele><time>2026-04-12T13:47:34.949Z</time></trkpt><trkpt lat="43.7806034" lon="11.3645146"><ele>79.0</ele><time>2026-04-12T13:47:35.947Z</time></trkpt><trkpt lat="43.7804679" lon="11.3644562"><ele>79.0</ele><time>2026-04-12T13:47:36.948Z</time></trkpt><trkpt lat="43.7803386" lon="11.3644016"><ele>79.0</ele><time>2026-04-12T13:47:37.949Z</time></trkpt><trkpt lat="43.7802097" lon="11.3643472"><ele>79.0</ele><time>2026-04-12T13:47:38.948Z</time></trkpt><trkpt lat="43.7800806" lon="11.3642952"><ele>80.0</ele><time>2026-04-12T13:47:39.947Z</time></trkpt><trkpt lat="43.7799457" lon="11.3642371"><ele>81.0</ele><time>2026-04-12T13:47:40.948Z</time></trkpt><trkpt lat="43.7797938" lon="11.3641827"><ele>82.0</ele><time>2026-04-12T13:47:41.948Z</time></trkpt><trkpt lat="43.7796197" lon="11.3641269"><ele>82.0</ele><time>2026-04-12T13:47:42.948Z</time></trkpt><trkpt lat="43.7793905" lon="11.3640417"><ele>82.0</ele><time>2026-04-12T13:47:43.949Z</time></trkpt><trkpt lat="43.7791577" lon="11.3639628"><ele>81.0</ele><time>2026-04-12T13:47:44.949Z</time></trkpt><trkpt lat="43.7789047" lon="11.3638906"><ele>80.0</ele><time>2026-04-12T13:47:45.948Z</time></trkpt><trkpt lat="43.7786612" lon="11.3638504"><ele>77.66666666666667</ele><time>2026-04-12T13:47:46.949Z</time></trkpt><trkpt lat="43.7784322" lon="11.3638329"><ele>75.33333333333333</ele><time>2026-04-12T13:47:47.948Z</time></trkpt><trkpt lat="43.778217" lon="11.3638302"><ele>73.0</ele><time>2026-04-12T13:47:48.949Z</time></trkpt><trkpt lat="43.7780155" lon="11.3638373"><ele>73.0</ele><time>2026-04-12T13:47:49.949Z</time></trkpt><trkpt lat="43.7778269" lon="11.3638392"><ele>73.0</ele><time>2026-04-12T13:47:50.949Z</time></trkpt><trkpt lat="43.7776494" lon="11.363829"><ele>73.0</ele><time>2026-04-12T13:47:51.949Z</time></trkpt><trkpt lat="43.777479" lon="11.363807"><ele>72.0</ele><time>2026-04-12T13:47:52.949Z</time></trkpt><trkpt lat="43.7773047" lon="11.3637699"><ele>71.0</ele><time>2026-04-12T13:47:53.948Z</time></trkpt><trkpt lat="43.7771234" lon="11.3637091"><ele>70.0</ele><time>2026-04-12T13:47:54.949Z</time></trkpt><trkpt lat="43.7769474" lon="11.3636339"><ele>69.66666666666666</ele><time>2026-04-12T13:47:55.947Z</time></trkpt><trkpt lat="43.7767788" lon="11.3635476"><ele>69.33333333333333</ele><time>2026-04-12T13:47:56.949Z</time></trkpt><trkpt lat="43.7766195" lon="11.3634709"><ele>69.0</ele><time>2026-04-12T13:47:57.947Z</time></trkpt><trkpt lat="43.7764597" lon="11.3633921"><ele>69.0</ele><time>2026-04-12T13:47:58.948Z</time></trkpt><trkpt lat="43.7762872" lon="11.3633064"><ele>69.0</ele><time>2026-04-12T13:47:59.949Z</time></trkpt><trkpt lat="43.7761202" lon="11.3632182"><ele>69.0</ele><time>2026-04-12T13:48:00.948Z</time></trkpt><trkpt lat="43.7759659" lon="11.3631381"><ele>69.0</ele><time>2026-04-12T13:48:01.948Z</time></trkpt><trkpt lat="43.7758284" lon="11.3630751"><ele>69.0</ele><time>2026-04-12T13:48:02.948Z</time></trkpt><trkpt lat="43.7757128" lon="11.3630322"><ele>69.0</ele><time>2026-04-12T13:48:03.949Z</time></trkpt><trkpt lat="43.7756184" lon="11.3629982"><ele>69.0</ele><time>2026-04-12T13:48:04.946Z</time></trkpt><trkpt lat="43.7755443" lon="11.3629748"><ele>69.0</ele><time>2026-04-12T13:48:05.949Z</time></trkpt><trkpt lat="43.7754605" lon="11.362954"><ele>68.60000000000001</ele><time>2026-04-12T13:48:07.948Z</time></trkpt><trkpt lat="43.7753977" lon="11.3629368"><ele>68.2</ele><time>2026-04-12T13:48:10.947Z</time></trkpt><trkpt lat="43.7753269" lon="11.3629116"><ele>67.80000000000001</ele><time>2026-04-12T13:48:11.948Z</time></trkpt><trkpt lat="43.7752362" lon="11.3628819"><ele>67.4</ele><time>2026-04-12T13:48:12.947Z</time></trkpt><trkpt lat="43.7751291" lon="11.3628512"><ele>67.0</ele><time>2026-04-12T13:48:13.949Z</time></trkpt><trkpt lat="43.775002" lon="11.3628177"><ele>66.75</ele><time>2026-04-12T13:48:14.948Z</time></trkpt><trkpt lat="43.7748573" lon="11.3627781"><ele>66.5</ele><time>2026-04-12T13:48:15.947Z</time></trkpt><trkpt lat="43.774711" lon="11.3627381"><ele>66.25</ele><time>2026-04-12T13:48:16.947Z</time></trkpt><trkpt lat="43.7745626" lon="11.3627016"><ele>66.0</ele><time>2026-04-12T13:48:17.949Z</time></trkpt><trkpt lat="43.7744357" lon="11.36267"><ele>66.0</ele><time>2026-04-12T13:48:18.948Z</time></trkpt><trkpt lat="43.7743073" lon="11.362639"><ele>66.0</ele><time>2026-04-12T13:48:19.947Z</time></trkpt><trkpt lat="43.7742015" lon="11.3626125"><ele>66.0</ele><time>2026-04-12T13:48:20.948Z</time></trkpt><trkpt lat="43.7740988" lon="11.3625857"><ele>66.0</ele><time>2026-04-12T13:48:21.948Z</time></trkpt><trkpt lat="43.7739998" lon="11.3625559"><ele>66.0</ele><time>2026-04-12T13:48:22.947Z</time></trkpt><trkpt lat="43.7739033" lon="11.3625292"><ele>66.0</ele><time>2026-04-12T13:48:23.946Z</time></trkpt><trkpt lat="43.7738075" lon="11.3625004"><ele>66.0</ele><time>2026-04-12T13:48:24.948Z</time></trkpt><trkpt lat="43.7737066" lon="11.3624733"><ele>66.0</ele><time>2026-04-12T13:48:25.948Z</time></trkpt><trkpt lat="43.77361" lon="11.3624459"><ele>66.0</ele><time>2026-04-12T13:48:26.949Z</time></trkpt><trkpt lat="43.7735157" lon="11.3624203"><ele>66.0</ele><time>2026-04-12T13:48:27.947Z</time></trkpt><trkpt lat="43.7734234" lon="11.3623984"><ele>66.6</ele><time>2026-04-12T13:48:28.947Z</time></trkpt><trkpt lat="43.7733343" lon="11.3623747"><ele>67.19999999999999</ele><time>2026-04-12T13:48:29.949Z</time></trkpt><trkpt lat="43.773239" lon="11.3623514"><ele>67.80000000000001</ele><time>2026-04-12T13:48:30.949Z</time></trkpt><trkpt lat="43.7731314" lon="11.3623267"><ele>68.4</ele><time>2026-04-12T13:48:31.948Z</time></trkpt><trkpt lat="43.7729923" lon="11.3622892"><ele>69.0</ele><time>2026-04-12T13:48:32.948Z</time></trkpt><trkpt lat="43.7728523" lon="11.3622501"><ele>69.0</ele><time>2026-04-12T13:48:33.949Z</time></trkpt><trkpt lat="43.7727151" lon="11.3622101"><ele>69.0</ele><time>2026-04-12T13:48:34.948Z</time></trkpt><trkpt lat="43.7725844" lon="11.3621589"><ele>69.0</ele><time>2026-04-12T13:48:35.948Z</time></trkpt><trkpt lat="43.7724629" lon="11.3620882"><ele>69.0</ele><time>2026-04-12T13:48:36.947Z</time></trkpt><trkpt lat="43.7723433" lon="11.3620024"><ele>68.75</ele><time>2026-04-12T13:48:37.948Z</time></trkpt><trkpt lat="43.7722619" lon="11.3618684"><ele>68.5</ele><time>2026-04-12T13:48:38.949Z</time></trkpt><trkpt lat="43.7721954" lon="11.36171"><ele>68.25</ele><time>2026-04-12T13:48:39.948Z</time></trkpt><trkpt lat="43.7721533" lon="11.3615198"><ele>68.0</ele><time>2026-04-12T13:48:40.949Z</time></trkpt><trkpt lat="43.7721053" lon="11.3613101"><ele>65.0</ele><time>2026-04-12T13:48:41.947Z</time></trkpt><trkpt lat="43.772033" lon="11.3610955"><ele>62.0</ele><time>2026-04-12T13:48:42.947Z</time></trkpt><trkpt lat="43.7719545" lon="11.3608737"><ele>59.0</ele><time>2026-04-12T13:48:43.948Z</time></trkpt><trkpt lat="43.7718747" lon="11.3606306"><ele>62.333333333333336</ele><time>2026-04-12T13:48:44.949Z</time></trkpt><trkpt lat="43.771813" lon="11.3603775"><ele>65.66666666666667</ele><time>2026-04-12T13:48:45.948Z</time></trkpt><trkpt lat="43.7717787" lon="11.3601069"><ele>69.0</ele><time>2026-04-12T13:48:46.948Z</time></trkpt><trkpt lat="43.7717596" lon="11.3598223"><ele>69.0</ele><time>2026-04-12T13:48:47.947Z</time></trkpt><trkpt lat="43.771735" lon="11.3595247"><ele>69.0</ele><time>2026-04-12T13:48:48.948Z</time></trkpt><trkpt lat="43.7717057" lon="11.359215"><ele>69.0</ele><time>2026-04-12T13:48:49.949Z</time></trkpt><trkpt lat="43.7716743" lon="11.3589113"><ele>68.66666666666667</ele><time>2026-04-12T13:48:50.948Z</time></trkpt><trkpt lat="43.7716343" lon="11.3586266"><ele>68.33333333333334</ele><time>2026-04-12T13:48:51.947Z</time></trkpt><trkpt lat="43.7715976" lon="11.3583617"><ele>68.0</ele><time>2026-04-12T13:48:52.948Z</time></trkpt><trkpt lat="43.7715645" lon="11.3581105"><ele>68.0</ele><time>2026-04-12T13:48:53.948Z</time></trkpt><trkpt lat="43.7715411" lon="11.3578568"><ele>68.0</ele><time>2026-04-12T13:48:54.948Z</time></trkpt><trkpt lat="43.7715361" lon="11.3575936"><ele>68.0</ele><time>2026-04-12T13:48:55.948Z</time></trkpt><trkpt lat="43.7715593" lon="11.3573192"><ele>67.66666666666667</ele><time>2026-04-12T13:48:56.949Z</time></trkpt><trkpt lat="43.7715956" lon="11.3570366"><ele>67.33333333333333</ele><time>2026-04-12T13:48:57.948Z</time></trkpt><trkpt lat="43.7716199" lon="11.3567447"><ele>67.0</ele><time>2026-04-12T13:48:58.947Z</time></trkpt><trkpt lat="43.7716296" lon="11.3564344"><ele>66.5</ele><time>2026-04-12T13:48:59.949Z</time></trkpt><trkpt lat="43.7716338" lon="11.3561189"><ele>66.0</ele><time>2026-04-12T13:49:00.948Z</time></trkpt><trkpt lat="43.7716029" lon="11.3557876"><ele>66.0</ele><time>2026-04-12T13:49:01.949Z</time></trkpt><trkpt lat="43.7715767" lon="11.3554512"><ele>66.0</ele><time>2026-04-12T13:49:02.947Z</time></trkpt><trkpt lat="43.7715275" lon="11.3551149"><ele>66.0</ele><time>2026-04-12T13:49:03.948Z</time></trkpt><trkpt lat="43.7714752" lon="11.3547751"><ele>66.0</ele><time>2026-04-12T13:49:04.948Z</time></trkpt><trkpt lat="43.7714056" lon="11.3544327"><ele>65.0</ele><time>2026-04-12T13:49:05.947Z</time></trkpt><trkpt lat="43.771324" lon="11.3540904"><ele>64.0</ele><time>2026-04-12T13:49:06.948Z</time></trkpt><trkpt lat="43.7712305" lon="11.3537436"><ele>64.0</ele><time>2026-04-12T13:49:07.949Z</time></trkpt><trkpt lat="43.7711313" lon="11.3534005"><ele>64.0</ele><time>2026-04-12T13:49:08.948Z</time></trkpt><trkpt lat="43.7710265" lon="11.353055"><ele>67.0</ele><time>2026-04-12T13:49:09.949Z</time></trkpt><trkpt lat="43.7709159" lon="11.3527126"><ele>70.0</ele><time>2026-04-12T13:49:10.948Z</time></trkpt><trkpt lat="43.7707981" lon="11.3523709"><ele>67.5</ele><time>2026-04-12T13:49:11.948Z</time></trkpt><trkpt lat="43.7706715" lon="11.3520365"><ele>65.0</ele><time>2026-04-12T13:49:12.948Z</time></trkpt><trkpt lat="43.7705419" lon="11.3517016"><ele>64.0</ele><time>2026-04-12T13:49:13.948Z</time></trkpt><trkpt lat="43.7704064" lon="11.3513715"><ele>63.0</ele><time>2026-04-12T13:49:14.948Z</time></trkpt><trkpt lat="43.7702732" lon="11.3510381"><ele>64.0</ele><time>2026-04-12T13:49:15.947Z</time></trkpt><trkpt lat="43.7701403" lon="11.3507059"><ele>65.0</ele><time>2026-04-12T13:49:16.947Z</time></trkpt><trkpt lat="43.7700024" lon="11.3503686"><ele>65.0</ele><time>2026-04-12T13:49:17.947Z</time></trkpt><trkpt lat="43.7698644" lon="11.3500372"><ele>65.0</ele><time>2026-04-12T13:49:18.948Z</time></trkpt><trkpt lat="43.7697237" lon="11.3497049"><ele>64.0</ele><time>2026-04-12T13:49:19.949Z</time></trkpt><trkpt lat="43.769588" lon="11.3493766"><ele>63.0</ele><time>2026-04-12T13:49:20.948Z</time></trkpt><trkpt lat="43.7694555" lon="11.3490544"><ele>65.5</ele><time>2026-04-12T13:49:21.949Z</time></trkpt><trkpt lat="43.7693245" lon="11.3487355"><ele>68.0</ele><time>2026-04-12T13:49:22.949Z</time></trkpt><trkpt lat="43.7691953" lon="11.3484147"><ele>68.0</ele><time>2026-04-12T13:49:23.947Z</time></trkpt><trkpt lat="43.7690643" lon="11.3480939"><ele>68.0</ele><time>2026-04-12T13:49:24.948Z</time></trkpt><trkpt lat="43.7689323" lon="11.3477728"><ele>66.5</ele><time>2026-04-12T13:49:25.948Z</time></trkpt><trkpt lat="43.7687938" lon="11.3474465"><ele>65.0</ele><time>2026-04-12T13:49:26.947Z</time></trkpt><trkpt lat="43.768657" lon="11.3471127"><ele>69.0</ele><time>2026-04-12T13:49:27.948Z</time></trkpt><trkpt lat="43.7685227" lon="11.3467884"><ele>73.0</ele><time>2026-04-12T13:49:28.949Z</time></trkpt><trkpt lat="43.7683963" lon="11.3464795"><ele>69.5</ele><time>2026-04-12T13:49:29.948Z</time></trkpt><trkpt lat="43.7682763" lon="11.3461754"><ele>66.0</ele><time>2026-04-12T13:49:30.948Z</time></trkpt><trkpt lat="43.7681554" lon="11.3458737"><ele>66.0</ele><time>2026-04-12T13:49:31.949Z</time></trkpt><trkpt lat="43.7679979" lon="11.3455781"><ele>66.0</ele><time>2026-04-12T13:49:32.948Z</time></trkpt><trkpt lat="43.7678347" lon="11.3452956"><ele>67.0</ele><time>2026-04-12T13:49:33.948Z</time></trkpt><trkpt lat="43.767658" lon="11.3450381"><ele>68.0</ele><time>2026-04-12T13:49:34.948Z</time></trkpt><trkpt lat="43.7674846" lon="11.3447998"><ele>66.33333333333334</ele><time>2026-04-12T13:49:35.948Z</time></trkpt><trkpt lat="43.7673175" lon="11.3445766"><ele>64.66666666666667</ele><time>2026-04-12T13:49:36.948Z</time></trkpt><trkpt lat="43.7671638" lon="11.3443681"><ele>63.0</ele><time>2026-04-12T13:49:37.947Z</time></trkpt><trkpt lat="43.767018" lon="11.3441656"><ele>63.0</ele><time>2026-04-12T13:49:38.947Z</time></trkpt><trkpt lat="43.7668721" lon="11.3439684"><ele>63.0</ele><time>2026-04-12T13:49:39.947Z</time></trkpt><trkpt lat="43.7667259" lon="11.3437674"><ele>63.0</ele><time>2026-04-12T13:49:40.949Z</time></trkpt><trkpt lat="43.7665783" lon="11.3435581"><ele>62.66666666666667</ele><time>2026-04-12T13:49:41.949Z</time></trkpt><trkpt lat="43.7664281" lon="11.3433516"><ele>62.333333333333336</ele><time>2026-04-12T13:49:42.948Z</time></trkpt><trkpt lat="43.7662765" lon="11.34314"><ele>62.0</ele><time>2026-04-12T13:49:43.948Z</time></trkpt><trkpt lat="43.7661219" lon="11.3429286"><ele>64.66666666666667</ele><time>2026-04-12T13:49:44.948Z</time></trkpt><trkpt lat="43.7659669" lon="11.3427185"><ele>67.33333333333333</ele><time>2026-04-12T13:49:45.949Z</time></trkpt><trkpt lat="43.7658089" lon="11.3424969"><ele>70.0</ele><time>2026-04-12T13:49:46.948Z</time></trkpt><trkpt lat="43.7656621" lon="11.3422486"><ele>68.5</ele><time>2026-04-12T13:49:47.948Z</time></trkpt><trkpt lat="43.7655208" lon="11.3419886"><ele>67.0</ele><time>2026-04-12T13:49:48.949Z</time></trkpt><trkpt lat="43.7654088" lon="11.3416927"><ele>67.0</ele><time>2026-04-12T13:49:49.948Z</time></trkpt><trkpt lat="43.7652823" lon="11.3414186"><ele>67.0</ele><time>2026-04-12T13:49:50.949Z</time></trkpt><trkpt lat="43.7651574" lon="11.3411708"><ele>65.66666666666666</ele><time>2026-04-12T13:49:51.948Z</time></trkpt><trkpt lat="43.765035" lon="11.3409341"><ele>64.33333333333333</ele><time>2026-04-12T13:49:52.949Z</time></trkpt><trkpt lat="43.7649189" lon="11.3407149"><ele>63.0</ele><time>2026-04-12T13:49:53.947Z</time></trkpt><trkpt lat="43.7648155" lon="11.3405053"><ele>63.0</ele><time>2026-04-12T13:49:54.946Z</time></trkpt><trkpt lat="43.7647197" lon="11.3403058"><ele>63.0</ele><time>2026-04-12T13:49:55.948Z</time></trkpt><trkpt lat="43.7646312" lon="11.3401089"><ele>63.0</ele><time>2026-04-12T13:49:56.947Z</time></trkpt><trkpt lat="43.764561" lon="11.3399272"><ele>63.0</ele><time>2026-04-12T13:49:57.947Z</time></trkpt><trkpt lat="43.7644911" lon="11.3397407"><ele>63.0</ele><time>2026-04-12T13:49:58.948Z</time></trkpt><trkpt lat="43.7644219" lon="11.3395459"><ele>63.0</ele><time>2026-04-12T13:49:59.948Z</time></trkpt><trkpt lat="43.7643524" lon="11.3393434"><ele>64.66666666666667</ele><time>2026-04-12T13:50:00.948Z</time></trkpt><trkpt lat="43.7642851" lon="11.3391451"><ele>66.33333333333334</ele><time>2026-04-12T13:50:01.948Z</time></trkpt><trkpt lat="43.7642076" lon="11.3389229"><ele>68.0</ele><time>2026-04-12T13:50:02.947Z</time></trkpt><trkpt lat="43.7641139" lon="11.3386682"><ele>68.0</ele><time>2026-04-12T13:50:03.949Z</time></trkpt><trkpt lat="43.7640115" lon="11.3383672"><ele>68.0</ele><time>2026-04-12T13:50:04.947Z</time></trkpt><trkpt lat="43.7639118" lon="11.3380392"><ele>68.0</ele><time>2026-04-12T13:50:05.949Z</time></trkpt><trkpt lat="43.7638101" lon="11.3377091"><ele>68.0</ele><time>2026-04-12T13:50:06.948Z</time></trkpt><trkpt lat="43.7637107" lon="11.337401"><ele>67.66666666666667</ele><time>2026-04-12T13:50:07.946Z</time></trkpt><trkpt lat="43.7636156" lon="11.3371106"><ele>67.33333333333333</ele><time>2026-04-12T13:50:08.949Z</time></trkpt><trkpt lat="43.7635217" lon="11.33684"><ele>67.0</ele><time>2026-04-12T13:50:09.948Z</time></trkpt><trkpt lat="43.7634301" lon="11.3365946"><ele>69.0</ele><time>2026-04-12T13:50:10.949Z</time></trkpt><trkpt lat="43.7633355" lon="11.3363714"><ele>71.0</ele><time>2026-04-12T13:50:11.948Z</time></trkpt><trkpt lat="43.7632383" lon="11.3361682"><ele>73.0</ele><time>2026-04-12T13:50:12.949Z</time></trkpt><trkpt lat="43.7631383" lon="11.3359843"><ele>73.0</ele><time>2026-04-12T13:50:13.947Z</time></trkpt><trkpt lat="43.763041" lon="11.335817"><ele>73.0</ele><time>2026-04-12T13:50:14.946Z</time></trkpt><trkpt lat="43.7629494" lon="11.3356642"><ele>73.0</ele><time>2026-04-12T13:50:15.947Z</time></trkpt><trkpt lat="43.7628604" lon="11.3355223"><ele>73.0</ele><time>2026-04-12T13:50:16.947Z</time></trkpt><trkpt lat="43.7627815" lon="11.3353846"><ele>73.0</ele><time>2026-04-12T13:50:17.948Z</time></trkpt><trkpt lat="43.7626962" lon="11.3352515"><ele>73.0</ele><time>2026-04-12T13:50:18.948Z</time></trkpt><trkpt lat="43.7626111" lon="11.3351115"><ele>73.0</ele><time>2026-04-12T13:50:19.949Z</time></trkpt><trkpt lat="43.7625233" lon="11.334961"><ele>73.0</ele><time>2026-04-12T13:50:20.948Z</time></trkpt><trkpt lat="43.7624334" lon="11.3348123"><ele>72.5</ele><time>2026-04-12T13:50:21.948Z</time></trkpt><trkpt lat="43.7623429" lon="11.3346643"><ele>72.0</ele><time>2026-04-12T13:50:22.948Z</time></trkpt><trkpt lat="43.7622511" lon="11.3345181"><ele>71.5</ele><time>2026-04-12T13:50:23.949Z</time></trkpt><trkpt lat="43.7621593" lon="11.3343732"><ele>71.0</ele><time>2026-04-12T13:50:24.949Z</time></trkpt><trkpt lat="43.7620661" lon="11.3342281"><ele>71.0</ele><time>2026-04-12T13:50:25.948Z</time></trkpt><trkpt lat="43.7619776" lon="11.3340837"><ele>71.0</ele><time>2026-04-12T13:50:26.949Z</time></trkpt><trkpt lat="43.7618912" lon="11.3339387"><ele>71.0</ele><time>2026-04-12T13:50:27.949Z</time></trkpt><trkpt lat="43.7618061" lon="11.3337879"><ele>71.0</ele><time>2026-04-12T13:50:28.947Z</time></trkpt><trkpt lat="43.7617227" lon="11.3336293"><ele>71.0</ele><time>2026-04-12T13:50:29.948Z</time></trkpt><trkpt lat="43.7616445" lon="11.3334625"><ele>71.0</ele><time>2026-04-12T13:50:30.948Z</time></trkpt><trkpt lat="43.7615735" lon="11.3332923"><ele>71.0</ele><time>2026-04-12T13:50:31.948Z</time></trkpt><trkpt lat="43.7615118" lon="11.3331223"><ele>71.0</ele><time>2026-04-12T13:50:32.947Z</time></trkpt><trkpt lat="43.7614593" lon="11.3329453"><ele>70.66666666666667</ele><time>2026-04-12T13:50:33.949Z</time></trkpt><trkpt lat="43.7614011" lon="11.3327544"><ele>70.33333333333333</ele><time>2026-04-12T13:50:34.949Z</time></trkpt><trkpt lat="43.7613413" lon="11.3325605"><ele>70.0</ele><time>2026-04-12T13:50:35.947Z</time></trkpt><trkpt lat="43.7612857" lon="11.3323682"><ele>70.0</ele><time>2026-04-12T13:50:36.948Z</time></trkpt><trkpt lat="43.7612329" lon="11.3321805"><ele>70.0</ele><time>2026-04-12T13:50:37.947Z</time></trkpt><trkpt lat="43.761178" lon="11.3320014"><ele>70.0</ele><time>2026-04-12T13:50:38.948Z</time></trkpt><trkpt lat="43.7611246" lon="11.3318124"><ele>70.0</ele><time>2026-04-12T13:50:39.948Z</time></trkpt><trkpt lat="43.7610641" lon="11.3316101"><ele>70.33333333333333</ele><time>2026-04-12T13:50:40.948Z</time></trkpt><trkpt lat="43.7610071" lon="11.3314129"><ele>70.66666666666667</ele><time>2026-04-12T13:50:41.947Z</time></trkpt><trkpt lat="43.7609497" lon="11.3312175"><ele>71.0</ele><time>2026-04-12T13:50:42.948Z</time></trkpt><trkpt lat="43.7608933" lon="11.3310264"><ele>71.0</ele><time>2026-04-12T13:50:43.947Z</time></trkpt><trkpt lat="43.7608368" lon="11.330832"><ele>71.0</ele><time>2026-04-12T13:50:44.948Z</time></trkpt><trkpt lat="43.7607846" lon="11.330646"><ele>71.0</ele><time>2026-04-12T13:50:45.949Z</time></trkpt><trkpt lat="43.7607261" lon="11.3304494"><ele>71.0</ele><time>2026-04-12T13:50:46.948Z</time></trkpt><trkpt lat="43.760666" lon="11.3302554"><ele>70.66666666666667</ele><time>2026-04-12T13:50:47.947Z</time></trkpt><trkpt lat="43.7605998" lon="11.3300591"><ele>70.33333333333333</ele><time>2026-04-12T13:50:48.948Z</time></trkpt><trkpt lat="43.7605305" lon="11.3298691"><ele>70.0</ele><time>2026-04-12T13:50:49.947Z</time></trkpt><trkpt lat="43.7604574" lon="11.3297006"><ele>70.0</ele><time>2026-04-12T13:50:50.948Z</time></trkpt><trkpt lat="43.7603762" lon="11.3295348"><ele>70.0</ele><time>2026-04-12T13:50:51.948Z</time></trkpt><trkpt lat="43.7602916" lon="11.329386"><ele>70.0</ele><time>2026-04-12T13:50:52.948Z</time></trkpt><trkpt lat="43.7602075" lon="11.329253"><ele>70.0</ele><time>2026-04-12T13:50:53.946Z</time></trkpt><trkpt lat="43.7601214" lon="11.3291302"><ele>70.0</ele><time>2026-04-12T13:50:54.947Z</time></trkpt><trkpt lat="43.760035" lon="11.3290216"><ele>70.0</ele><time>2026-04-12T13:50:55.947Z</time></trkpt><trkpt lat="43.7599534" lon="11.3289194"><ele>70.0</ele><time>2026-04-12T13:50:56.946Z</time></trkpt><trkpt lat="43.7598688" lon="11.3288192"><ele>70.0</ele><time>2026-04-12T13:50:57.948Z</time></trkpt><trkpt lat="43.7598036" lon="11.3287496"><ele>70.0</ele><time>2026-04-12T13:50:58.948Z</time></trkpt><trkpt lat="43.7597381" lon="11.3286926"><ele>70.0</ele><time>2026-04-12T13:50:59.948Z</time></trkpt><trkpt lat="43.7596313" lon="11.3286053"><ele>70.0</ele><time>2026-04-12T13:51:01.949Z</time></trkpt><trkpt lat="43.7595662" lon="11.3285499"><ele>70.0</ele><time>2026-04-12T13:51:02.947Z</time></trkpt><trkpt lat="43.7594905" lon="11.3284938"><ele>70.0</ele><time>2026-04-12T13:51:03.947Z</time></trkpt><trkpt lat="43.7594142" lon="11.3284332"><ele>70.0</ele><time>2026-04-12T13:51:04.948Z</time></trkpt><trkpt lat="43.7593331" lon="11.3283741"><ele>69.83333333333333</ele><time>2026-04-12T13:51:05.949Z</time></trkpt><trkpt lat="43.7592532" lon="11.3283234"><ele>69.66666666666666</ele><time>2026-04-12T13:51:06.947Z</time></trkpt><trkpt lat="43.7591797" lon="11.3282768"><ele>69.5</ele><time>2026-04-12T13:51:07.949Z</time></trkpt><trkpt lat="43.7591077" lon="11.3282404"><ele>69.33333333333333</ele><time>2026-04-12T13:51:08.947Z</time></trkpt><trkpt lat="43.7590452" lon="11.3281955"><ele>69.16666666666667</ele><time>2026-04-12T13:51:09.948Z</time></trkpt><trkpt lat="43.7589759" lon="11.3281567"><ele>69.0</ele><time>2026-04-12T13:51:10.949Z</time></trkpt><trkpt lat="43.7589102" lon="11.3281194"><ele>69.0</ele><time>2026-04-12T13:51:11.947Z</time></trkpt><trkpt lat="43.7588478" lon="11.3280889"><ele>69.0</ele><time>2026-04-12T13:51:12.949Z</time></trkpt><trkpt lat="43.7587849" lon="11.3280547"><ele>69.0</ele><time>2026-04-12T13:51:13.948Z</time></trkpt><trkpt lat="43.7587171" lon="11.3280151"><ele>69.0</ele><time>2026-04-12T13:51:14.947Z</time></trkpt><trkpt lat="43.7586421" lon="11.3279737"><ele>69.0</ele><time>2026-04-12T13:51:15.946Z</time></trkpt><trkpt lat="43.7585633" lon="11.3279341"><ele>69.0</ele><time>2026-04-12T13:51:16.947Z</time></trkpt><trkpt lat="43.7584843" lon="11.3278965"><ele>69.8</ele><time>2026-04-12T13:51:17.949Z</time></trkpt><trkpt lat="43.7584064" lon="11.3278588"><ele>70.60000000000001</ele><time>2026-04-12T13:51:18.948Z</time></trkpt><trkpt lat="43.7583274" lon="11.3278191"><ele>71.4</ele><time>2026-04-12T13:51:19.947Z</time></trkpt><trkpt lat="43.7582386" lon="11.3277792"><ele>72.2</ele><time>2026-04-12T13:51:20.947Z</time></trkpt><trkpt lat="43.7581516" lon="11.3277374"><ele>73.0</ele><time>2026-04-12T13:51:21.948Z</time></trkpt><trkpt lat="43.7580564" lon="11.3276979"><ele>73.0</ele><time>2026-04-12T13:51:22.946Z</time></trkpt><trkpt lat="43.7579594" lon="11.3276587"><ele>73.0</ele><time>2026-04-12T13:51:23.948Z</time></trkpt><trkpt lat="43.7578327" lon="11.3276122"><ele>73.0</ele><time>2026-04-12T13:51:24.947Z</time></trkpt><trkpt lat="43.7576471" lon="11.3275165"><ele>73.0</ele><time>2026-04-12T13:51:25.947Z</time></trkpt><trkpt lat="43.7574648" lon="11.3274159"><ele>73.33333333333333</ele><time>2026-04-12T13:51:26.947Z</time></trkpt><trkpt lat="43.7572985" lon="11.3273156"><ele>73.66666666666667</ele><time>2026-04-12T13:51:27.947Z</time></trkpt><trkpt lat="43.7571414" lon="11.3272259"><ele>74.0</ele><time>2026-04-12T13:51:28.948Z</time></trkpt><trkpt lat="43.7570151" lon="11.3271356"><ele>73.33333333333334</ele><time>2026-04-12T13:51:29.948Z</time></trkpt><trkpt lat="43.7568896" lon="11.327014"><ele>72.66666666666667</ele><time>2026-04-12T13:51:30.948Z</time></trkpt><trkpt lat="43.756797" lon="11.3268634"><ele>72.0</ele><time>2026-04-12T13:51:31.948Z</time></trkpt><trkpt lat="43.7567153" lon="11.3266824"><ele>72.0</ele><time>2026-04-12T13:51:32.947Z</time></trkpt><trkpt lat="43.7566908" lon="11.326466"><ele>72.0</ele><time>2026-04-12T13:51:33.948Z</time></trkpt><trkpt lat="43.7566693" lon="11.3262308"><ele>72.0</ele><time>2026-04-12T13:51:34.947Z</time></trkpt><trkpt lat="43.7566477" lon="11.3259853"><ele>71.0</ele><time>2026-04-12T13:51:35.948Z</time></trkpt><trkpt lat="43.7566055" lon="11.3257605"><ele>70.0</ele><time>2026-04-12T13:51:36.948Z</time></trkpt><trkpt lat="43.7565298" lon="11.3255581"><ele>69.0</ele><time>2026-04-12T13:51:37.948Z</time></trkpt><trkpt lat="43.7564487" lon="11.3253718"><ele>68.33333333333333</ele><time>2026-04-12T13:51:38.946Z</time></trkpt><trkpt lat="43.7563778" lon="11.3251611"><ele>67.66666666666666</ele><time>2026-04-12T13:51:39.946Z</time></trkpt><trkpt lat="43.7563344" lon="11.3249452"><ele>67.0</ele><time>2026-04-12T13:51:40.947Z</time></trkpt><trkpt lat="43.7563338" lon="11.32475"><ele>67.0</ele><time>2026-04-12T13:51:41.949Z</time></trkpt><trkpt lat="43.7563461" lon="11.3245435"><ele>67.0</ele><time>2026-04-12T13:51:42.948Z</time></trkpt><trkpt lat="43.7563736" lon="11.3243045"><ele>67.0</ele><time>2026-04-12T13:51:43.947Z</time></trkpt><trkpt lat="43.7564097" lon="11.3240423"><ele>66.66666666666666</ele><time>2026-04-12T13:51:44.948Z</time></trkpt><trkpt lat="43.7564471" lon="11.3237645"><ele>66.33333333333333</ele><time>2026-04-12T13:51:45.948Z</time></trkpt><trkpt lat="43.7564892" lon="11.3234654"><ele>66.0</ele><time>2026-04-12T13:51:46.947Z</time></trkpt><trkpt lat="43.7565271" lon="11.32315"><ele>65.0</ele><time>2026-04-12T13:51:47.947Z</time></trkpt><trkpt lat="43.7565666" lon="11.3228179"><ele>64.0</ele><time>2026-04-12T13:51:48.948Z</time></trkpt><trkpt lat="43.756588" lon="11.3224814"><ele>63.5</ele><time>2026-04-12T13:51:49.949Z</time></trkpt><trkpt lat="43.7565934" lon="11.3221381"><ele>63.0</ele><time>2026-04-12T13:51:50.947Z</time></trkpt><trkpt lat="43.7565884" lon="11.3218039"><ele>63.0</ele><time>2026-04-12T13:51:51.948Z</time></trkpt><trkpt lat="43.7565702" lon="11.3214867"><ele>63.0</ele><time>2026-04-12T13:51:52.948Z</time></trkpt><trkpt lat="43.7565358" lon="11.3211798"><ele>62.66666666666667</ele><time>2026-04-12T13:51:53.948Z</time></trkpt><trkpt lat="43.7564952" lon="11.3208753"><ele>62.333333333333336</ele><time>2026-04-12T13:51:54.948Z</time></trkpt><trkpt lat="43.7564484" lon="11.3205733"><ele>62.0</ele><time>2026-04-12T13:51:55.949Z</time></trkpt><trkpt lat="43.7564026" lon="11.320264"><ele>62.0</ele><time>2026-04-12T13:51:56.948Z</time></trkpt><trkpt lat="43.7563558" lon="11.3199438"><ele>62.0</ele><time>2026-04-12T13:51:57.947Z</time></trkpt><trkpt lat="43.7563092" lon="11.3196162"><ele>62.0</ele><time>2026-04-12T13:51:58.948Z</time></trkpt><trkpt lat="43.7562635" lon="11.3192979"><ele>62.0</ele><time>2026-04-12T13:51:59.947Z</time></trkpt><trkpt lat="43.7562273" lon="11.3190064"><ele>62.0</ele><time>2026-04-12T13:52:00.949Z</time></trkpt><trkpt lat="43.7561865" lon="11.3187422"><ele>62.333333333333336</ele><time>2026-04-12T13:52:01.948Z</time></trkpt><trkpt lat="43.7561496" lon="11.3185022"><ele>62.66666666666667</ele><time>2026-04-12T13:52:02.948Z</time></trkpt><trkpt lat="43.7561154" lon="11.3182896"><ele>63.0</ele><time>2026-04-12T13:52:03.948Z</time></trkpt><trkpt lat="43.7560857" lon="11.318111"><ele>63.0</ele><time>2026-04-12T13:52:04.948Z</time></trkpt><trkpt lat="43.7560645" lon="11.3179589"><ele>63.0</ele><time>2026-04-12T13:52:05.949Z</time></trkpt><trkpt lat="43.7560707" lon="11.3178204"><ele>63.0</ele><time>2026-04-12T13:52:06.948Z</time></trkpt><trkpt lat="43.7561069" lon="11.3176915"><ele>63.0</ele><time>2026-04-12T13:52:07.948Z</time></trkpt><trkpt lat="43.756146" lon="11.3175701"><ele>63.0</ele><time>2026-04-12T13:52:08.947Z</time></trkpt><trkpt lat="43.7561704" lon="11.317459"><ele>63.0</ele><time>2026-04-12T13:52:09.947Z</time></trkpt><trkpt lat="43.7561672" lon="11.3173563"><ele>63.0</ele><time>2026-04-12T13:52:10.947Z</time></trkpt><trkpt lat="43.7560859" lon="11.3171912"><ele>63.0</ele><time>2026-04-12T13:52:12.948Z</time></trkpt><trkpt lat="43.7560268" lon="11.3170804"><ele>63.0</ele><time>2026-04-12T13:52:13.946Z</time></trkpt><trkpt lat="43.755963" lon="11.3169412"><ele>63.0</ele><time>2026-04-12T13:52:14.949Z</time></trkpt><trkpt lat="43.7559108" lon="11.3167812"><ele>62.8</ele><time>2026-04-12T13:52:15.949Z</time></trkpt><trkpt lat="43.7558665" lon="11.3166211"><ele>62.599999999999994</ele><time>2026-04-12T13:52:16.948Z</time></trkpt><trkpt lat="43.75584" lon="11.3164714"><ele>62.400000000000006</ele><time>2026-04-12T13:52:17.948Z</time></trkpt><trkpt lat="43.7558014" lon="11.3163366"><ele>62.2</ele><time>2026-04-12T13:52:18.948Z</time></trkpt><trkpt lat="43.7557497" lon="11.3162199"><ele>62.0</ele><time>2026-04-12T13:52:19.949Z</time></trkpt><trkpt lat="43.7557119" lon="11.316085"><ele>62.0</ele><time>2026-04-12T13:52:20.948Z</time></trkpt><trkpt lat="43.7556739" lon="11.3159067"><ele>62.0</ele><time>2026-04-12T13:52:21.948Z</time></trkpt><trkpt lat="43.7556394" lon="11.3157208"><ele>62.0</ele><time>2026-04-12T13:52:22.948Z</time></trkpt><trkpt lat="43.7556055" lon="11.3155098"><ele>62.0</ele><time>2026-04-12T13:52:23.947Z</time></trkpt><trkpt lat="43.7555683" lon="11.3153017"><ele>61.66666666666667</ele><time>2026-04-12T13:52:24.948Z</time></trkpt><trkpt lat="43.7555268" lon="11.315104"><ele>61.33333333333333</ele><time>2026-04-12T13:52:25.948Z</time></trkpt><trkpt lat="43.7554945" lon="11.3148946"><ele>61.0</ele><time>2026-04-12T13:52:26.947Z</time></trkpt><trkpt lat="43.7554679" lon="11.3146711"><ele>60.0</ele><time>2026-04-12T13:52:27.947Z</time></trkpt><trkpt lat="43.7554435" lon="11.3144531"><ele>59.0</ele><time>2026-04-12T13:52:28.948Z</time></trkpt><trkpt lat="43.7554144" lon="11.3142466"><ele>58.0</ele><time>2026-04-12T13:52:29.948Z</time></trkpt><trkpt lat="43.7553887" lon="11.3140506"><ele>58.25</ele><time>2026-04-12T13:52:30.948Z</time></trkpt><trkpt lat="43.7553598" lon="11.3138723"><ele>58.5</ele><time>2026-04-12T13:52:31.947Z</time></trkpt><trkpt lat="43.7553299" lon="11.3137073"><ele>58.75</ele><time>2026-04-12T13:52:32.948Z</time></trkpt><trkpt lat="43.755291" lon="11.3135469"><ele>59.0</ele><time>2026-04-12T13:52:33.948Z</time></trkpt><trkpt lat="43.7552509" lon="11.3133712"><ele>59.0</ele><time>2026-04-12T13:52:34.948Z</time></trkpt><trkpt lat="43.7552149" lon="11.3131618"><ele>59.0</ele><time>2026-04-12T13:52:35.946Z</time></trkpt><trkpt lat="43.7551846" lon="11.3129347"><ele>59.0</ele><time>2026-04-12T13:52:36.948Z</time></trkpt><trkpt lat="43.755153" lon="11.3127082"><ele>59.0</ele><time>2026-04-12T13:52:37.948Z</time></trkpt><trkpt lat="43.7551255" lon="11.312486"><ele>59.0</ele><time>2026-04-12T13:52:38.946Z</time></trkpt><trkpt lat="43.7551024" lon="11.3122699"><ele>59.0</ele><time>2026-04-12T13:52:39.948Z</time></trkpt><trkpt lat="43.7550814" lon="11.3120685"><ele>59.0</ele><time>2026-04-12T13:52:40.948Z</time></trkpt><trkpt lat="43.7550605" lon="11.311876"><ele>59.0</ele><time>2026-04-12T13:52:41.948Z</time></trkpt><trkpt lat="43.7550437" lon="11.3116933"><ele>59.0</ele><time>2026-04-12T13:52:42.948Z</time></trkpt><trkpt lat="43.755032" lon="11.3115291"><ele>59.0</ele><time>2026-04-12T13:52:43.948Z</time></trkpt><trkpt lat="43.7550197" lon="11.3113756"><ele>58.6</ele><time>2026-04-12T13:52:44.948Z</time></trkpt><trkpt lat="43.7550123" lon="11.3112418"><ele>58.2</ele><time>2026-04-12T13:52:45.948Z</time></trkpt><trkpt lat="43.7550022" lon="11.3111163"><ele>57.800000000000004</ele><time>2026-04-12T13:52:46.948Z</time></trkpt><trkpt lat="43.7549888" lon="11.3109972"><ele>57.400000000000006</ele><time>2026-04-12T13:52:47.947Z</time></trkpt><trkpt lat="43.7549749" lon="11.3108795"><ele>57.0</ele><time>2026-04-12T13:52:48.949Z</time></trkpt><trkpt lat="43.7549648" lon="11.3107535"><ele>57.0</ele><time>2026-04-12T13:52:49.947Z</time></trkpt><trkpt lat="43.7549577" lon="11.3106123"><ele>57.0</ele><time>2026-04-12T13:52:50.949Z</time></trkpt><trkpt lat="43.7549516" lon="11.3104634"><ele>57.0</ele><time>2026-04-12T13:52:51.948Z</time></trkpt><trkpt lat="43.754948" lon="11.3103235"><ele>57.0</ele><time>2026-04-12T13:52:52.946Z</time></trkpt><trkpt lat="43.7549466" lon="11.3101968"><ele>57.0</ele><time>2026-04-12T13:52:53.948Z</time></trkpt><trkpt lat="43.7549454" lon="11.3100712"><ele>57.2</ele><time>2026-04-12T13:52:54.947Z</time></trkpt><trkpt lat="43.7549487" lon="11.3099452"><ele>57.400000000000006</ele><time>2026-04-12T13:52:55.948Z</time></trkpt><trkpt lat="43.7549491" lon="11.3098213"><ele>57.599999999999994</ele><time>2026-04-12T13:52:56.949Z</time></trkpt><trkpt lat="43.7549452" lon="11.3096961"><ele>57.8</ele><time>2026-04-12T13:52:57.948Z</time></trkpt><trkpt lat="43.7549436" lon="11.3095711"><ele>58.0</ele><time>2026-04-12T13:52:58.948Z</time></trkpt><trkpt lat="43.7549444" lon="11.3094398"><ele>58.25</ele><time>2026-04-12T13:52:59.948Z</time></trkpt><trkpt lat="43.7549458" lon="11.3092989"><ele>58.5</ele><time>2026-04-12T13:53:00.948Z</time></trkpt><trkpt lat="43.7549526" lon="11.3091422"><ele>58.75</ele><time>2026-04-12T13:53:01.948Z</time></trkpt><trkpt lat="43.7549581" lon="11.3089762"><ele>59.0</ele><time>2026-04-12T13:53:02.948Z</time></trkpt><trkpt lat="43.7549669" lon="11.3088067"><ele>59.0</ele><time>2026-04-12T13:53:03.948Z</time></trkpt><trkpt lat="43.7549821" lon="11.3086347"><ele>59.00000000000001</ele><time>2026-04-12T13:53:04.947Z</time></trkpt><trkpt lat="43.7549953" lon="11.308475"><ele>59.00000000000001</ele><time>2026-04-12T13:53:05.948Z</time></trkpt><trkpt lat="43.7550098" lon="11.3083423"><ele>59.0</ele><time>2026-04-12T13:53:06.946Z</time></trkpt><trkpt lat="43.7550202" lon="11.3082211"><ele>59.0</ele><time>2026-04-12T13:53:07.948Z</time></trkpt><trkpt lat="43.7550288" lon="11.3081075"><ele>59.00000000000001</ele><time>2026-04-12T13:53:08.948Z</time></trkpt><trkpt lat="43.7550439" lon="11.3080151"><ele>59.0</ele><time>2026-04-12T13:53:09.947Z</time></trkpt><trkpt lat="43.7550563" lon="11.3079238"><ele>59.0</ele><time>2026-04-12T13:53:10.948Z</time></trkpt><trkpt lat="43.7550673" lon="11.3078221"><ele>59.0</ele><time>2026-04-12T13:53:11.948Z</time></trkpt><trkpt lat="43.7550829" lon="11.3077126"><ele>59.00000000000001</ele><time>2026-04-12T13:53:12.948Z</time></trkpt><trkpt lat="43.7551009" lon="11.3075892"><ele>59.0</ele><time>2026-04-12T13:53:13.947Z</time></trkpt><trkpt lat="43.7551173" lon="11.3074663"><ele>59.00000000000001</ele><time>2026-04-12T13:53:14.949Z</time></trkpt><trkpt lat="43.7551307" lon="11.3073621"><ele>59.0</ele><time>2026-04-12T13:53:15.948Z</time></trkpt><trkpt lat="43.755144" lon="11.3072697"><ele>59.0</ele><time>2026-04-12T13:53:16.948Z</time></trkpt><trkpt lat="43.7551594" lon="11.3071798"><ele>59.0</ele><time>2026-04-12T13:53:17.949Z</time></trkpt><trkpt lat="43.755187" lon="11.3070394"><ele>59.00000000000001</ele><time>2026-04-12T13:53:19.947Z</time></trkpt><trkpt lat="43.7552097" lon="11.3069151"><ele>59.0</ele><time>2026-04-12T13:53:21.947Z</time></trkpt><trkpt lat="43.7552411" lon="11.3068122"><ele>58.833333333333336</ele><time>2026-04-12T13:53:23.947Z</time></trkpt><trkpt lat="43.7552959" lon="11.3067337"><ele>58.66666666666667</ele><time>2026-04-12T13:53:25.947Z</time></trkpt><trkpt lat="43.7553539" lon="11.3066763"><ele>58.5</ele><time>2026-04-12T13:53:27.947Z</time></trkpt><trkpt lat="43.7554012" lon="11.3065859"><ele>58.33333333333333</ele><time>2026-04-12T13:53:29.947Z</time></trkpt><trkpt lat="43.7554278" lon="11.3064838"><ele>58.166666666666664</ele><time>2026-04-12T13:53:30.948Z</time></trkpt><trkpt lat="43.755459" lon="11.3063686"><ele>58.0</ele><time>2026-04-12T13:53:31.947Z</time></trkpt><trkpt lat="43.7554823" lon="11.3062693"><ele>58.0</ele><time>2026-04-12T13:53:32.947Z</time></trkpt><trkpt lat="43.755502" lon="11.3061714"><ele>58.0</ele><time>2026-04-12T13:53:33.948Z</time></trkpt><trkpt lat="43.7555275" lon="11.306054"><ele>58.0</ele><time>2026-04-12T13:53:34.948Z</time></trkpt><trkpt lat="43.7555534" lon="11.3059185"><ele>58.0</ele><time>2026-04-12T13:53:35.947Z</time></trkpt><trkpt lat="43.755579" lon="11.3057831"><ele>58.0</ele><time>2026-04-12T13:53:36.947Z</time></trkpt><trkpt lat="43.7556049" lon="11.3056636"><ele>57.8</ele><time>2026-04-12T13:53:37.947Z</time></trkpt><trkpt lat="43.7556368" lon="11.3055392"><ele>57.599999999999994</ele><time>2026-04-12T13:53:38.947Z</time></trkpt><trkpt lat="43.7556663" lon="11.3053994"><ele>57.400000000000006</ele><time>2026-04-12T13:53:39.947Z</time></trkpt><trkpt lat="43.7556954" lon="11.305244"><ele>57.2</ele><time>2026-04-12T13:53:40.947Z</time></trkpt><trkpt lat="43.755729" lon="11.3050841"><ele>57.0</ele><time>2026-04-12T13:53:41.948Z</time></trkpt><trkpt lat="43.7557634" lon="11.3049253"><ele>57.0</ele><time>2026-04-12T13:53:42.947Z</time></trkpt><trkpt lat="43.755798" lon="11.3047625"><ele>57.0</ele><time>2026-04-12T13:53:43.947Z</time></trkpt><trkpt lat="43.7558359" lon="11.3045966"><ele>57.0</ele><time>2026-04-12T13:53:44.947Z</time></trkpt><trkpt lat="43.7558655" lon="11.304436"><ele>57.0</ele><time>2026-04-12T13:53:45.947Z</time></trkpt><trkpt lat="43.7558913" lon="11.3042857"><ele>57.166666666666664</ele><time>2026-04-12T13:53:46.946Z</time></trkpt><trkpt lat="43.7559182" lon="11.3041499"><ele>57.33333333333333</ele><time>2026-04-12T13:53:47.948Z</time></trkpt><trkpt lat="43.755941" lon="11.3040239"><ele>57.5</ele><time>2026-04-12T13:53:48.948Z</time></trkpt><trkpt lat="43.7559533" lon="11.3039191"><ele>57.666666666666664</ele><time>2026-04-12T13:53:49.947Z</time></trkpt><trkpt lat="43.7559688" lon="11.3038112"><ele>57.83333333333333</ele><time>2026-04-12T13:53:50.947Z</time></trkpt><trkpt lat="43.7559767" lon="11.3036953"><ele>58.0</ele><time>2026-04-12T13:53:51.947Z</time></trkpt><trkpt lat="43.7559866" lon="11.3035805"><ele>58.0</ele><time>2026-04-12T13:53:52.947Z</time></trkpt><trkpt lat="43.7560076" lon="11.3034736"><ele>58.0</ele><time>2026-04-12T13:53:53.946Z</time></trkpt><trkpt lat="43.7560543" lon="11.3033772"><ele>58.0</ele><time>2026-04-12T13:53:54.947Z</time></trkpt><trkpt lat="43.756119" lon="11.3032818"><ele>58.0</ele><time>2026-04-12T13:53:55.947Z</time></trkpt><trkpt lat="43.7561995" lon="11.3031987"><ele>58.0</ele><time>2026-04-12T13:53:56.946Z</time></trkpt><trkpt lat="43.7562787" lon="11.3031314"><ele>58.0</ele><time>2026-04-12T13:53:57.948Z</time></trkpt><trkpt lat="43.7563552" lon="11.3030963"><ele>58.0</ele><time>2026-04-12T13:53:58.947Z</time></trkpt><trkpt lat="43.7564435" lon="11.3030844"><ele>58.0</ele><time>2026-04-12T13:53:59.948Z</time></trkpt><trkpt lat="43.756541" lon="11.3030753"><ele>58.0</ele><time>2026-04-12T13:54:00.949Z</time></trkpt><trkpt lat="43.7566419" lon="11.3030521"><ele>58.0</ele><time>2026-04-12T13:54:01.948Z</time></trkpt><trkpt lat="43.7567329" lon="11.3030002"><ele>58.0</ele><time>2026-04-12T13:54:02.947Z</time></trkpt><trkpt lat="43.7568149" lon="11.3029137"><ele>58.0</ele><time>2026-04-12T13:54:03.948Z</time></trkpt><trkpt lat="43.7568974" lon="11.3028214"><ele>58.0</ele><time>2026-04-12T13:54:04.948Z</time></trkpt><trkpt lat="43.7569946" lon="11.302768"><ele>58.0</ele><time>2026-04-12T13:54:05.946Z</time></trkpt><trkpt lat="43.7570984" lon="11.3027452"><ele>58.0</ele><time>2026-04-12T13:54:06.947Z</time></trkpt><trkpt lat="43.7572028" lon="11.3027624"><ele>58.25</ele><time>2026-04-12T13:54:07.947Z</time></trkpt><trkpt lat="43.7573089" lon="11.3028138"><ele>58.5</ele><time>2026-04-12T13:54:08.948Z</time></trkpt><trkpt lat="43.7574246" lon="11.3028735"><ele>58.75</ele><time>2026-04-12T13:54:09.948Z</time></trkpt><trkpt lat="43.7575536" lon="11.302943"><ele>59.0</ele><time>2026-04-12T13:54:10.947Z</time></trkpt><trkpt lat="43.757688" lon="11.3030198"><ele>58.333333333333336</ele><time>2026-04-12T13:54:11.948Z</time></trkpt><trkpt lat="43.7578353" lon="11.3031058"><ele>57.66666666666667</ele><time>2026-04-12T13:54:12.948Z</time></trkpt><trkpt lat="43.7579919" lon="11.3031976"><ele>57.0</ele><time>2026-04-12T13:54:13.948Z</time></trkpt><trkpt lat="43.758158" lon="11.3032906"><ele>57.0</ele><time>2026-04-12T13:54:14.948Z</time></trkpt><trkpt lat="43.7583365" lon="11.3033863"><ele>57.0</ele><time>2026-04-12T13:54:15.947Z</time></trkpt><trkpt lat="43.7585189" lon="11.3034869"><ele>57.0</ele><time>2026-04-12T13:54:16.947Z</time></trkpt><trkpt lat="43.7587114" lon="11.3035827"><ele>56.0</ele><time>2026-04-12T13:54:17.948Z</time></trkpt><trkpt lat="43.7589074" lon="11.3036545"><ele>55.0</ele><time>2026-04-12T13:54:18.947Z</time></trkpt><trkpt lat="43.7590969" lon="11.3037091"><ele>54.0</ele><time>2026-04-12T13:54:19.948Z</time></trkpt><trkpt lat="43.7592744" lon="11.303746"><ele>54.66666666666667</ele><time>2026-04-12T13:54:20.947Z</time></trkpt><trkpt lat="43.75944" lon="11.3037606"><ele>55.333333333333336</ele><time>2026-04-12T13:54:21.948Z</time></trkpt><trkpt lat="43.7596248" lon="11.3037609"><ele>56.0</ele><time>2026-04-12T13:54:22.948Z</time></trkpt><trkpt lat="43.7598258" lon="11.303755"><ele>56.0</ele><time>2026-04-12T13:54:23.948Z</time></trkpt><trkpt lat="43.7600297" lon="11.303745"><ele>56.0</ele><time>2026-04-12T13:54:24.948Z</time></trkpt><trkpt lat="43.7602365" lon="11.3037261"><ele>56.0</ele><time>2026-04-12T13:54:25.947Z</time></trkpt><trkpt lat="43.7604451" lon="11.3037103"><ele>56.0</ele><time>2026-04-12T13:54:26.948Z</time></trkpt><trkpt lat="43.7606582" lon="11.3036885"><ele>56.0</ele><time>2026-04-12T13:54:27.947Z</time></trkpt><trkpt lat="43.760876" lon="11.303661"><ele>56.0</ele><time>2026-04-12T13:54:28.948Z</time></trkpt><trkpt lat="43.7610957" lon="11.3036354"><ele>57.0</ele><time>2026-04-12T13:54:29.948Z</time></trkpt><trkpt lat="43.7613026" lon="11.3036121"><ele>58.0</ele><time>2026-04-12T13:54:30.949Z</time></trkpt><trkpt lat="43.7615182" lon="11.3035956"><ele>59.0</ele><time>2026-04-12T13:54:31.948Z</time></trkpt><trkpt lat="43.7617375" lon="11.3035879"><ele>57.0</ele><time>2026-04-12T13:54:32.947Z</time></trkpt><trkpt lat="43.7619552" lon="11.3035944"><ele>55.0</ele><time>2026-04-12T13:54:33.947Z</time></trkpt><trkpt lat="43.7621704" lon="11.3036153"><ele>53.0</ele><time>2026-04-12T13:54:34.947Z</time></trkpt><trkpt lat="43.7623895" lon="11.3036479"><ele>53.0</ele><time>2026-04-12T13:54:35.948Z</time></trkpt><trkpt lat="43.7625999" lon="11.3036923"><ele>53.0</ele><time>2026-04-12T13:54:36.947Z</time></trkpt><trkpt lat="43.7628116" lon="11.3037506"><ele>53.0</ele><time>2026-04-12T13:54:37.947Z</time></trkpt><trkpt lat="43.7630422" lon="11.3038121"><ele>50.5</ele><time>2026-04-12T13:54:38.946Z</time></trkpt><trkpt lat="43.7632707" lon="11.3038787"><ele>48.0</ele><time>2026-04-12T13:54:39.948Z</time></trkpt><trkpt lat="43.7634842" lon="11.3039422"><ele>47.333333333333336</ele><time>2026-04-12T13:54:40.948Z</time></trkpt><trkpt lat="43.7636826" lon="11.3040003"><ele>46.66666666666667</ele><time>2026-04-12T13:54:41.948Z</time></trkpt><trkpt lat="43.7638676" lon="11.3040558"><ele>46.0</ele><time>2026-04-12T13:54:42.947Z</time></trkpt><trkpt lat="43.7640472" lon="11.3041056"><ele>46.0</ele><time>2026-04-12T13:54:43.948Z</time></trkpt><trkpt lat="43.7641949" lon="11.3041465"><ele>46.0</ele><time>2026-04-12T13:54:44.948Z</time></trkpt><trkpt lat="43.7643337" lon="11.3041877"><ele>46.0</ele><time>2026-04-12T13:54:45.947Z</time></trkpt><trkpt lat="43.7644603" lon="11.3042439"><ele>46.0</ele><time>2026-04-12T13:54:46.948Z</time></trkpt><trkpt lat="43.7645688" lon="11.3043179"><ele>48.25</ele><time>2026-04-12T13:54:47.946Z</time></trkpt><trkpt lat="43.7646729" lon="11.3044165"><ele>50.5</ele><time>2026-04-12T13:54:48.947Z</time></trkpt><trkpt lat="43.7647686" lon="11.3045323"><ele>52.75</ele><time>2026-04-12T13:54:49.946Z</time></trkpt><trkpt lat="43.7648462" lon="11.3046616"><ele>55.0</ele><time>2026-04-12T13:54:50.948Z</time></trkpt><trkpt lat="43.764911" lon="11.3047914"><ele>55.0</ele><time>2026-04-12T13:54:51.948Z</time></trkpt><trkpt lat="43.7649804" lon="11.3049198"><ele>55.0</ele><time>2026-04-12T13:54:52.947Z</time></trkpt><trkpt lat="43.7650508" lon="11.305051"><ele>55.0</ele><time>2026-04-12T13:54:53.948Z</time></trkpt><trkpt lat="43.7651213" lon="11.3051799"><ele>55.0</ele><time>2026-04-12T13:54:54.948Z</time></trkpt><trkpt lat="43.765185" lon="11.3052985"><ele>55.8</ele><time>2026-04-12T13:54:55.948Z</time></trkpt><trkpt lat="43.765239" lon="11.3053879"><ele>56.6</ele><time>2026-04-12T13:54:56.948Z</time></trkpt><trkpt lat="43.765281" lon="11.3054624"><ele>57.400000000000006</ele><time>2026-04-12T13:54:57.946Z</time></trkpt><trkpt lat="43.7653887" lon="11.3055241"><ele>58.2</ele><time>2026-04-12T13:54:59.947Z</time></trkpt><trkpt lat="43.7654824" lon="11.3054428"><ele>59.0</ele><time>2026-04-12T13:55:01.947Z</time></trkpt><trkpt lat="43.765529" lon="11.3052803"><ele>59.00000000000001</ele><time>2026-04-12T13:55:03.947Z</time></trkpt><trkpt lat="43.7655414" lon="11.3051807"><ele>59.0</ele><time>2026-04-12T13:55:04.947Z</time></trkpt><trkpt lat="43.7655537" lon="11.3050745"><ele>59.0</ele><time>2026-04-12T13:55:05.948Z</time></trkpt><trkpt lat="43.7655721" lon="11.3049673"><ele>59.0</ele><time>2026-04-12T13:55:06.948Z</time></trkpt><trkpt lat="43.7655857" lon="11.3048514"><ele>59.00000000000001</ele><time>2026-04-12T13:55:07.947Z</time></trkpt><trkpt lat="43.765599" lon="11.3047329"><ele>59.0</ele><time>2026-04-12T13:55:08.946Z</time></trkpt><trkpt lat="43.7656108" lon="11.3046185"><ele>58.833333333333336</ele><time>2026-04-12T13:55:09.947Z</time></trkpt><trkpt lat="43.7656239" lon="11.3045085"><ele>58.66666666666667</ele><time>2026-04-12T13:55:10.948Z</time></trkpt><trkpt lat="43.7656358" lon="11.3043974"><ele>58.5</ele><time>2026-04-12T13:55:11.946Z</time></trkpt><trkpt lat="43.7656529" lon="11.30429"><ele>58.33333333333333</ele><time>2026-04-12T13:55:12.948Z</time></trkpt><trkpt lat="43.7656657" lon="11.3041856"><ele>58.166666666666664</ele><time>2026-04-12T13:55:13.947Z</time></trkpt><trkpt lat="43.7656808" lon="11.3040808"><ele>58.0</ele><time>2026-04-12T13:55:14.947Z</time></trkpt><trkpt lat="43.7656943" lon="11.30397"><ele>57.75</ele><time>2026-04-12T13:55:15.947Z</time></trkpt><trkpt lat="43.7657118" lon="11.3038366"><ele>57.5</ele><time>2026-04-12T13:55:16.947Z</time></trkpt><trkpt lat="43.7657298" lon="11.3036839"><ele>57.25</ele><time>2026-04-12T13:55:17.948Z</time></trkpt><trkpt lat="43.7657497" lon="11.3035155"><ele>57.0</ele><time>2026-04-12T13:55:18.947Z</time></trkpt><trkpt lat="43.7657701" lon="11.3033326"><ele>57.0</ele><time>2026-04-12T13:55:19.947Z</time></trkpt><trkpt lat="43.7657912" lon="11.3031506"><ele>57.0</ele><time>2026-04-12T13:55:20.947Z</time></trkpt><trkpt lat="43.7658158" lon="11.3029721"><ele>57.0</ele><time>2026-04-12T13:55:21.946Z</time></trkpt><trkpt lat="43.7658384" lon="11.3028058"><ele>57.0</ele><time>2026-04-12T13:55:22.945Z</time></trkpt><trkpt lat="43.7658624" lon="11.3026426"><ele>56.8</ele><time>2026-04-12T13:55:23.948Z</time></trkpt><trkpt lat="43.7658854" lon="11.3024873"><ele>56.6</ele><time>2026-04-12T13:55:24.948Z</time></trkpt><trkpt lat="43.7659051" lon="11.3023355"><ele>56.39999999999999</ele><time>2026-04-12T13:55:25.945Z</time></trkpt><trkpt lat="43.7659226" lon="11.3021927"><ele>56.199999999999996</ele><time>2026-04-12T13:55:26.948Z</time></trkpt><trkpt lat="43.7659384" lon="11.3020639"><ele>56.0</ele><time>2026-04-12T13:55:27.947Z</time></trkpt><trkpt lat="43.7659554" lon="11.3019461"><ele>55.833333333333336</ele><time>2026-04-12T13:55:28.948Z</time></trkpt><trkpt lat="43.7659826" lon="11.3018423"><ele>55.66666666666667</ele><time>2026-04-12T13:55:29.947Z</time></trkpt><trkpt lat="43.766018" lon="11.3017622"><ele>55.5</ele><time>2026-04-12T13:55:30.948Z</time></trkpt><trkpt lat="43.766065" lon="11.3016233"><ele>55.33333333333333</ele><time>2026-04-12T13:55:32.948Z</time></trkpt><trkpt lat="43.7660893" lon="11.3014913"><ele>55.166666666666664</ele><time>2026-04-12T13:55:34.947Z</time></trkpt><trkpt lat="43.766116" lon="11.3013872"><ele>55.0</ele><time>2026-04-12T13:55:36.946Z</time></trkpt><trkpt lat="43.7661126" lon="11.3012925"><ele>55.0</ele><time>2026-04-12T13:55:38.948Z</time></trkpt><trkpt lat="43.7660589" lon="11.3012141"><ele>55.0</ele><time>2026-04-12T13:56:19.947Z</time></trkpt><trkpt lat="43.7660883" lon="11.3010239"><ele>55.0</ele><time>2026-04-12T13:56:21.946Z</time></trkpt><trkpt lat="43.7661101" lon="11.3008857"><ele>55.0</ele><time>2026-04-12T13:56:22.948Z</time></trkpt><trkpt lat="43.7661323" lon="11.3007528"><ele>55.0</ele><time>2026-04-12T13:56:23.947Z</time></trkpt><trkpt lat="43.7661563" lon="11.3005953"><ele>54.5</ele><time>2026-04-12T13:56:24.947Z</time></trkpt><trkpt lat="43.7661799" lon="11.3004251"><ele>54.0</ele><time>2026-04-12T13:56:25.947Z</time></trkpt><trkpt lat="43.7662031" lon="11.3002368"><ele>53.5</ele><time>2026-04-12T13:56:26.946Z</time></trkpt><trkpt lat="43.7662319" lon="11.300041"><ele>53.0</ele><time>2026-04-12T13:56:27.946Z</time></trkpt><trkpt lat="43.7662645" lon="11.2998444"><ele>53.0</ele><time>2026-04-12T13:56:28.947Z</time></trkpt><trkpt lat="43.7662975" lon="11.299671"><ele>53.0</ele><time>2026-04-12T13:56:29.948Z</time></trkpt><trkpt lat="43.7663234" lon="11.2994991"><ele>53.0</ele><time>2026-04-12T13:56:30.948Z</time></trkpt><trkpt lat="43.7663466" lon="11.2993371"><ele>53.0</ele><time>2026-04-12T13:56:31.947Z</time></trkpt><trkpt lat="43.7663746" lon="11.2991449"><ele>53.0</ele><time>2026-04-12T13:56:32.947Z</time></trkpt><trkpt lat="43.7664048" lon="11.2989089"><ele>53.0</ele><time>2026-04-12T13:56:33.948Z</time></trkpt><trkpt lat="43.7664483" lon="11.2986296"><ele>53.0</ele><time>2026-04-12T13:56:34.947Z</time></trkpt><trkpt lat="43.766502" lon="11.2983425"><ele>52.66666666666667</ele><time>2026-04-12T13:56:35.947Z</time></trkpt><trkpt lat="43.7665474" lon="11.2980804"><ele>52.33333333333333</ele><time>2026-04-12T13:56:36.947Z</time></trkpt><trkpt lat="43.7665872" lon="11.2978489"><ele>52.0</ele><time>2026-04-12T13:56:37.947Z</time></trkpt><trkpt lat="43.7666214" lon="11.2976486"><ele>52.0</ele><time>2026-04-12T13:56:38.948Z</time></trkpt><trkpt lat="43.7666488" lon="11.2974881"><ele>52.0</ele><time>2026-04-12T13:56:39.947Z</time></trkpt><trkpt lat="43.7666743" lon="11.2973627"><ele>52.0</ele><time>2026-04-12T13:56:40.948Z</time></trkpt><trkpt lat="43.7666958" lon="11.2972584"><ele>52.0</ele><time>2026-04-12T13:56:41.948Z</time></trkpt><trkpt lat="43.7667234" lon="11.2971146"><ele>52.0</ele><time>2026-04-12T13:56:43.946Z</time></trkpt><trkpt lat="43.7667423" lon="11.2970105"><ele>51.99999999999999</ele><time>2026-04-12T13:56:46.947Z</time></trkpt><trkpt lat="43.7667835" lon="11.2969256"><ele>52.0</ele><time>2026-04-12T13:56:49.948Z</time></trkpt><trkpt lat="43.7668441" lon="11.2968815"><ele>52.0</ele><time>2026-04-12T13:56:51.947Z</time></trkpt><trkpt lat="43.7669089" lon="11.2968681"><ele>52.0</ele><time>2026-04-12T13:56:52.946Z</time></trkpt><trkpt lat="43.7669863" lon="11.2968863"><ele>51.99999999999999</ele><time>2026-04-12T13:56:53.947Z</time></trkpt><trkpt lat="43.7670856" lon="11.2969325"><ele>52.0</ele><time>2026-04-12T13:56:54.946Z</time></trkpt><trkpt lat="43.7671977" lon="11.2969911"><ele>52.0</ele><time>2026-04-12T13:56:55.946Z</time></trkpt><trkpt lat="43.7673217" lon="11.2970563"><ele>52.0</ele><time>2026-04-12T13:56:56.946Z</time></trkpt><trkpt lat="43.767447" lon="11.2971214"><ele>52.0</ele><time>2026-04-12T13:56:57.948Z</time></trkpt><trkpt lat="43.7675592" lon="11.2971789"><ele>52.0</ele><time>2026-04-12T13:56:58.946Z</time></trkpt><trkpt lat="43.7676652" lon="11.297225"><ele>51.83333333333333</ele><time>2026-04-12T13:56:59.947Z</time></trkpt><trkpt lat="43.7677566" lon="11.2972657"><ele>51.666666666666664</ele><time>2026-04-12T13:57:00.948Z</time></trkpt><trkpt lat="43.7678252" lon="11.2972842"><ele>51.5</ele><time>2026-04-12T13:57:01.946Z</time></trkpt><trkpt lat="43.7678971" lon="11.2972988"><ele>51.33333333333333</ele><time>2026-04-12T13:57:04.946Z</time></trkpt><trkpt lat="43.7679951" lon="11.2972787"><ele>51.166666666666664</ele><time>2026-04-12T13:57:08.948Z</time></trkpt><trkpt lat="43.7680714" lon="11.297247"><ele>51.0</ele><time>2026-04-12T13:57:09.945Z</time></trkpt><trkpt lat="43.7681479" lon="11.2972278"><ele>51.0</ele><time>2026-04-12T13:57:10.948Z</time></trkpt><trkpt lat="43.7682745" lon="11.2972628"><ele>51.0</ele><time>2026-04-12T13:57:11.947Z</time></trkpt><trkpt lat="43.7684422" lon="11.2972814"><ele>51.0</ele><time>2026-04-12T13:57:12.946Z</time></trkpt><trkpt lat="43.7686023" lon="11.2972897"><ele>51.33333333333333</ele><time>2026-04-12T13:57:13.948Z</time></trkpt><trkpt lat="43.768763" lon="11.2972913"><ele>51.666666666666664</ele><time>2026-04-12T13:57:14.947Z</time></trkpt><trkpt lat="43.7689332" lon="11.2972898"><ele>52.0</ele><time>2026-04-12T13:57:15.946Z</time></trkpt><trkpt lat="43.76916" lon="11.2972476"><ele>52.0</ele><time>2026-04-12T13:57:16.948Z</time></trkpt><trkpt lat="43.7693392" lon="11.2972412"><ele>52.0</ele><time>2026-04-12T13:57:17.946Z</time></trkpt><trkpt lat="43.7694915" lon="11.2972306"><ele>52.0</ele><time>2026-04-12T13:57:18.948Z</time></trkpt><trkpt lat="43.7696185" lon="11.2972304"><ele>51.99999999999999</ele><time>2026-04-12T13:57:19.947Z</time></trkpt><trkpt lat="43.7697295" lon="11.2972318"><ele>52.0</ele><time>2026-04-12T13:57:20.948Z</time></trkpt><trkpt lat="43.7698202" lon="11.2972407"><ele>52.0</ele><time>2026-04-12T13:57:21.948Z</time></trkpt><trkpt lat="43.7699028" lon="11.2972597"><ele>52.0</ele><time>2026-04-12T13:57:22.947Z</time></trkpt><trkpt lat="43.7699763" lon="11.2973014"><ele>51.99999999999999</ele><time>2026-04-12T13:57:23.946Z</time></trkpt><trkpt lat="43.7700304" lon="11.2973608"><ele>52.0</ele><time>2026-04-12T13:57:24.948Z</time></trkpt><trkpt lat="43.7700754" lon="11.2974364"><ele>51.99999999999999</ele><time>2026-04-12T13:57:25.946Z</time></trkpt><trkpt lat="43.7700819" lon="11.2975363"><ele>52.0</ele><time>2026-04-12T13:57:26.947Z</time></trkpt><trkpt lat="43.7700744" lon="11.2976416"><ele>52.0</ele><time>2026-04-12T13:57:27.947Z</time></trkpt><trkpt lat="43.7700534" lon="11.297765"><ele>52.0</ele><time>2026-04-12T13:57:28.948Z</time></trkpt><trkpt lat="43.7700336" lon="11.2978898"><ele>51.99999999999999</ele><time>2026-04-12T13:57:29.948Z</time></trkpt><trkpt lat="43.7700176" lon="11.2980024"><ele>52.0</ele><time>2026-04-12T13:57:30.947Z</time></trkpt><trkpt lat="43.7700046" lon="11.2981104"><ele>52.166666666666664</ele><time>2026-04-12T13:57:31.946Z</time></trkpt><trkpt lat="43.7699871" lon="11.2982042"><ele>52.33333333333333</ele><time>2026-04-12T13:57:32.948Z</time></trkpt><trkpt lat="43.769969" lon="11.2983441"><ele>52.5</ele><time>2026-04-12T13:57:34.946Z</time></trkpt><trkpt lat="43.7699546" lon="11.2984379"><ele>52.66666666666667</ele><time>2026-04-12T13:57:37.948Z</time></trkpt><trkpt lat="43.7699563" lon="11.2985629"><ele>52.833333333333336</ele><time>2026-04-12T13:57:40.947Z</time></trkpt><trkpt lat="43.7699171" lon="11.2987125"><ele>53.0</ele><time>2026-04-12T13:57:42.947Z</time></trkpt><trkpt lat="43.7698841" lon="11.2987925"><ele>53.0</ele><time>2026-04-12T13:57:44.948Z</time></trkpt><trkpt lat="43.7698475" lon="11.2988871"><ele>53.0</ele><time>2026-04-12T13:57:46.947Z</time></trkpt><trkpt lat="43.7698142" lon="11.2989775"><ele>53.0</ele><time>2026-04-12T13:57:47.947Z</time></trkpt><trkpt lat="43.769784" lon="11.299089"><ele>53.0</ele><time>2026-04-12T13:57:48.946Z</time></trkpt><trkpt lat="43.7697606" lon="11.2992397"><ele>53.0</ele><time>2026-04-12T13:57:49.948Z</time></trkpt><trkpt lat="43.7697377" lon="11.2993992"><ele>53.4</ele><time>2026-04-12T13:57:50.947Z</time></trkpt><trkpt lat="43.7697143" lon="11.2995422"><ele>53.8</ele><time>2026-04-12T13:57:51.947Z</time></trkpt><trkpt lat="43.769691" lon="11.2996648"><ele>54.2</ele><time>2026-04-12T13:57:52.947Z</time></trkpt><trkpt lat="43.7696585" lon="11.299768"><ele>54.6</ele><time>2026-04-12T13:57:53.946Z</time></trkpt><trkpt lat="43.7696188" lon="11.2998777"><ele>55.0</ele><time>2026-04-12T13:57:54.947Z</time></trkpt><trkpt lat="43.7695715" lon="11.3000172"><ele>55.5</ele><time>2026-04-12T13:57:55.948Z</time></trkpt><trkpt lat="43.7695258" lon="11.3001868"><ele>56.0</ele><time>2026-04-12T13:57:56.947Z</time></trkpt><trkpt lat="43.7694916" lon="11.3003701"><ele>56.5</ele><time>2026-04-12T13:57:57.947Z</time></trkpt><trkpt lat="43.7694652" lon="11.3005401"><ele>57.0</ele><time>2026-04-12T13:57:58.946Z</time></trkpt><trkpt lat="43.7694396" lon="11.3006821"><ele>57.0</ele><time>2026-04-12T13:57:59.948Z</time></trkpt><trkpt lat="43.7694181" lon="11.3007949"><ele>57.0</ele><time>2026-04-12T13:58:00.948Z</time></trkpt><trkpt lat="43.7694021" lon="11.3009008"><ele>57.0</ele><time>2026-04-12T13:58:01.947Z</time></trkpt><trkpt lat="43.7693989" lon="11.3010022"><ele>57.0</ele><time>2026-04-12T13:58:02.947Z</time></trkpt><trkpt lat="43.769381" lon="11.301158"><ele>57.0</ele><time>2026-04-12T13:58:04.947Z</time></trkpt><trkpt lat="43.7693357" lon="11.301252"><ele>57.0</ele><time>2026-04-12T13:58:06.948Z</time></trkpt><trkpt lat="43.7692354" lon="11.3012555"><ele>56.833333333333336</ele><time>2026-04-12T13:58:08.946Z</time></trkpt><trkpt lat="43.7691663" lon="11.3012334"><ele>56.66666666666667</ele><time>2026-04-12T13:58:09.947Z</time></trkpt><trkpt lat="43.7690885" lon="11.3012148"><ele>56.5</ele><time>2026-04-12T13:58:10.946Z</time></trkpt><trkpt lat="43.768993" lon="11.3011878"><ele>56.333333333333336</ele><time>2026-04-12T13:58:11.948Z</time></trkpt><trkpt lat="43.7689012" lon="11.30115"><ele>56.16666666666667</ele><time>2026-04-12T13:58:12.946Z</time></trkpt><trkpt lat="43.7688291" lon="11.3010856"><ele>56.0</ele><time>2026-04-12T13:58:13.947Z</time></trkpt><trkpt lat="43.7687667" lon="11.301031"><ele>56.0</ele><time>2026-04-12T13:58:14.948Z</time></trkpt><trkpt lat="43.7687295" lon="11.3009591"><ele>55.99999999999999</ele><time>2026-04-12T13:58:15.948Z</time></trkpt><trkpt lat="43.7687106" lon="11.3007896"><ele>55.99999999999999</ele><time>2026-04-12T13:58:17.948Z</time></trkpt><trkpt lat="43.7687199" lon="11.3006693"><ele>56.0</ele><time>2026-04-12T13:58:18.948Z</time></trkpt><trkpt lat="43.7687373" lon="11.3004578"><ele>56.0</ele><time>2026-04-12T13:58:19.948Z</time></trkpt><trkpt lat="43.7687508" lon="11.3002621"><ele>56.199999999999996</ele><time>2026-04-12T13:58:20.947Z</time></trkpt><trkpt lat="43.7687573" lon="11.3000842"><ele>56.39999999999999</ele><time>2026-04-12T13:58:21.948Z</time></trkpt><trkpt lat="43.7687724" lon="11.2999241"><ele>56.6</ele><time>2026-04-12T13:58:22.945Z</time></trkpt><trkpt lat="43.768795" lon="11.2997853"><ele>56.8</ele><time>2026-04-12T13:58:23.945Z</time></trkpt><trkpt lat="43.7688219" lon="11.2996622"><ele>57.0</ele><time>2026-04-12T13:58:24.948Z</time></trkpt><trkpt lat="43.7688499" lon="11.2995522"><ele>56.666666666666664</ele><time>2026-04-12T13:58:25.947Z</time></trkpt><trkpt lat="43.7688748" lon="11.2994313"><ele>56.33333333333333</ele><time>2026-04-12T13:58:26.946Z</time></trkpt><trkpt lat="43.7689014" lon="11.2992966"><ele>56.0</ele><time>2026-04-12T13:58:27.947Z</time></trkpt><trkpt lat="43.7689281" lon="11.2991617"><ele>55.666666666666664</ele><time>2026-04-12T13:58:28.947Z</time></trkpt><trkpt lat="43.7689491" lon="11.2990491"><ele>55.33333333333333</ele><time>2026-04-12T13:58:29.946Z</time></trkpt><trkpt lat="43.7689649" lon="11.2989588"><ele>55.0</ele><time>2026-04-12T13:58:30.947Z</time></trkpt><trkpt lat="43.7689877" lon="11.2988243"><ele>54.83333333333333</ele><time>2026-04-12T13:58:32.948Z</time></trkpt><trkpt lat="43.7690083" lon="11.2987017"><ele>54.666666666666664</ele><time>2026-04-12T13:58:34.948Z</time></trkpt><trkpt lat="43.7690397" lon="11.2985656"><ele>54.5</ele><time>2026-04-12T13:58:36.947Z</time></trkpt><trkpt lat="43.7690572" lon="11.2984438"><ele>54.33333333333333</ele><time>2026-04-12T13:58:38.947Z</time></trkpt><trkpt lat="43.7690827" lon="11.2983108"><ele>54.166666666666664</ele><time>2026-04-12T13:58:40.947Z</time></trkpt><trkpt lat="43.7690944" lon="11.2982219"><ele>54.0</ele><time>2026-04-12T13:58:46.947Z</time></trkpt><trkpt lat="43.7691054" lon="11.2981318"><ele>54.0</ele><time>2026-04-12T13:58:48.945Z</time></trkpt><trkpt lat="43.769121" lon="11.2980395"><ele>53.0</ele><time>2026-04-12T13:59:06.946Z</time></trkpt></trkseg></trk></gpx>